[[{"header":{"parameterUnit":"m.s-1","parameterCategory":1,"la1":30.6,"la2":28.766,"lo1":-90.7593,"lo2":-88.6598,"dy":0.0162,"dx":0.0183,"nx":116,"ny":114,"refTime":"2023-11-13T18:00:00:Z","depth":0,"parameterNumber":2,"parameterNumberName":"U-component_of_WINDS"},"data":[0.0,0.0,0.0,0.0,0.0,0.0,0.0,0.0,0.0,0.0,0.0,0.0,0.0,0.0,0.0,0.0,0.0,0.0,0.0,0.0,0.0,0.0,0.0,0.0,0.0,0.0,0.0,0.0,0.0,0.0,0.0,0.0,0.0,0.0,0.0,0.0,0.0,0.0,0.0,0.0,0.0,0.0,0.0,0.0,0.0,0.0,0.0,0.0,0.0,0.0,0.0,0.0,0.0,0.0,0.0,0.0,0.0,0.0,0.0,0.0,0.0,0.0,0.0,0.0,0.0,0.0,0.0,0.0,0.0,0.0,0.0,0.0,0.0,0.0,0.0,0.0,0.0,0.0,0.0,0.0,0.0,0.0,0.0,0.0,0.0,0.0,0.0,0.0,0.0,0.0,0.0,0.0,0.0,0.0,0.0,0.0,0.0,0.0,0.0,0.0,0.0,0.0,0.0,0.0,0.0,0.0,0.0,0.0,0.0,0.0,0.0,0.0,0.0,0.0,0.0,0.0,0.0,0.0,0.0,0.0,0.0,0.0,0.0,0.0,0.0,0.0,0.0,0.0,0.0,0.0,0.0,0.0,0.0,0.0,0.0,0.0,0.0,0.0,0.0,0.0,0.0,0.0,0.0,0.0,0.0,0.0,0.0,0.0,0.0,0.0,0.0,0.0,0.0,0.0,0.0,0.0,0.0,0.0,0.0,0.0,0.0,0.0,0.0,0.0,0.0,0.0,0.0,0.0,0.0,0.0,0.0,0.0,0.0,0.0,0.0,0.0,0.0,0.0,0.0,0.0,0.0,0.0,0.0,0.0,0.0,0.0,0.0,0.0,0.0,0.0,0.0,0.0,0.0,0.0,0.0,0.0,0.0,0.0,0.0,0.0,0.0,0.0,0.0,0.0,0.0,0.0,0.0,0.0,0.0,0.0,0.0,0.0,0.0,0.0,0.0,0.0,0.0,0.0,0.0,0.0,0.0,0.0,0.0,0.0,0.0,0.0,0.0,0.0,0.0,0.0,0.0,0.0,0.0,0.0,0.0,0.0,0.0,0.0,0.0,0.0,0.0,0.0,0.0,0.0,0.0,0.0,0.0,0.0,0.0,0.0,0.0,0.0,0.0,0.0,0.0,0.0,0.0,0.0,0.0,0.0,0.0,0.0,0.0,0.0,0.0,0.0,0.0,0.0,0.0,0.0,0.0,0.0,0.0,0.0,0.0,0.0,0.0,0.0,0.0,0.0,0.0,0.0,0.0,0.0,0.0,0.0,0.0,0.0,0.0,0.0,0.0,0.0,0.0,0.0,0.0,0.0,0.0,0.0,0.0,0.0,0.0,0.0,0.0,0.0,0.0,0.0,0.0,0.0,0.0,0.0,0.0,0.0,0.0,0.0,0.0,0.0,0.0,0.0,0.0,0.0,0.0,0.0,0.0,0.0,0.0,0.0,0.0,0.0,0.0,0.0,0.0,0.0,0.0,0.0,0.0,0.0,0.0,0.0,0.0,0.0,0.0,0.0,0.0,0.0,0.0,0.0,0.0,0.0,0.0,0.0,0.0,0.0,0.0,0.0,0.0,0.0,0.0,0.0,0.0,0.0,0.0,0.0,0.0,0.0,0.0,0.0,0.0,0.0,0.0,0.0,0.0,0.0,0.0,0.0,0.0,0.0,0.0,0.0,0.0,0.0,0.0,0.0,0.0,0.0,0.0,0.0,0.0,0.0,0.0,0.0,0.0,0.0,0.0,0.0,0.0,0.0,0.0,0.0,0.0,0.0,0.0,0.0,0.0,0.0,0.0,0.0,0.0,0.0,0.0,0.0,0.0,0.0,0.0,0.0,0.0,0.0,0.0,0.0,0.0,0.0,0.0,0.0,0.0,0.0,0.0,0.0,0.0,0.0,0.0,0.0,0.0,0.0,0.0,0.0,0.0,0.0,0.0,0.0,0.0,0.0,0.0,0.0,0.0,0.0,0.0,0.0,0.0,0.0,0.0,0.0,0.0,0.0,0.0,0.0,0.0,0.0,0.0,0.0,0.0,0.0,0.0,0.0,0.0,0.0,0.0,0.0,0.0,0.0,0.0,0.0,0.0,0.0,0.0,0.0,0.0,0.0,0.0,0.0,0.0,0.0,0.0,0.0,0.0,0.0,0.0,0.0,0.0,0.0,0.0,0.0,0.0,0.0,0.0,0.0,0.0,0.0,0.0,0.0,0.0,0.0,0.0,0.0,0.0,0.0,0.0,0.0,0.0,0.0,0.0,0.0,0.0,0.0,0.0,0.0,0.0,0.0,0.0,0.0,0.0,0.0,0.0,0.0,0.0,0.0,0.0,0.0,0.0,0.0,0.0,0.0,0.0,0.0,0.0,0.0,0.0,0.0,0.0,0.0,0.0,0.0,0.0,0.0,0.0,0.0,0.0,0.0,0.0,0.0,0.0,0.0,0.0,0.0,0.0,0.0,0.0,0.0,0.0,0.0,0.0,0.0,0.0,0.0,0.0,0.0,0.0,0.0,0.0,0.0,0.0,0.0,0.0,0.0,0.0,0.0,0.0,0.0,0.0,0.0,0.0,0.0,0.0,0.0,0.0,0.0,0.0,0.0,0.0,0.0,0.0,0.0,0.0,0.0,0.0,0.0,0.0,0.0,0.0,0.0,0.0,0.0,0.0,0.0,0.0,0.0,0.0,0.0,0.0,0.0,0.0,0.0,0.0,0.0,0.0,0.0,0.0,0.0,0.0,0.0,0.0,0.0,0.0,0.0,0.0,0.0,0.0,0.0,0.0,0.0,0.0,0.0,0.0,0.0,0.0,0.0,0.0,0.0,0.0,0.0,0.0,0.0,0.0,0.0,0.0,0.0,0.0,0.0,0.0,0.0,0.0,0.0,0.0,0.0,0.0,0.0,0.0,0.0,0.0,0.0,0.0,0.0,0.0,0.0,0.0,0.0,0.0,0.0,0.0,0.0,0.0,0.0,0.0,0.0,0.0,0.0,0.0,0.0,0.0,0.0,0.0,0.0,0.0,0.0,0.0,0.0,0.0,0.0,0.0,0.0,0.0,0.0,0.0,0.0,0.0,0.0,0.0,0.0,0.0,0.0,0.0,0.0,0.0,0.0,0.0,0.0,0.0,0.0,0.0,0.0,0.0,0.0,0.0,0.0,0.0,0.0,0.0,0.0,0.0,0.0,0.0,0.0,0.0,0.0,0.0,0.0,0.0,0.0,0.0,0.0,0.0,0.0,0.0,0.0,0.0,0.0,0.0,0.0,0.0,0.0,0.0,0.0,0.0,0.0,0.0,0.0,0.0,0.0,0.0,0.0,0.0,0.0,0.0,0.0,0.0,0.0,0.0,0.0,0.0,0.0,0.0,0.0,0.0,0.0,0.0,0.0,0.0,0.0,0.0,0.0,0.0,0.0,0.0,0.0,0.0,0.0,0.0,0.0,0.0,0.0,0.0,0.0,0.0,0.0,0.0,0.0,0.0,0.0,0.0,0.0,0.0,0.0,0.0,0.0,0.0,0.0,0.0,0.0,0.0,0.0,0.0,0.0,0.0,0.0,0.0,0.0,0.0,0.0,0.0,0.0,0.0,0.0,0.0,0.0,0.0,0.0,0.0,0.0,0.0,0.0,0.0,0.0,0.0,0.0,0.0,0.0,0.0,0.0,0.0,0.0,0.0,0.0,0.0,0.0,0.0,0.0,0.0,0.0,0.0,0.0,0.0,0.0,0.0,0.0,0.0,0.0,0.0,0.0,0.0,0.0,0.0,0.0,0.0,0.0,0.0,0.0,0.0,0.0,0.0,0.0,0.0,0.0,0.0,0.0,0.0,0.0,0.0,0.0,0.0,0.0,0.0,0.0,0.0,0.0,0.0,0.0,0.0,0.0,0.0,0.0,0.0,0.0,0.0,0.0,0.0,0.0,0.0,0.0,0.0,0.0,0.0,0.0,0.0,0.0,0.0,0.0,0.0,0.0,0.0,0.0,0.0,0.0,0.0,0.0,0.0,0.0,0.0,0.0,0.0,0.0,0.0,0.0,0.0,0.0,0.0,0.0,0.0,0.0,0.0,0.0,0.0,0.0,0.0,0.0,0.0,0.0,0.0,0.0,0.0,0.0,0.0,0.0,0.0,0.0,0.0,0.0,0.0,0.0,0.0,0.0,0.0,0.0,0.0,0.0,0.0,0.0,0.0,0.0,0.0,0.0,0.0,0.0,0.0,0.0,0.0,0.0,0.0,0.0,0.0,0.0,0.0,0.0,0.0,0.0,0.0,0.0,0.0,0.0,0.0,0.0,0.0,0.0,0.0,0.0,0.0,0.0,0.0,0.0,0.0,0.0,0.0,0.0,0.0,0.0,0.0,0.0,0.0,0.0,0.0,0.0,0.0,0.0,0.0,0.0,0.0,0.0,0.0,0.0,0.0,0.0,0.0,0.0,0.0,0.0,0.0,0.0,0.0,0.0,0.0,0.0,0.0,0.0,0.0,0.0,0.0,0.0,0.0,0.0,0.0,0.0,0.0,0.0,0.0,0.0,0.0,0.0,0.0,0.0,0.0,0.0,0.0,0.0,0.0,0.0,0.0,0.0,0.0,0.0,0.0,0.0,0.0,0.0,0.0,0.0,0.0,0.0,0.0,0.0,0.0,0.0,0.0,0.0,0.0,0.0,0.0,0.0,0.0,0.0,0.0,0.0,0.0,0.0,0.0,0.0,0.0,0.0,0.0,0.0,0.0,0.0,0.0,0.0,0.0,0.0,0.0,0.0,0.0,0.0,0.0,0.0,0.0,0.0,0.0,0.0,0.0,0.0,0.0,0.0,0.0,0.0,0.0,0.0,0.0,0.0,0.0,0.0,0.0,0.0,0.0,0.0,0.0,0.0,0.0,0.0,0.0,0.0,0.0,0.0,0.0,0.0,0.0,0.0,0.0,0.0,0.0,0.0,0.0,0.0,0.0,0.0,0.0,0.0,0.0,0.0,0.0,0.0,0.0,0.0,0.0,0.0,0.0,0.0,0.0,0.0,0.0,0.0,0.0,0.0,0.0,0.0,0.0,0.0,0.0,0.0,0.0,0.0,0.0,0.0,0.0,0.0,0.0,0.0,0.0,0.0,0.0,0.0,0.0,0.0,0.0,0.0,0.0,0.0,0.0,0.0,0.0,0.0,0.0,0.0,0.0,0.0,0.0,0.0,0.0,0.0,0.0,0.0,0.0,0.0,0.0,0.0,0.0,0.0,0.0,0.0,0.0,0.0,0.0,0.0,0.0,0.0,0.0,0.0,0.0,0.0,0.0,0.0,0.0,0.0,0.0,0.0,0.0,0.0,0.0,0.0,0.0,0.0,0.0,0.0,0.0,0.0,0.0,0.0,0.0,0.0,0.0,0.0,0.0,0.0,0.0,0.0,0.0,0.0,0.0,0.0,0.0,0.0,0.0,0.0,0.0,0.0,0.0,0.0,0.0,0.0,0.0,0.0,0.0,0.0,0.0,0.0,0.0,0.0,0.0,0.0,0.0,0.0,0.0,0.0,0.0,0.0,0.0,0.0,0.0,0.0,0.0,0.0,0.0,0.0,0.0,0.0,0.0,0.0,0.0,0.0,0.0,0.0,0.0,0.0,0.0,0.0,0.0,0.0,0.0,0.0,0.0,0.0,0.0,0.0,0.0,0.0,0.0,0.0,0.0,0.0,0.0,0.0,0.0,0.0,0.0,0.0,0.0,0.0,0.0,0.0,0.0,0.0,0.0,0.0,0.0,0.0,0.0,0.0,0.0,0.0,0.0,0.0,0.0,0.0,0.0,0.0,0.0,0.0,0.0,0.0,0.0,0.0,0.0,0.0,0.0,0.0,0.0,0.0,0.0,0.0,0.0,0.0,0.0,0.0,0.0,0.0,0.0,0.0,0.0,0.0,0.0,0.0,0.0,0.0,0.0,0.0,0.0,0.0,0.0,0.0,0.0,0.0,0.0,0.0,0.0,0.0,0.0,0.0,0.0,0.0,0.0,0.0,0.0,0.0,0.0,0.0,0.0,0.0,0.0,0.0,0.0,0.0,0.0,0.0,0.0,0.0,0.0,0.0,0.0,0.0,0.0,0.0,0.0,0.0,0.0,0.0,0.0,0.0,3.2491,3.0379,0.0,0.0,0.0,0.0,0.0,0.0,0.0,0.0,0.0,0.0,0.0,0.0,0.0,0.0,0.0,0.0,0.0,0.0,0.0,0.0,0.0,0.0,0.0,1.7978,1.8214,1.8653,1.8696,1.8752,1.8856,0.0,0.0,0.0,0.0,0.0,2.0565,2.0582,2.1299,2.2788,2.3163,2.4111,2.5536,2.4385,2.3776,2.3679,0.0,0.0,0.0,0.0,0.0,0.0,0.0,0.0,0.0,0.0,0.0,0.0,0.0,0.0,0.0,0.0,0.0,0.0,0.0,0.0,0.0,0.0,0.0,0.0,0.0,0.0,0.0,0.0,0.0,0.0,0.0,0.0,0.0,0.0,0.0,0.0,0.0,0.0,0.0,0.0,0.0,0.0,0.0,0.0,0.0,0.0,0.0,0.0,0.0,0.0,0.0,0.0,0.0,0.0,0.0,0.0,0.0,0.0,0.0,0.0,0.0,0.0,0.0,0.0,0.0,0.0,0.0,0.0,0.0,0.0,3.4561,3.3039,0.0,0.0,0.0,0.0,0.0,0.0,0.0,0.0,0.0,0.0,0.0,0.0,0.0,0.0,0.0,0.0,0.0,0.0,0.0,0.0,0.0,1.7505,1.8457,1.8706,1.9174,2.0085,2.0166,2.0175,2.0211,2.0217,0.0,0.0,0.0,2.0578,2.1376,2.1512,2.2544,2.4495,2.5168,2.623,2.7681,2.7681,2.7355,2.6725,2.5583,0.0,0.0,0.0,0.0,0.0,0.0,0.0,0.0,0.0,0.0,0.0,0.0,0.0,0.0,0.0,0.0,0.0,0.0,0.0,0.0,0.0,0.0,0.0,0.0,0.0,0.0,0.0,0.0,0.0,0.0,0.0,0.0,0.0,0.0,0.0,0.0,0.0,0.0,0.0,0.0,0.0,0.0,0.0,0.0,0.0,0.0,0.0,0.0,0.0,0.0,0.0,0.0,0.0,0.0,0.0,0.0,0.0,0.0,0.0,0.0,0.0,0.0,0.0,3.6342,3.6749,3.7568,3.8071,3.8651,3.9154,3.6708,3.6288,3.7148,3.494,0.0,0.0,0.0,0.0,0.0,0.0,0.0,0.0,0.0,0.0,0.0,0.0,0.0,0.0,0.0,0.0,0.0,0.0,0.0,1.8162,1.8315,1.9123,1.9943,2.0709,2.0782,2.0854,2.1025,2.1038,2.1038,2.1038,2.1038,2.1383,2.2134,2.2784,2.3573,2.4495,2.7761,3.0113,3.1565,3.1565,3.1515,3.1295,2.8581,2.7621,2.7975,0.0,0.0,0.0,0.0,0.0,0.0,0.0,0.0,0.0,0.0,0.0,0.0,0.0,0.0,0.0,0.0,0.0,0.0,0.0,0.0,0.0,0.0,0.0,0.0,0.0,0.0,0.0,0.0,0.0,0.0,0.0,0.0,0.0,0.0,0.0,0.0,0.0,0.0,0.0,0.0,0.0,3.2162,3.3084,0.0,0.0,0.0,0.0,0.0,0.0,0.0,0.0,0.0,0.0,0.0,0.0,0.0,3.6492,3.8112,3.8814,3.9301,3.9593,4.0107,4.0399,4.0541,4.0627,4.0703,4.0795,4.0406,0.0,3.9645,3.8576,0.0,0.0,0.0,0.0,0.0,0.0,0.0,0.0,0.0,0.0,0.0,0.0,0.0,0.0,0.0,0.0,0.0,0.0,0.0,0.0,0.0,2.1143,2.2158,2.3427,2.3914,2.4019,2.3694,2.3289,2.2866,2.2456,2.2047,2.2155,2.2899,2.4049,2.5828,2.8278,3.0734,3.2285,3.2921,3.2921,3.3146,3.3484,3.216,3.1018,2.9993,2.885,0.0,0.0,0.0,0.0,0.0,0.0,0.0,0.0,0.0,0.0,0.0,0.0,0.0,0.0,0.0,0.0,0.0,0.0,0.0,0.0,0.0,0.0,0.0,0.0,0.0,0.0,0.0,0.0,0.0,0.0,0.0,0.0,0.0,0.0,0.0,0.0,0.0,0.0,0.0,3.1825,3.3562,3.4384,3.416,3.3625,0.0,0.0,0.0,0.0,0.0,0.0,0.0,0.0,0.0,3.8274,3.8326,3.8918,4.0117,4.0436,4.0623,4.0714,4.0964,4.1099,4.1118,4.158,4.1768,4.1805,4.2249,4.2304,4.1919,4.0177,3.8829,3.779,0.0,0.0,0.0,0.0,3.6566,3.6725,0.0,0.0,0.0,0.0,0.0,0.0,0.0,0.0,0.0,0.0,0.0,0.0,2.1759,2.3036,2.4316,2.5761,2.6552,2.6755,2.6209,2.5642,2.5105,2.4556,2.3643,2.3673,2.4804,2.6285,2.8586,3.177,3.3046,3.3773,3.3954,3.3954,3.4263,3.4776,3.4776,3.3863,3.2241,3.1118,2.9989,2.8846,0.0,0.0,0.0,0.0,0.0,0.0,0.0,0.0,0.0,0.0,0.0,0.0,0.0,0.0,0.0,0.0,0.0,0.0,0.0,0.0,0.0,0.0,0.0,0.0,0.0,0.0,0.0,0.0,0.0,0.0,0.0,0.0,0.0,0.0,0.0,0.0,0.0,3.3593,3.4963,3.5576,3.5632,3.5173,0.0,0.0,0.0,0.0,0.0,0.0,3.7206,3.8358,3.946,4.0473,4.051,4.0895,4.1713,4.1713,4.1713,4.1713,4.1713,4.1713,4.1727,4.2323,4.2602,4.2639,4.3231,4.3506,4.3359,4.156,4.0345,3.9574,3.9019,3.8287,3.7632,3.8489,3.8772,3.8963,0.0,0.0,0.0,0.0,0.0,0.0,0.0,0.0,0.0,0.0,0.0,2.0864,2.189,2.409,2.5782,2.6581,2.7321,2.7735,2.7684,2.765,2.7621,2.7583,2.6201,2.6454,2.8671,3.0151,3.1698,3.3283,3.4071,3.4805,3.5487,3.5487,3.5515,3.5538,3.5538,3.5481,3.5284,3.3825,3.277,3.1887,2.9723,0.0,0.0,0.0,0.0,0.0,0.0,0.0,0.0,0.0,0.0,0.0,0.0,0.0,0.0,0.0,0.0,0.0,0.0,0.0,0.0,0.0,0.0,0.0,0.0,0.0,0.0,0.0,0.0,0.0,0.0,0.0,0.0,0.0,0.0,0.0,0.0,0.0,0.0,3.7364,3.7364,0.0,0.0,0.0,0.0,3.8336,3.8501,3.8905,3.9688,3.9798,4.0565,4.2139,4.2176,4.2561,4.3378,4.3378,4.3378,4.3378,4.3378,4.3378,4.3378,4.3419,4.3433,4.3433,4.3474,4.3506,4.3488,4.3363,4.2841,4.2123,4.2288,4.1746,4.0981,4.1978,4.2222,4.218,0.0,0.0,0.0,0.0,0.0,1.6603,1.6603,1.7155,1.8087,1.952,2.0765,2.2391,2.4771,2.6223,2.7524,2.8784,2.9562,2.9782,2.9316,2.9282,2.8944,2.8213,2.7924,2.8831,3.1075,3.2092,3.3333,3.4827,3.5087,3.5335,3.56,3.56,3.56,3.56,3.56,3.56,3.5571,3.5047,3.4123,3.2938,3.2154,3.0683,0.0,0.0,0.0,0.0,0.0,0.0,0.0,0.0,0.0,0.0,0.0,0.0,0.0,0.0,0.0,0.0,0.0,0.0,0.0,0.0,0.0,0.0,0.0,0.0,0.0,0.0,0.0,0.0,0.0,0.0,0.0,0.0,0.0,0.0,0.0,0.0,0.0,3.827,3.8733,0.0,3.8326,3.8733,3.9155,3.9445,4.0432,4.1148,4.1428,4.1946,4.2478,4.3043,4.3061,4.3212,4.3506,4.4016,4.4264,4.4287,4.48,4.5044,4.5044,4.5044,4.5044,4.5044,4.5044,4.5044,4.5044,4.5044,4.4277,4.3125,4.3716,4.3727,4.3516,4.4397,4.4673,4.4654,0.0,0.0,0.0,1.6603,1.6603,1.6603,1.6603,1.7442,1.8695,2.0372,2.1846,2.3756,2.6408,2.7816,2.8995,3.0014,3.0768,3.1094,3.0857,3.0492,3.0245,3.0083,3.0583,3.1425,3.2638,3.3638,3.4625,3.56,3.56,3.56,3.5605,3.5881,3.5864,3.5616,3.5881,3.5847,3.56,3.56,3.5047,3.4144,3.4079,3.2903,3.1055,0.0,0.0,0.0,0.0,0.0,0.0,0.0,0.0,0.0,0.0,0.0,0.0,0.0,0.0,0.0,0.0,0.0,0.0,0.0,0.0,0.0,0.0,0.0,0.0,0.0,0.0,0.0,0.0,0.0,0.0,0.0,0.0,0.0,0.0,3.7731,3.9093,3.9093,3.9827,4.0102,3.9562,4.0249,4.0822,4.1083,4.2107,4.2694,4.2694,4.3212,4.3616,4.3906,4.3906,4.4034,4.4314,4.4837,4.5108,4.5104,4.5645,4.5902,4.5902,4.5902,4.5902,4.5902,4.5902,4.5902,4.5902,4.5902,4.5264,4.4364,4.4906,4.5108,4.5163,4.57,4.5902,4.5902,0.0,1.6503,1.66,1.6603,1.6603,1.6603,1.6603,1.7471,1.8728,2.0405,2.2734,2.488,2.6594,2.875,3.0115,3.0132,3.0784,3.15,3.2226,3.1302,3.1546,3.3357,3.4128,3.419,3.348,3.4878,3.5616,3.5639,3.5639,3.565,3.569,3.6473,3.6423,3.5707,3.649,3.64,3.5667,3.5656,3.5639,3.5622,3.5406,3.4557,3.327,0.0,0.0,0.0,0.0,0.0,0.0,0.0,0.0,0.0,0.0,0.0,0.0,0.0,0.0,0.0,0.0,0.0,0.0,0.0,0.0,0.0,0.0,0.0,0.0,0.0,0.0,0.0,0.0,0.0,0.0,0.0,0.0,0.0,3.7691,3.8957,3.9959,3.9959,4.0685,4.1173,4.1173,4.1878,4.2676,4.3488,4.3543,4.3543,4.3561,4.3561,4.3924,4.4718,4.4737,4.5104,4.5883,4.592,4.5938,4.5938,4.5961,4.5975,4.5975,4.5975,4.5975,4.5975,4.5975,4.5975,4.5975,4.5975,4.5975,4.5975,4.5957,4.5938,4.5938,4.5975,4.5975,4.5975,0.0,1.6435,1.6483,1.6583,1.6603,1.6603,1.6603,1.7878,1.9435,2.1174,2.3505,2.5858,2.812,2.9393,3.0323,3.0852,3.1072,3.128,3.1488,3.1734,3.2568,3.4134,3.4678,3.4941,3.4991,3.538,3.5887,3.6473,3.6473,3.6738,3.7268,3.7494,3.7477,3.7285,3.7494,3.7477,3.7234,3.671,3.6473,3.6406,3.5772,3.4986,3.4157,0.0,0.0,0.0,0.0,0.0,0.0,0.0,0.0,0.0,0.0,0.0,0.0,0.0,0.0,0.0,0.0,0.0,0.0,0.0,0.0,0.0,0.0,0.0,0.0,0.0,0.0,0.0,0.0,0.0,0.0,0.0,3.885,4.0167,3.9357,4.062,4.1644,4.1644,4.2341,4.2841,4.2841,4.3043,4.3502,4.4301,4.4374,4.4613,4.5209,4.5245,4.5337,4.5567,4.5571,4.5681,4.5902,4.648,4.6769,4.6773,4.7361,4.7641,4.7641,4.7641,4.7641,4.7641,4.7641,4.7641,4.7641,4.7641,4.7641,4.7585,4.6994,4.6769,4.6842,4.7439,4.7641,4.7641,0.0,1.6405,1.6433,1.6577,1.6603,1.6603,1.6603,1.8018,1.9728,2.1474,2.4074,2.6595,2.8767,2.9926,3.0729,3.1161,3.1195,3.1336,3.164,3.2351,3.3224,3.4252,3.4645,3.5082,3.5583,3.5932,3.6332,3.679,3.7105,3.7488,3.7916,3.8227,3.821,3.791,3.8221,3.8187,3.7866,3.7432,3.7071,3.6756,3.6282,3.5633,3.496,3.4919,3.4283,3.3363,3.3063,3.2704,3.2398,3.2512,0.0,0.0,0.0,0.0,0.0,0.0,0.0,0.0,0.0,0.0,0.0,0.0,0.0,0.0,0.0,0.0,0.0,0.0,0.0,0.0,0.0,0.0,0.0,0.0,4.0744,4.1937,4.1468,4.2217,4.2804,4.2804,4.3231,4.363,4.3975,4.3993,4.4342,4.5145,4.52,4.5402,4.5888,4.5902,4.6049,4.6388,4.6406,4.6558,4.6906,4.7379,4.7594,4.7613,4.8076,4.8301,4.8301,4.8301,4.8301,4.8301,4.8301,4.8301,4.8301,4.8301,4.8301,4.8246,0.0,0.0,0.0,0.0,4.8301,4.8301,1.6274,1.6384,1.6416,1.6573,1.6603,1.6603,1.6603,1.7994,1.9724,2.1573,2.4477,2.7059,2.8927,3.0371,3.1195,3.1195,3.1224,3.1575,3.2317,3.3081,3.3684,3.4035,3.4414,3.4928,3.5588,3.6389,3.684,3.6925,3.7652,3.8069,3.8153,3.8825,3.8768,3.8176,3.8825,3.8757,3.8136,3.8069,3.7607,3.6925,3.6823,3.6321,3.5604,3.5668,3.5246,3.4582,3.436,3.3954,3.3583,3.3796,0.0,0.0,0.0,0.0,0.0,0.0,0.0,0.0,0.0,0.0,0.0,0.0,0.0,0.0,0.0,0.0,0.0,0.0,0.0,0.0,0.0,0.0,0.0,0.0,4.2506,4.3506,4.3506,4.3579,4.3635,4.3635,4.3635,4.3956,4.4759,4.4847,4.5163,4.5971,4.6049,4.6067,4.6177,4.6177,0.0,0.0,0.0,4.7576,4.8296,4.8301,4.8301,4.8301,4.8301,4.8301,4.8301,4.8301,4.8301,4.8301,4.8301,4.8301,4.8301,4.8301,4.8301,4.8301,4.8301,4.8301,4.8301,4.8301,4.8301,4.8301,1.6184,1.6246,1.6313,1.656,1.6603,1.6603,1.6603,1.7843,1.9695,2.2255,2.4611,2.7049,2.9617,3.0671,3.1195,3.1195,3.1453,3.1917,3.2661,3.3702,3.4315,3.4407,3.5042,3.5453,3.56,3.6389,3.7088,3.7686,3.8436,3.9096,3.9683,3.9819,3.9802,3.9683,3.9819,3.9802,3.9649,3.9045,3.8368,3.7635,3.7043,3.6321,3.5655,3.609,3.5896,3.5446,3.5803,3.5596,3.519,3.5458,3.5357,3.5016,3.4389,3.4035,0.0,0.0,0.0,0.0,0.0,0.0,0.0,0.0,0.0,0.0,0.0,0.0,0.0,0.0,0.0,0.0,0.0,0.0,0.0,4.1915,4.2878,4.3506,4.3506,4.4066,4.4466,4.4466,4.4466,4.4778,4.559,4.5663,4.6007,4.6805,4.686,4.7154,4.7806,4.7842,4.7916,4.8058,4.8076,4.8131,4.8301,4.8301,4.8301,4.8301,4.8301,0.0,4.8301,4.8301,4.8301,4.8301,4.8301,4.8301,4.8301,4.8301,4.8301,4.8301,4.8301,4.8301,4.8301,4.8301,4.8301,4.8301,0.0,1.6201,1.6279,1.6553,1.6603,1.6603,1.6603,1.7801,1.9483,2.1714,2.3867,2.6113,2.8489,2.9281,2.9701,2.9842,3.0683,3.1664,3.2779,3.3899,3.4663,3.5024,3.5408,3.56,3.56,3.6755,3.7533,3.7899,3.9017,3.9734,4.0096,4.0096,4.0096,4.0096,4.0096,4.0096,4.0072,3.9717,3.9113,3.8396,3.7658,3.6896,3.6197,3.6051,3.5827,3.5644,3.5903,3.6006,3.6028,3.6156,3.6291,3.6265,3.5452,3.5266,3.4876,0.0,0.0,0.0,0.0,0.0,0.0,0.0,0.0,0.0,0.0,0.0,0.0,0.0,0.0,3.9068,4.0286,0.0,4.197,4.2767,4.3231,4.3635,4.4048,4.4447,4.47,4.47,4.5053,4.5622,4.6425,4.6498,4.6828,4.7631,4.7704,4.7874,4.8283,4.8301,4.8301,4.8301,4.8301,4.8301,4.8301,4.8301,4.8301,4.8301,4.8301,4.8301,4.8301,4.8301,4.8301,4.8301,4.8301,4.8301,4.8301,4.8301,4.8301,4.8301,4.8301,4.8301,4.8301,4.8301,4.8301,4.8301,0.0,1.6201,1.6279,1.6553,1.6603,1.6603,1.6603,1.768,1.9153,2.098,2.2849,2.4805,2.6902,2.7474,2.7928,2.847,2.9872,3.1367,3.2901,3.4068,3.4979,3.5571,3.56,3.56,3.56,3.6969,3.7764,3.7899,3.9231,3.996,4.0096,4.0096,4.0096,4.0096,4.0096,4.0096,4.0096,4.0096,3.966,3.8949,3.821,3.7455,3.6705,3.5904,3.56,3.56,3.56,3.5876,3.6266,3.6359,3.6759,3.7075,3.6291,3.6344,3.6193,3.3666,3.378,0.0,0.0,0.0,0.0,0.0,0.0,0.0,0.0,3.6945,3.7558,4.0084,4.0606,4.1009,4.2286,4.2525,4.2804,4.3593,4.3722,4.4016,4.4814,4.5067,4.5177,4.5177,4.5746,4.6448,4.7264,4.7333,4.7594,4.8246,4.8301,4.8301,4.8301,4.8301,4.8301,4.8301,4.8301,4.8301,4.8301,4.8301,4.8301,4.8301,4.8301,4.8301,4.8301,4.8301,4.8301,4.8301,4.8301,4.8301,4.8301,4.8301,4.8301,4.8301,4.8301,4.8301,4.8301,4.8301,4.8301,4.8301,0.0,1.6201,1.6279,1.6553,1.6603,1.6603,1.6603,1.7285,1.8651,2.0982,2.2078,2.3534,2.5902,2.6199,2.687,2.8444,2.9942,3.1515,3.3227,3.4677,3.5515,3.56,3.56,3.56,3.56,3.6468,3.7241,3.7899,3.8717,3.9457,4.0096,4.0096,4.0096,4.0096,4.0096,4.0096,4.0096,4.0096,3.966,3.8949,3.821,3.7455,3.6705,3.5904,3.56,3.56,3.56,3.5644,3.5761,3.6245,3.6759,3.7244,3.7546,3.7847,3.7838,3.655,3.6121,3.5718,3.4006,3.3945,3.4728,3.6322,3.679,3.7659,0.0,4.1026,4.0997,4.2745,4.3106,4.3157,4.3322,4.3378,4.363,4.4429,4.4576,4.4851,4.5645,4.6388,4.6837,4.6837,4.6911,4.7282,4.8095,4.8168,4.8205,4.8296,4.8301,4.8301,4.8301,4.8301,4.8301,4.8301,4.8301,4.8301,4.8301,4.8301,4.8301,4.8301,4.8301,4.8301,4.8301,4.8301,4.8301,4.8301,4.8301,4.8301,4.8301,4.8301,4.8301,4.8301,4.8301,4.8301,4.8301,4.8301,4.8301,4.8301,0.0,0.0,1.6279,1.6553,1.6603,1.6603,1.6603,1.7234,1.8357,2.0196,2.1043,2.2223,2.4218,2.4427,2.4989,2.638,2.8217,3.0111,3.2048,3.3913,3.516,3.5583,3.56,3.56,3.56,3.6389,3.6953,3.7257,3.8436,3.9163,3.9474,3.9903,4.0096,4.0096,4.0096,3.9852,3.9457,3.9457,3.9028,3.8294,3.7556,3.7071,3.6705,3.5904,3.5206,3.4757,3.5374,3.56,0.0,3.5854,3.6086,3.63,3.6509,3.6639,3.662,3.5992,3.6476,3.7363,3.8213,3.81,3.808,3.95,3.9868,4.0274,4.1736,4.1804,4.1924,4.3237,4.3506,4.3506,4.3506,4.3887,4.4301,4.4645,4.509,4.5677,4.6498,4.6897,4.7278,4.7746,4.7801,4.7929,4.8264,4.8301,4.8301,4.8301,4.8301,4.8301,4.8301,4.8301,4.8301,4.8301,4.8301,4.8301,4.8301,4.8301,4.8301,4.8301,4.8301,4.8301,4.8301,4.8301,4.8301,4.8301,4.8301,4.8301,4.8301,4.8301,4.8301,4.8301,4.8301,4.8301,4.8301,4.8301,4.8301,4.8301,0.0,0.0,0.0,1.6553,1.6603,1.6603,1.6603,1.7045,1.7841,1.9061,1.9795,2.0829,2.2436,2.2613,2.3166,2.4573,2.6568,2.8767,3.1139,3.3217,3.4739,3.556,3.56,3.56,3.56,3.6174,3.6581,3.679,3.7867,3.8504,3.8707,3.9237,3.9491,3.9491,3.9491,3.9203,3.8707,3.8707,3.8396,3.7832,3.7105,3.679,3.6676,3.5571,3.4684,3.4096,3.4875,3.5037,3.4874,3.5023,3.5138,3.5246,3.5425,3.5436,3.5443,3.5724,3.6791,3.8338,4.0361,4.0573,4.0496,4.1619,4.2126,4.2348,4.2348,4.2348,4.2565,4.3343,4.3506,4.3561,4.3795,4.4301,4.4847,4.5283,4.5856,4.6516,4.7319,4.7429,4.7649,4.8223,4.8301,4.8301,4.8301,4.8301,4.8301,4.8301,4.8301,4.8301,4.8301,4.8301,4.8301,4.8301,4.8526,4.8655,4.8655,4.887,4.8999,4.8999,4.8999,4.8999,4.8999,4.8999,4.8999,4.8999,4.8999,4.8999,4.8999,4.8999,4.8999,4.8999,4.8999,4.8999,4.8999,4.8999,4.8852,4.8655,0.0,0.0,0.0,0.0,1.6603,1.6603,1.6603,1.6622,1.6906,1.7664,1.8354,1.9293,2.0716,2.0878,2.1703,2.3751,2.5603,2.7973,3.1095,3.3001,3.4488,3.5554,3.56,3.56,3.56,3.5622,3.6022,3.679,3.684,3.7224,3.7927,3.7967,3.7967,3.7967,3.7967,3.795,3.7927,3.7927,3.7916,3.7832,3.7105,3.679,3.6608,3.4745,3.4024,3.4001,3.4046,3.3584,3.3054,3.3575,3.3977,3.4355,3.5009,3.503,3.514,3.6836,3.7689,3.8176,3.8591,3.9485,4.0555,4.1624,4.2687,4.3461,4.3461,4.3461,4.3465,4.3488,4.3506,4.374,4.4521,4.4681,4.5214,4.6764,4.7058,4.7337,4.815,4.826,4.8264,4.8301,4.8301,4.8301,4.8301,4.8301,4.8301,4.8301,4.8301,4.8301,4.8301,4.8301,4.8301,4.8301,4.9123,4.955,4.955,5.033,5.0724,5.0724,5.0724,5.0724,5.0724,5.0724,5.0724,5.0724,5.0724,5.0724,5.0724,5.0724,5.0724,5.0724,5.0724,5.0724,5.0724,5.0724,5.0238,4.955,0.0,0.0,0.0,0.0,0.0,1.6603,1.6603,1.6603,1.7017,1.8208,1.9368,0.0,0.0,0.0,0.0,0.0,2.4156,2.6189,2.8673,3.1207,3.3188,3.4488,3.5228,3.56,3.56,3.56,3.5723,3.6005,3.6547,3.6925,3.7173,3.7669,3.7899,3.7899,3.7899,3.7635,3.7167,3.7167,3.6857,3.6349,3.6101,3.5868,3.5592,3.4975,3.355,3.1955,0.0,3.2732,3.2635,3.3036,3.3245,3.3444,3.4017,3.3895,3.3875,3.5628,3.7235,3.8693,3.9924,4.0799,4.1619,4.2692,4.3225,4.3506,4.3506,4.3506,4.3506,4.3506,4.3747,4.4053,4.4322,4.5238,4.6136,4.6682,4.741,4.7984,4.826,4.8301,4.8301,4.8301,4.8301,4.8301,4.8301,4.8301,4.8301,4.8301,4.8301,4.8301,4.8301,4.8843,4.916,4.916,4.9963,5.0403,5.0403,5.0655,5.0797,5.0797,5.0797,5.0797,5.0797,5.0797,5.0797,5.0797,5.0797,5.0797,5.0797,5.0797,5.0797,5.0797,5.0797,5.0797,5.0797,5.0797,5.0972,5.1124,0.0,0.0,0.0,0.0,0.0,0.0,0.0,0.0,0.0,0.0,0.0,0.0,0.0,0.0,0.0,0.0,0.0,2.4836,2.7095,2.9455,3.1444,3.2962,3.3701,3.4186,3.4454,3.4197,3.4309,3.4805,3.548,3.593,3.6204,3.681,3.7082,3.7082,3.7082,3.6817,3.636,3.624,3.589,3.539,3.4985,3.4684,3.4402,3.3509,3.2021,0.0,3.0429,3.053,3.0805,3.1773,3.2165,3.2363,3.3153,3.3793,3.4503,3.5718,3.7414,3.9252,4.0938,4.1641,4.2153,4.3225,4.3506,4.3506,4.3506,4.3506,4.3506,4.3506,4.3643,4.3862,4.4158,4.5298,4.625,4.64,4.7617,4.8455,4.8154,4.8369,4.8495,4.8323,4.8301,4.8301,4.8301,4.8301,4.8301,4.8301,4.86,4.8765,4.8765,4.9559,5.0023,5.0023,5.0807,5.1224,5.1224,5.1513,5.1659,5.1659,5.1659,5.1659,5.1659,5.1659,5.1659,5.1659,5.1659,5.1659,5.1659,5.1659,5.1659,5.1659,5.1659,5.1659,5.1659,5.1659,5.1971,5.2307,0.0,0.0,0.0,0.0,0.0,0.0,0.0,0.0,0.0,0.0,0.0,0.0,0.0,0.0,0.0,0.0,0.0,0.0,2.6251,2.7773,2.9345,3.1035,3.1232,3.1621,3.2337,3.1703,3.2004,3.3348,3.373,3.4273,3.4976,3.5284,3.5436,3.5436,3.5436,3.5436,3.5414,3.5094,3.4937,3.4808,3.373,3.3265,3.2956,3.0598,2.964,2.9353,2.7778,2.7328,2.7833,2.9963,3.0925,3.1462,3.2736,3.4839,3.6873,3.7119,3.8303,3.986,4.1442,4.1927,4.2226,4.3244,4.3506,4.3506,4.3506,4.3506,4.3483,4.3434,4.3173,4.319,4.3902,4.4821,4.5601,4.5979,4.7698,4.8707,4.7933,4.8476,4.8797,4.835,4.8301,4.8301,4.8301,4.8301,4.8315,4.8356,4.9137,4.9624,4.9665,5.0422,5.0852,5.0852,5.1633,5.2055,5.2055,5.2816,5.3196,5.3196,5.3196,5.3196,5.3196,5.3196,5.3196,5.3196,5.3196,5.3196,5.3196,5.3196,5.3196,5.3196,5.3196,5.3196,5.3196,5.3196,5.3196,5.3086,0.0,0.0,0.0,0.0,0.0,0.0,0.0,0.0,0.0,0.0,0.0,0.0,0.0,0.0,0.0,0.0,0.0,0.0,2.3774,2.5911,2.7565,2.8502,3.0304,3.1391,3.1577,3.1922,3.2305,3.2654,3.2757,3.2896,3.3088,3.3185,3.3214,3.3214,3.3214,3.3214,3.3209,3.3128,3.2776,3.2237,3.195,3.1356,3.0576,2.9932,2.8885,2.7821,2.8338,2.8111,2.7865,2.9713,3.219,3.4725,3.5994,3.7365,3.8475,3.8388,3.973,4.1319,4.1546,4.2322,4.3167,4.3434,4.3506,4.3506,4.3506,4.3506,4.3266,4.2466,4.2516,4.2509,4.1862,4.3595,4.5165,4.5253,4.7086,4.8413,4.8203,4.8345,4.8424,4.8305,4.8301,4.8301,4.8301,4.8301,4.8563,4.9215,4.9477,4.9858,5.0453,5.1266,5.1688,5.1688,5.2467,5.2889,5.2889,5.3104,5.3196,5.3196,5.3196,5.3196,5.3196,5.3196,5.3196,5.3196,5.3196,5.3196,5.3196,5.3196,5.3196,5.3196,5.3196,5.3196,5.3196,5.3196,5.3196,5.3177,0.0,0.0,0.0,0.0,0.0,0.0,0.0,0.0,0.0,0.0,0.0,0.0,0.0,0.0,0.0,0.0,0.0,0.0,0.0,2.4294,2.5735,2.643,2.8071,2.913,2.9442,2.9852,3.0224,3.0509,3.0975,3.1217,3.1222,3.1396,3.1479,3.1479,3.1479,3.1479,3.1468,3.1295,3.0984,0.0,0.0,2.9548,2.892,2.8307,2.7466,2.6688,2.7235,2.8081,2.9295,3.1549,3.4183,3.6718,3.7796,3.8747,3.9511,3.9871,4.0804,4.181,4.2259,4.2924,4.3506,4.3506,4.3312,4.3091,4.2856,4.2591,4.2164,4.1325,4.1263,4.1174,4.0531,4.2647,4.4428,4.4278,4.6708,4.8484,4.8138,4.8379,4.8538,4.8319,4.8301,4.8301,4.8301,4.8346,4.8751,4.9573,4.9646,5.0138,5.1269,5.1777,5.2194,5.2522,5.2962,5.3196,5.3196,5.3196,5.3036,5.2725,5.2725,5.2725,5.2725,5.2725,5.2886,5.3196,5.3196,5.3196,5.3196,5.3196,5.3196,5.3196,5.3196,5.3196,5.3196,5.3196,5.3196,5.3196,0.0,0.0,0.0,0.0,0.0,0.0,0.0,0.0,0.0,0.0,0.0,0.0,0.0,0.0,0.0,0.0,0.0,0.0,0.0,0.0,2.3954,2.4695,2.5455,2.6214,2.6935,2.7046,2.7378,2.7973,2.8905,2.9353,2.9359,2.9718,2.9878,2.9878,2.9878,2.9878,2.9857,2.9502,2.9305,2.9139,2.8191,2.7768,2.7552,0.0,2.5871,2.5865,2.5778,2.7895,3.1168,3.4137,3.6355,3.8025,3.8968,3.978,4.0549,4.15,4.1773,4.2023,4.3191,4.3506,4.3506,4.3506,4.3105,4.257,4.2014,4.1423,4.0809,4.0122,3.9808,3.9602,3.9451,4.1595,4.3348,4.3245,4.6275,4.8452,4.7945,4.84,4.866,4.835,4.8143,4.8085,4.8176,4.8302,4.8704,4.9518,4.9581,5.0288,5.1927,5.207,5.2387,5.3031,5.3047,5.3009,5.2915,5.2915,5.26,5.1964,5.1964,5.1964,5.1964,5.1964,5.2318,5.2921,5.3015,5.3047,5.3071,5.3164,5.3196,5.3196,5.3196,5.3196,5.3196,5.3196,5.3196,5.3196,0.0,0.0,0.0,0.0,0.0,0.0,0.0,0.0,0.0,0.0,0.0,0.0,0.0,0.0,0.0,0.0,0.0,0.0,0.0,0.0,0.0,2.323,2.4495,2.5486,2.6177,2.6793,2.7157,2.7267,2.7464,2.7549,2.7549,2.7619,2.7657,2.7657,2.7657,2.7657,2.7652,2.7576,2.72,2.663,2.6446,2.6035,2.5512,2.5275,0.0,0.0,2.7049,2.8955,3.1239,3.473,3.7407,3.9543,4.1182,4.223,4.2919,4.3091,4.3141,4.3195,4.3434,4.3506,4.3506,4.3506,4.3105,4.257,4.2014,4.1423,4.0602,3.9176,3.8834,3.8536,3.765,3.9497,4.1525,4.2619,4.5021,4.7104,4.8074,4.7899,4.7837,4.8243,4.7372,4.6955,4.7491,4.7677,4.8092,4.8892,4.8955,4.9875,5.1971,5.2093,5.2159,5.2282,5.2282,5.2024,5.1474,5.1462,5.1405,5.1273,5.1273,5.1273,5.1273,5.1273,5.1336,5.1499,5.2047,5.2282,5.2347,5.2948,5.3196,5.3196,5.3196,5.3196,5.3196,5.3196,5.3196,5.3196,0.0,0.0,0.0,0.0,0.0,0.0,0.0,0.0,0.0,0.0,0.0,0.0,0.0,0.0,0.0,0.0,0.0,0.0,0.0,0.0,0.0,2.2367,2.3695,2.4586,2.4893,2.5972,2.6356,2.6008,0.0,2.634,2.6008,2.6008,2.6008,2.6008,2.6008,2.6008,2.6008,2.6008,2.5798,2.5486,2.5486,2.5286,2.4995,2.4995,0.0,0.0,2.74,2.8968,3.0604,3.3663,3.6358,3.8855,4.1481,4.265,4.3146,4.3418,4.3294,4.3133,4.3423,4.3506,4.3506,4.3506,4.3105,4.2297,4.0795,4.031,3.96,3.7567,3.7482,3.7586,3.6953,3.8677,4.0501,4.1456,4.401,4.6261,4.7317,4.7425,4.7619,4.822,4.7176,4.6658,4.7336,4.754,4.7803,4.8196,4.8645,4.9851,5.1988,5.2107,5.194,5.1587,5.1575,5.1425,5.1099,5.1099,5.0909,5.052,5.052,5.052,5.052,5.052,5.0736,5.1131,5.1814,5.2107,5.2154,5.2904,5.3196,5.3196,5.3196,5.3196,5.3196,5.3196,5.3196,5.3196,0.0,0.0,0.0,0.0,0.0,0.0,0.0,0.0,0.0,0.0,0.0,0.0,0.0,0.0,0.0,0.0,0.0,0.0,0.0,0.0,0.0,0.0,2.2902,2.3609,2.3888,0.0,0.0,2.4911,2.5504,0.0,0.0,0.0,0.0,0.0,2.4995,2.4995,2.4995,2.4995,2.4995,0.0,0.0,2.4995,2.4995,0.0,0.0,0.0,0.0,2.8546,2.9796,3.2254,3.4731,3.7276,4.0142,4.1669,4.2526,4.3008,4.2937,4.2798,4.3214,4.341,4.3462,4.3361,4.3009,4.2056,3.9594,3.9067,3.8445,3.6207,3.6245,3.6693,3.6746,3.8199,3.9646,4.0461,4.291,4.5156,4.6421,4.674,4.721,4.8182,4.6955,4.6312,4.7117,4.7385,4.751,4.751,4.8565,4.9929,5.1551,5.179,5.1575,5.0883,5.0863,5.0796,5.066,5.066,5.0359,4.9795,4.9795,4.9795,4.9795,4.9795,5.0104,5.0707,5.1525,5.1886,5.1946,5.2837,5.3196,5.3196,5.3196,5.3196,5.3196,5.3196,5.3196,5.3196,0.0,0.0,0.0,0.0,0.0,0.0,0.0,0.0,0.0,0.0,0.0,0.0,0.0,0.0,0.0,0.0,0.0,0.0,0.0,0.0,0.0,0.0,0.0,0.0,0.0,0.0,0.0,2.464,2.4944,0.0,0.0,0.0,0.0,0.0,0.0,2.4995,2.4995,2.4995,0.0,0.0,0.0,0.0,0.0,0.0,0.0,0.0,0.0,2.7857,2.9194,3.1319,3.3405,3.5328,3.6562,3.9045,4.1589,4.1941,4.2363,4.2721,4.2764,4.3137,4.3383,4.2897,4.2745,4.2027,3.9429,3.8414,3.7563,3.5864,3.56,3.591,3.6803,3.7526,3.8557,4.0315,4.1478,4.312,4.5934,4.5586,4.5854,4.8046,4.6203,4.5225,4.6377,4.673,4.6871,4.6871,4.8757,4.999,5.0185,5.083,5.0863,5.0115,5.0093,4.9799,4.9197,4.919,4.9168,4.9092,4.9092,4.9092,4.9092,4.9092,4.913,4.9273,5.0612,5.1189,5.1292,5.2634,5.3196,5.3196,5.3196,5.3196,5.3196,5.3196,5.3196,5.3196,0.0,0.0,0.0,0.0,0.0,0.0,0.0,0.0,0.0,0.0,0.0,0.0,0.0,0.0,0.0,0.0,0.0,0.0,0.0,0.0,0.0,0.0,0.0,0.0,0.0,0.0,2.4202,2.4846,2.4946,0.0,0.0,0.0,0.0,0.0,0.0,2.4995,2.4995,2.4995,0.0,0.0,0.0,0.0,0.0,0.0,0.0,0.0,0.0,0.0,2.8268,3.0303,3.193,3.326,3.4185,3.6041,3.8343,4.0523,4.1405,4.1908,4.2914,4.311,4.2963,4.2741,4.2179,4.0963,3.8216,3.7533,3.6807,3.4427,3.4764,3.5551,3.5717,3.6502,3.7448,3.8342,3.9468,4.0815,4.2464,4.3389,4.4378,4.5684,4.5104,4.494,4.5776,4.6422,4.7165,4.8054,4.8925,4.9404,4.9404,5.0054,5.0125,4.9427,4.9404,4.9264,4.9001,4.8994,4.8994,4.8994,4.8994,4.8994,4.8994,4.8994,4.8994,4.9077,5.049,5.1099,5.1202,5.2624,5.3196,5.3196,5.3196,5.3196,5.3196,5.3196,5.3196,5.3269,0.0,0.0,0.0,0.0,0.0,0.0,0.0,0.0,0.0,0.0,0.0,0.0,0.0,0.0,0.0,0.0,0.0,0.0,0.0,0.0,0.0,0.0,0.0,0.0,0.0,0.0,2.4016,2.4881,2.4961,2.4961,0.0,0.0,2.4995,2.4995,0.0,0.0,0.0,0.0,0.0,0.0,0.0,0.0,0.0,0.0,0.0,0.0,0.0,0.0,0.0,0.0,0.0,3.1622,3.2265,3.3574,3.5521,3.8807,4.0191,4.0976,4.2382,4.2726,4.2668,4.248,4.1704,4.0256,3.7434,3.6781,3.6015,3.3433,3.4063,3.5075,3.5008,3.5923,3.6783,3.7055,3.7996,3.9121,4.0342,4.1632,4.2896,4.4053,4.4237,4.4494,4.5107,4.616,4.7317,4.8588,4.8875,4.8994,4.8994,4.9457,4.9492,4.9009,4.8994,4.8994,4.8994,4.8994,4.8994,4.8994,4.8994,4.8994,4.8994,4.8994,4.8994,4.9077,5.049,5.1099,5.1202,5.2624,5.3343,5.3544,5.3544,5.3697,5.3917,5.3917,5.3917,5.399,0.0,0.0,0.0,0.0,0.0,0.0,0.0,0.0,0.0,0.0,0.0,0.0,0.0,0.0,0.0,0.0,0.0,0.0,0.0,0.0,0.0,0.0,0.0,0.0,0.0,0.0,0.0,2.4604,2.4876,2.4866,2.4609,2.4876,2.4995,2.4995,0.0,0.0,0.0,0.0,0.0,0.0,0.0,0.0,2.4995,0.0,0.0,0.0,0.0,0.0,0.0,0.0,0.0,0.0,0.0,3.1881,3.3799,3.669,3.8659,4.0063,4.0818,4.1845,4.2567,4.1958,4.1403,4.0256,3.7434,3.624,3.5182,3.3295,3.3553,3.4333,3.5069,3.6021,3.679,3.7067,3.7326,3.8338,4.0654,4.0725,4.1442,4.3901,4.3724,4.367,4.4349,4.5859,4.7107,4.7853,4.858,4.8994,4.8994,4.9001,4.9009,4.8994,4.8994,4.8994,4.8994,4.8994,4.8994,4.8994,4.8994,4.8994,4.8994,4.8994,4.8994,4.9077,5.049,5.1099,5.1202,5.2624,5.3673,5.4399,5.4399,5.4864,5.5585,5.5585,5.5585,5.5585,0.0,0.0,0.0,0.0,0.0,0.0,0.0,0.0,0.0,0.0,0.0,0.0,0.0,0.0,0.0,0.0,0.0,0.0,0.0,0.0,0.0,0.0,0.0,0.0,0.0,0.0,0.0,2.4118,2.4709,2.4961,2.4876,2.4961,2.4995,2.4995,2.4995,2.4995,0.0,0.0,0.0,0.0,0.0,2.4995,2.4995,0.0,0.0,0.0,0.0,0.0,0.0,0.0,0.0,0.0,0.0,0.0,0.0,3.4232,3.6427,3.8344,3.8775,3.9141,3.9297,3.8732,3.7702,3.6488,3.5186,3.4312,3.3471,3.2375,3.2758,3.3517,3.4249,3.4986,3.5999,3.7598,3.7808,3.8216,3.9464,4.0846,4.1831,4.2112,4.3387,4.4498,4.522,4.6203,4.7114,4.7836,4.8588,4.8994,4.8994,4.8994,4.8994,4.8994,4.8994,4.8994,4.8994,4.8994,4.8994,4.8994,4.8994,4.8994,4.8994,4.8994,4.8994,4.9077,5.049,5.1406,5.2031,5.3436,5.4491,5.5218,5.5218,5.5383,5.5603,5.5603,5.5603,5.5677,0.0,0.0,0.0,0.0,0.0,0.0,0.0,0.0,0.0,0.0,0.0,0.0,0.0,0.0,0.0,0.0,0.0,0.0,0.0,0.0,0.0,0.0,0.0,0.0,0.0,0.0,0.0,2.3904,2.4633,2.5138,2.5376,2.566,2.5645,2.5381,2.5381,2.5243,0.0,0.0,0.0,0.0,2.4896,2.4832,2.4627,0.0,0.0,0.0,0.0,0.0,0.0,0.0,0.0,0.0,0.0,0.0,0.0,0.0,3.4275,3.5829,3.6974,3.7393,3.7394,3.7072,3.5935,3.474,3.4142,3.3426,3.2692,3.196,3.2386,3.3116,3.38,3.4456,3.5445,3.7103,3.7426,3.7844,3.8859,4.0422,4.1606,4.1992,4.3284,4.4458,4.522,4.6201,4.6996,4.7455,4.8419,4.8994,4.8994,4.8994,4.8994,4.8994,4.8994,4.8994,4.8994,4.8994,4.8994,4.8994,4.8994,4.8994,4.8994,4.8994,4.8994,4.9054,5.0195,5.129,0.0,5.3524,5.4799,5.6057,5.6057,5.624,5.6521,5.6521,5.6521,5.6571,0.0,0.0,0.0,0.0,0.0,0.0,0.0,0.0,0.0,0.0,0.0,0.0,0.0,0.0,0.0,0.0,0.0,0.0,0.0,0.0,0.0,0.0,0.0,0.0,0.0,2.1925,2.258,2.383,2.4664,2.5392,2.6024,2.6746,2.672,2.6003,2.6003,2.5624,0.0,0.0,0.0,0.0,2.4717,2.4585,0.0,0.0,0.0,0.0,0.0,0.0,0.0,0.0,0.0,0.0,0.0,0.0,0.0,0.0,0.0,0.0,0.0,3.6228,3.6504,3.6489,3.5546,3.4502,3.3965,3.331,0.0,3.1961,3.2344,3.3045,3.3798,3.4406,3.511,3.6099,3.6707,3.7534,3.8966,3.9846,4.1143,4.3304,4.3524,4.3802,4.4601,4.5971,4.6793,4.6793,4.8173,4.8994,4.8994,4.8994,4.8994,4.8994,4.8994,4.8994,4.8994,4.8994,4.8994,4.8994,4.8994,4.8994,4.8994,4.8994,4.8994,4.904,4.9707,5.0886,5.2356,5.3027,5.4682,5.6803,5.6803,5.729,5.8002,5.8002,5.8002,5.8002,0.0,0.0,0.0,0.0,0.0,0.0,0.0,0.0,0.0,0.0,0.0,0.0,0.0,0.0,0.0,0.0,0.0,0.0,0.0,0.0,0.0,0.0,0.0,0.0,0.0,2.2119,2.2814,2.3142,2.4907,2.5851,2.6024,2.6746,2.672,2.6003,2.6003,0.0,0.0,0.0,0.0,0.0,2.4927,2.49,0.0,0.0,0.0,0.0,2.6198,2.7373,0.0,0.0,0.0,0.0,0.0,0.0,0.0,0.0,3.0733,3.1276,3.2044,0.0,3.3728,3.3301,3.262,3.2102,0.0,3.2175,3.2053,0.0,0.0,3.2734,3.4935,3.4477,3.4863,3.8288,3.9114,3.9635,4.0555,4.1806,4.3261,4.4969,4.4654,4.4611,4.5365,4.6268,4.6793,4.6793,4.8173,4.8994,4.8994,4.8994,4.8994,4.8994,4.8994,4.8994,4.8994,4.8994,4.8994,4.8994,4.8994,4.8994,4.8994,4.8994,4.8994,4.904,4.9707,5.0903,5.2429,5.3094,5.4758,5.6881,5.6881,5.7346,5.8002,5.8002,5.8002,5.8002,0.0,0.0,0.0,0.0,0.0,0.0,0.0,0.0,0.0,0.0,0.0,0.0,0.0,0.0,0.0,0.0,0.0,0.0,0.0,0.0,0.0,0.0,0.0,0.0,0.0,2.1882,2.2593,2.2898,2.4675,2.5871,2.6525,2.7225,2.7178,2.6477,2.5829,0.0,0.0,0.0,0.0,2.4512,2.4864,0.0,0.0,0.0,0.0,0.0,2.6362,2.7387,0.0,2.8768,2.9721,3.0804,0.0,0.0,0.0,0.0,3.0097,3.0507,3.0898,3.193,3.2824,3.2543,3.2087,3.1792,3.2104,3.1971,3.1809,0.0,0.0,3.2428,3.4495,3.4615,3.5315,3.806,3.9685,4.0988,4.2053,4.3507,4.4647,4.5135,4.5135,4.5135,4.5186,4.6167,4.6793,4.6793,4.8173,4.8994,4.8994,4.8994,4.8994,4.8994,4.8994,4.8994,4.8994,4.8994,4.8994,4.8994,4.8994,4.8994,4.8994,4.8994,4.8994,4.9017,4.9382,5.0437,5.1927,5.2288,5.3786,5.5842,5.5842,5.6497,5.744,5.744,5.7685,5.8002,0.0,0.0,0.0,0.0,0.0,0.0,0.0,0.0,0.0,0.0,0.0,0.0,0.0,0.0,0.0,0.0,0.0,0.0,0.0,0.0,0.0,0.0,0.0,0.0,2.0976,2.1683,2.2383,2.3052,2.4579,2.5929,2.7125,2.7889,2.7841,2.7046,2.5745,0.0,0.0,0.0,2.4633,2.4119,2.4748,0.0,0.0,0.0,0.0,0.0,0.0,0.0,0.0,2.8772,2.9501,3.0186,3.0357,0.0,0.0,0.0,0.0,0.0,3.0822,3.2166,3.3272,3.2836,3.2513,3.2327,3.2415,3.2091,0.0,0.0,0.0,3.2412,3.4047,3.5137,3.6214,3.7564,3.9803,4.1891,4.3372,4.4715,4.5331,4.4838,4.522,4.5331,4.4821,4.5904,4.6675,4.6793,4.8054,4.8875,4.8994,4.8994,4.8994,4.8994,4.8994,4.8994,4.8994,4.8994,4.8994,4.8994,4.8994,4.8994,4.8994,4.8994,4.8994,4.8994,4.8994,4.9803,5.1119,5.1119,5.2361,5.4263,5.4381,5.5263,5.6477,5.6581,5.706,5.7654,0.0,0.0,0.0,0.0,0.0,0.0,0.0,0.0,0.0,0.0,0.0,0.0,0.0,0.0,0.0,0.0,0.0,0.0,0.0,0.0,0.0,0.0,0.0,2.1083,2.1715,2.2403,2.3074,2.3755,2.5782,2.6893,2.7125,2.8378,2.8289,2.7062,2.6214,2.5461,0.0,2.4948,2.4927,2.4848,2.4948,0.0,0.0,0.0,0.0,0.0,0.0,0.0,0.0,2.7642,2.8785,3.0094,2.8649,0.0,0.0,0.0,0.0,0.0,3.0793,3.3217,3.4946,3.2564,3.2137,3.2191,3.1767,3.1612,3.1593,0.0,3.2135,3.3379,3.631,3.6723,3.7566,4.043,4.1599,4.2672,4.4195,4.4625,4.4956,4.5466,4.5084,4.4966,4.5483,4.5737,4.6126,4.6742,4.759,4.8343,4.8968,4.8994,4.8994,4.8994,4.8994,4.8994,4.8994,4.8994,4.8994,4.8994,4.8994,4.8994,4.8994,4.8994,4.8994,4.8994,4.8994,4.9485,5.0278,5.0278,5.1262,5.2791,5.335,5.4144,5.5015,5.5566,5.586,5.6081,0.0,0.0,0.0,0.0,0.0,0.0,0.0,0.0,0.0,0.0,0.0,0.0,0.0,0.0,0.0,0.0,0.0,0.0,0.0,0.0,0.0,0.0,2.1383,2.1557,2.1893,2.3293,2.4195,2.4481,2.624,2.7288,2.7657,2.7894,2.7483,2.6462,2.5777,2.507,2.4433,2.4832,2.4995,2.4995,0.0,0.0,0.0,0.0,0.0,0.0,0.0,0.0,0.0,0.0,2.8643,2.9496,2.8617,0.0,0.0,0.0,0.0,0.0,3.0282,3.2292,3.419,3.3622,3.4562,3.5582,3.5338,3.504,3.4748,3.4595,3.4724,3.5486,3.747,3.8238,3.96,4.2713,4.3044,4.3284,4.4438,4.4939,4.5169,4.5118,4.5169,4.5169,4.5118,4.5466,4.6007,4.6742,4.7472,4.8225,4.896,4.8994,4.8994,4.8994,4.8994,4.8994,4.8994,4.8994,4.8994,4.8994,4.8994,4.8994,4.8994,4.8994,4.8994,4.8994,4.8994,4.9187,4.9509,4.9509,5.0144,5.1166,5.1873,5.2864,5.405,5.5171,5.5603,5.5658,0.0,0.0,0.0,0.0,0.0,0.0,0.0,0.0,0.0,0.0,0.0,0.0,0.0,0.0,0.0,0.0,0.0,0.0,0.0,0.0,2.113,2.1873,2.2047,2.2293,2.2625,2.4184,2.5154,2.5497,2.6725,2.7683,2.8316,2.7652,2.6951,2.623,2.5545,2.4833,2.4187,2.4764,2.4995,2.4995,0.0,0.0,0.0,0.0,0.0,0.0,0.0,0.0,0.0,0.0,0.0,0.0,0.0,0.0,0.0,2.8405,2.9187,3.0376,3.0405,3.1864,3.3666,3.4865,3.6104,3.7264,3.8108,3.7529,3.6864,3.7034,3.7166,3.7567,3.8637,4.0092,4.1908,4.4218,4.4086,4.391,4.4499,4.5084,4.5237,4.4675,4.5101,4.522,4.4642,4.5118,4.5754,4.6488,4.7235,4.7954,4.8706,4.8909,4.8994,4.8994,4.8994,4.8994,4.8994,4.8994,4.8994,4.8994,4.8994,4.8994,4.8994,4.8994,4.8994,4.8994,4.8994,4.8994,4.8994,4.8994,4.9309,4.9835,5.0554,5.1737,5.3182,5.4544,5.5163,5.5322,0.0,0.0,0.0,0.0,0.0,0.0,0.0,0.0,0.0,0.0,0.0,0.0,0.0,0.0,0.0,0.0,0.0,0.0,0.0,0.0,2.113,2.1873,2.2498,2.3436,2.4742,2.4911,2.565,2.6957,2.7668,2.8373,2.9019,2.8342,2.7668,2.6983,2.6256,2.5555,2.4911,2.498,2.4995,2.4995,2.4995,0.0,0.0,0.0,0.0,0.0,0.0,0.0,0.0,0.0,0.0,0.0,0.0,0.0,2.9801,2.9889,3.0484,3.1286,3.2007,3.3455,3.4937,3.5737,3.4318,3.3608,3.6905,3.6046,0.0,3.7126,3.8098,3.9006,4.0441,4.265,4.4354,4.4557,4.4557,4.4533,4.4591,4.4642,4.4658,4.4608,4.4642,4.4658,4.4608,4.4642,4.499,4.5713,4.6464,4.7192,4.7938,4.8638,4.8994,4.8994,4.8994,4.8994,4.8994,4.8994,4.8994,4.8994,4.8994,4.8994,4.8994,4.8994,4.8994,4.8994,4.8994,4.8994,4.8994,4.8994,4.9032,4.9129,4.9814,5.094,5.2273,5.3078,5.3843,5.4491,0.0,0.0,0.0,0.0,0.0,0.0,0.0,0.0,0.0,0.0,0.0,0.0,0.0,0.0,0.0,0.0,0.0,0.0,0.0,0.0,2.113,2.1873,2.2546,2.3336,2.4302,2.5619,2.6772,2.7715,2.7979,2.8226,2.8452,2.732,2.6656,2.6383,2.5687,2.5243,2.4995,2.4995,2.483,2.4564,2.4564,2.4446,0.0,0.0,0.0,0.0,0.0,0.0,0.0,0.0,2.8083,2.8737,2.8548,2.9312,3.0153,2.9395,3.0131,3.1205,3.1263,3.3055,3.5075,3.5817,3.5452,0.0,0.0,3.8643,3.8736,3.9695,4.0384,4.1154,4.2253,4.363,4.4608,4.4608,4.4608,4.4608,4.4608,4.4608,4.4608,4.4608,4.4608,4.4608,4.4608,4.4608,4.4905,4.5645,4.5957,4.6643,4.7836,4.8157,4.8537,4.8984,4.8994,4.8994,4.8994,4.8994,4.8994,4.8994,4.8994,4.8994,4.8994,4.8994,4.8994,4.8994,4.8994,4.8994,4.8994,4.8994,4.8994,4.9061,4.9744,5.0858,5.2136,5.2404,5.3003,5.366,0.0,0.0,0.0,0.0,0.0,0.0,0.0,0.0,0.0,0.0,0.0,0.0,0.0,0.0,0.0,0.0,0.0,0.0,0.0,0.0,2.1114,2.1849,2.2395,2.3177,2.4223,2.5753,2.6831,2.7436,2.7668,2.7778,2.7768,2.6562,2.6114,2.6309,2.5397,2.5122,2.5302,2.509,2.4808,2.4524,2.4524,2.4377,0.0,0.0,0.0,0.0,0.0,0.0,0.0,0.0,2.7832,2.845,2.8576,2.9356,3.0184,2.9892,3.1022,3.2283,3.1883,3.3258,3.5042,3.6015,3.6125,3.6575,3.8817,3.9799,4.0509,4.1286,4.1981,4.2724,4.3603,4.4228,4.4608,4.4608,4.4608,4.4608,4.4608,4.4608,4.4608,4.4608,4.4608,4.4608,4.4608,4.4608,4.4811,4.5321,4.5561,4.6136,4.716,4.765,4.814,4.8638,4.8875,4.8994,4.8994,4.8994,4.8994,4.8994,4.8994,4.8994,4.8994,4.8994,4.8994,4.8994,4.8994,4.8994,4.8994,4.8994,4.8994,4.9084,4.9983,5.0949,5.1844,5.2271,5.2764,5.3196,0.0,0.0,0.0,0.0,0.0,0.0,0.0,0.0,0.0,0.0,0.0,0.0,0.0,0.0,0.0,0.0,0.0,0.0,0.0,2.0798,2.1094,2.1768,2.2045,2.3062,2.4926,2.5168,2.553,2.6003,2.6735,2.7093,2.7078,2.6335,2.6383,2.7014,2.5634,2.5376,2.594,2.5286,2.4995,2.4995,2.5,2.5151,2.5338,0.0,0.0,0.0,0.0,0.0,0.0,0.0,2.7691,2.7647,3.0181,3.0296,2.989,3.1825,3.3569,3.4786,3.4375,3.4458,3.4985,3.6426,3.5878,3.5619,3.8132,3.8711,3.9298,4.1387,4.2538,4.347,4.4428,4.4608,4.4608,4.4608,4.4608,4.4608,4.4608,4.4608,4.4608,4.4608,4.4608,4.4608,4.4608,4.4608,4.4608,4.4608,4.5287,4.5696,4.5696,4.7092,4.7887,4.7896,4.8605,4.8994,4.8994,4.8994,4.8994,4.8994,4.8994,4.8994,4.8994,4.8994,4.8994,4.8994,4.8994,4.8994,4.8994,4.8994,4.8994,4.9146,5.0538,5.1086,5.1278,5.2669,5.3185,5.3196,0.0,0.0,0.0,0.0,0.0,0.0,0.0,0.0,0.0,0.0,0.0,0.0,0.0,0.0,0.0,0.0,0.0,0.0,0.0,2.0897,2.1037,2.1568,2.185,2.2327,2.3023,2.3406,2.4653,2.6762,2.6462,2.6335,2.6319,2.6098,2.5871,2.5634,0.0,2.5545,2.5286,2.5085,2.4813,2.4544,2.5016,2.4915,2.456,0.0,0.0,0.0,0.0,0.0,0.0,0.0,0.0,0.0,2.8673,2.9506,3.0261,3.0945,3.1892,3.266,3.2406,3.4472,3.6515,3.5671,3.7626,3.9755,3.9745,3.9432,3.97,4.1736,4.2366,4.2973,4.4355,4.4608,4.4608,4.4608,4.4608,4.4608,4.4608,4.4608,4.4608,4.4608,4.4608,4.4608,4.4608,4.4608,4.4608,4.4608,4.4804,4.5152,4.5662,4.6111,4.6822,4.787,4.8107,4.8486,4.8994,4.8994,4.8994,4.8994,4.8994,4.8994,4.8994,4.8994,4.8994,4.8994,4.8994,4.8994,4.8994,4.8994,4.8994,4.9048,4.9464,5.023,5.1151,5.1562,5.2342,5.3196,0.0,0.0,0.0,0.0,0.0,0.0,0.0,0.0,0.0,0.0,0.0,0.0,0.0,0.0,0.0,0.0,0.0,0.0,0.0,0.0,2.1253,2.1387,2.1617,2.1889,2.2188,2.2924,2.4007,2.5429,2.5245,2.5166,2.5182,2.5735,2.5935,2.585,0.0,2.6214,2.5824,2.5518,2.5228,2.5014,2.5414,2.5367,2.5143,0.0,0.0,0.0,0.0,0.0,0.0,0.0,0.0,0.0,2.7943,2.8741,2.9751,3.1115,3.2012,3.2838,3.4138,3.586,3.7344,3.7577,3.912,4.0542,4.0486,4.0205,4.0388,4.1972,4.2293,4.2767,4.432,4.4608,4.4608,4.4608,4.4608,4.4608,4.4608,4.4608,4.4608,4.4608,4.4608,4.4608,4.4608,4.4608,4.4608,4.4608,4.4608,4.4787,4.5237,4.5551,4.6119,4.7008,4.7592,4.8107,4.8571,4.8841,4.8994,4.8994,4.8994,4.8994,4.8994,4.8994,4.8994,4.8994,4.8994,4.8994,4.8994,4.8994,4.8994,4.9032,4.9294,4.9914,5.073,5.1292,5.2024,5.2797,0.0,0.0,0.0,0.0,0.0,0.0,0.0,0.0,0.0,0.0,1.824,0.0,0.0,0.0,0.0,0.0,0.0,0.0,0.0,0.0,2.1568,2.1234,2.1508,2.185,2.2243,2.3279,2.3507,2.2898,2.3566,2.3904,0.0,0.0,2.6414,2.6999,0.0,2.7062,2.6951,2.6214,2.5914,2.5914,2.5977,2.6155,2.6427,2.6704,0.0,0.0,0.0,0.0,0.0,0.0,0.0,0.0,2.7777,2.8066,2.8673,3.1773,3.3138,3.4371,3.7627,3.7795,3.7767,4.0706,4.0158,3.9238,4.0527,4.0926,4.125,4.2127,4.2344,4.2851,4.4337,4.4608,4.4608,4.4608,4.4608,4.4608,4.4608,4.4608,4.4608,4.4608,4.4608,4.4608,4.4608,4.4608,4.4608,4.4608,4.4608,4.4608,4.4608,4.5237,4.5628,4.5696,4.7008,4.7735,4.7802,4.8537,4.8892,4.8892,4.8968,4.8994,4.8994,4.8994,4.8994,4.8994,4.8994,4.8994,4.8994,4.8994,4.8994,4.9071,4.9664,4.994,5.0164,5.1501,5.2053,5.2213,0.0,0.0,0.0,0.0,0.0,0.0,0.0,0.0,0.0,0.0,0.0,0.0,0.0,0.0,0.0,0.0,0.0,0.0,0.0,0.0,2.1143,2.1412,2.2373,2.2868,2.2746,2.2984,2.3047,2.2898,2.3566,2.3904,0.0,0.0,0.0,2.6256,0.0,2.6778,2.6193,2.5502,2.5212,2.5254,2.5792,2.5859,2.5672,2.6055,2.6117,0.0,0.0,0.0,0.0,0.0,0.0,0.0,2.7614,2.7851,2.8268,3.0327,3.2066,3.353,3.4558,3.6868,3.8961,3.8774,3.9583,4.04,4.03,4.1093,4.1928,4.2245,4.276,4.3463,4.4415,4.4608,4.4608,4.4608,4.4608,4.4608,4.4608,4.4608,4.4608,4.4608,4.4608,4.4608,4.4608,4.4608,4.4608,4.4608,4.4608,4.4608,4.4608,4.4753,4.5101,4.5679,4.6017,4.644,4.7022,4.7776,4.814,4.814,4.8723,4.8994,4.8994,4.8994,4.8994,4.8994,4.8994,4.8994,4.8994,4.8994,4.8994,4.9009,4.9152,4.9543,5.01,5.0995,5.1643,5.2213,0.0,0.0,0.0,0.0,0.0,0.0,0.0,0.0,0.0,0.0,0.0,0.0,0.0,0.0,0.0,0.0,0.0,0.0,0.0,0.0,0.0,0.0,2.2174,2.2408,2.1902,2.2205,2.2395,2.2419,2.309,0.0,0.0,0.0,0.0,2.6035,0.0,2.6683,2.5977,2.5624,2.5486,2.5513,2.5866,2.6049,2.614,2.6352,2.6362,2.6282,2.6282,0.0,0.0,0.0,0.0,0.0,0.0,0.0,2.7857,3.0115,3.1098,3.2119,3.5233,3.6934,3.8062,3.9078,3.9921,4.0515,4.0491,4.1364,4.2217,4.2281,4.2895,4.365,4.4448,4.4608,4.4608,4.4608,4.4608,4.4608,4.4608,4.4608,4.4608,4.4608,4.4608,4.4608,4.4608,4.4608,4.4608,4.4608,4.4608,4.4608,4.4608,4.4608,4.4777,4.5169,4.5517,4.5882,4.6261,4.6998,4.7549,4.7896,4.8293,4.8655,4.8994,4.8994,4.8994,4.8994,4.8994,4.8994,4.8994,4.8994,4.8994,4.8994,4.8994,4.9412,5.0086,5.083,5.1519,5.2213,0.0,0.0,0.0,0.0,0.0,0.0,0.0,0.0,0.0,0.0,0.0,0.0,0.0,0.0,0.0,0.0,0.0,0.0,0.0,0.0,0.0,0.0,2.1679,2.1668,2.1162,2.1587,2.1962,2.2252,0.0,0.0,0.0,0.0,0.0,2.6035,0.0,2.6683,2.6003,2.6003,2.5924,2.5824,2.5824,2.6151,2.6642,2.6642,2.6605,2.6564,2.6611,2.6628,2.6636,2.6678,0.0,0.0,0.0,0.0,2.7598,2.993,3.0292,3.1035,3.6044,3.6737,3.6801,3.9973,4.0441,4.0217,4.0661,4.1549,4.2293,4.2293,4.2997,4.3802,4.4489,4.4608,4.4608,4.4608,4.4608,4.4608,4.4608,4.4608,4.4608,4.4608,4.4608,4.4608,4.4608,4.4608,4.4608,4.4608,4.4608,4.4608,4.4608,4.4608,4.4608,4.4608,4.5186,4.5517,4.5517,4.6244,4.6921,4.7524,4.7778,4.8293,4.8994,4.8994,4.8994,4.8994,4.8994,4.8994,4.8994,4.8994,4.8994,4.8994,4.8994,4.9412,5.0086,5.083,5.1519,5.2213,0.0,0.0,0.0,0.0,0.0,0.0,0.0,0.0,0.0,0.0,0.0,0.0,0.0,0.0,0.0,0.0,0.0,0.0,0.0,0.0,0.0,0.0,2.181,2.2061,2.2613,2.2146,2.2465,0.0,0.0,0.0,0.0,0.0,0.0,2.6035,0.0,0.0,2.6003,2.6003,2.5666,2.5133,2.5133,2.5319,2.5604,2.5604,2.5766,2.604,2.6273,2.6357,2.64,2.6615,2.7127,0.0,0.0,0.0,2.7765,2.8137,2.987,3.1735,3.2093,3.4388,3.7254,3.9621,4.0159,4.0115,4.0185,4.1298,4.2293,4.2293,4.3433,4.4465,4.4574,4.4608,4.4608,4.4608,4.4608,4.4608,4.4608,4.4608,4.4608,4.4608,4.4608,4.4608,4.4608,4.4608,4.4608,4.4608,4.4608,4.4608,4.4608,4.4608,4.4608,4.4608,4.4692,4.4743,4.4743,4.5483,4.5899,4.6017,4.7295,4.8293,4.8994,4.8994,4.8994,4.8994,4.8994,4.8994,4.8994,4.8994,4.8994,4.8994,4.8994,4.9412,5.0086,5.083,5.1519,5.2213,0.0,0.0,0.0,0.0,0.0,0.0,0.0,0.0,0.0,0.0,0.0,0.0,0.0,0.0,0.0,1.8046,1.837,1.8961,1.9866,2.048,0.0,0.0,2.134,2.1458,2.1944,2.1507,2.1956,0.0,0.0,0.0,0.0,2.5624,2.5861,0.0,0.0,0.0,0.0,2.6003,2.5608,2.4995,2.4995,2.5767,2.6807,0.0,0.0,0.0,0.0,2.6304,2.6393,2.7087,2.7536,2.7739,2.7422,0.0,0.0,0.0,2.8671,3.0141,3.2422,3.5188,3.785,3.9649,4.0096,4.0208,4.0618,4.1538,4.2411,4.2821,4.3815,4.4608,4.4608,4.4608,4.4608,4.4608,4.4608,4.4608,4.4608,4.4608,4.4608,4.4608,4.4608,4.4608,4.4608,4.4608,4.4608,4.4608,4.4608,4.4608,4.4608,4.4608,4.4608,4.4608,4.4608,4.4608,4.4608,4.4922,4.528,4.5713,4.7194,4.8073,4.8402,4.8808,4.8994,4.8994,4.8994,4.8994,4.8994,4.8994,4.8994,4.8994,4.8994,4.9412,5.0086,5.083,5.1519,5.2213,0.0,0.0,0.0,0.0,0.0,0.0,0.0,0.0,0.0,0.0,0.0,0.0,0.0,0.0,0.0,0.0,1.7367,1.8183,1.927,1.9925,0.0,0.0,0.0,2.0714,2.1087,2.0897,0.0,0.0,0.0,0.0,2.5988,2.5676,2.6272,0.0,2.7425,0.0,0.0,0.0,0.0,0.0,2.5543,2.6636,2.7994,0.0,0.0,0.0,0.0,2.6991,2.7068,2.7627,2.7942,2.8069,2.7858,2.7942,0.0,0.0,0.0,2.8454,3.2769,3.5047,3.6738,3.8983,3.9542,3.9829,4.0944,4.1762,4.2513,4.3254,4.4045,4.4608,4.4608,4.4608,4.4608,4.4608,4.4608,4.4608,4.4608,4.4608,4.4608,4.4608,4.4608,4.4608,4.4608,4.4608,4.4608,4.4608,4.4608,4.4608,4.4608,4.4608,4.4608,4.4608,4.4608,4.4608,4.4608,4.4608,4.4966,4.5713,4.6822,4.7549,4.7921,4.8469,4.8825,4.8994,4.8994,4.8994,4.8994,4.8994,4.8994,4.8994,4.8994,4.9412,5.0086,5.083,5.1519,5.2213,0.0,0.0,0.0,0.0,0.0,0.0,0.0,0.0,0.0,0.0,0.0,0.0,0.0,1.6923,1.6834,1.6623,1.6834,1.7281,1.8042,1.8533,1.9135,0.0,0.0,0.0,0.0,0.0,0.0,0.0,0.0,0.0,2.6003,2.6683,2.772,2.8972,2.8326,2.7294,2.6056,0.0,0.0,0.0,0.0,2.7715,0.0,0.0,0.0,3.0876,2.9393,2.8852,2.875,2.8043,2.831,2.8802,2.8048,2.8327,2.865,0.0,0.0,0.0,3.1374,3.2,3.2594,3.6935,3.8018,3.857,4.0707,4.1762,4.2513,4.3254,4.4045,4.4608,4.4608,4.4608,4.4608,4.4608,4.4608,4.4608,4.4608,4.4608,4.4608,4.4608,4.4608,4.4608,4.4608,4.4608,4.4608,4.4608,4.4608,4.4608,4.4608,4.4608,4.4608,4.4608,4.4608,4.4608,4.4608,4.4608,4.4966,4.5696,4.578,4.6558,4.7896,4.7938,4.8343,4.8994,4.8994,4.8994,4.8994,4.8994,4.8994,4.8994,4.8994,4.9412,5.0086,5.083,5.1519,5.2213,0.0,0.0,0.0,0.0,0.0,0.0,0.0,0.0,0.0,0.0,0.0,0.0,0.0,1.7809,1.7663,1.6692,1.7091,1.7532,1.7782,1.8365,1.9096,1.9952,0.0,0.0,0.0,0.0,0.0,0.0,0.0,2.2862,2.536,2.5634,2.6488,2.7841,2.8457,2.8215,2.7336,2.7172,0.0,0.0,0.0,0.0,0.0,0.0,3.1312,3.2833,3.1099,3.0312,3.0153,3.0557,3.0243,2.9567,2.8805,2.8768,2.8705,2.7156,2.7393,2.8561,3.04,3.1732,3.3119,3.5199,3.6823,3.8362,4.0094,4.1437,4.2665,4.3917,4.4398,4.4608,4.4608,4.4608,4.4608,4.4608,4.4608,4.4608,4.4608,4.4608,4.4608,4.4608,4.4608,4.4608,4.4608,4.4608,4.4608,4.4608,4.4608,4.4608,4.4608,4.4608,4.4608,4.4608,4.4608,4.4608,4.4608,4.4608,4.4726,4.5007,4.5466,4.5983,4.6525,4.7464,4.8031,4.8326,4.8791,4.8994,4.8994,4.8994,4.8994,4.8994,4.8994,4.9412,5.0086,5.083,5.1519,5.2213,0.0,0.0,0.0,0.0,0.0,0.0,0.0,0.0,0.0,0.0,0.0,0.0,0.0,0.0,1.8351,1.7473,1.7797,1.8056,1.8139,1.8497,1.9096,1.9959,1.9865,0.0,0.0,0.0,0.0,0.0,0.0,0.0,0.0,2.4875,2.5745,2.7141,2.803,2.8304,0.0,0.0,0.0,2.7527,0.0,0.0,3.1181,3.167,3.2838,3.4085,3.2948,3.2205,3.1904,3.2755,3.2385,3.1393,3.0427,2.9411,2.8358,2.7067,2.7592,2.8704,2.9181,3.0594,3.2278,3.3761,3.5261,3.711,3.9846,4.1234,4.2428,4.4235,4.4608,4.4608,4.4608,4.4608,4.4608,4.4608,4.4608,4.4608,4.4608,4.4608,4.4608,4.4608,4.4608,4.4608,4.4608,4.4608,4.4608,4.4608,4.4608,4.4608,4.4608,4.4608,4.4608,4.4608,4.4608,4.4608,4.4608,4.4608,4.4608,4.4608,4.5101,4.5466,4.573,4.6964,4.7667,4.7938,4.8689,4.8994,4.8994,4.8994,4.8994,4.9024,4.9241,4.9615,5.0115,5.1075,5.1728,5.2213,0.0,0.0,0.0,0.0,0.0,0.0,0.0,0.0,0.0,0.0,0.0,0.0,0.0,0.0,0.0,1.9061,1.8875,1.8818,1.9004,1.8824,1.9033,1.9775,1.9807,0.0,0.0,2.0798,0.0,0.0,0.0,0.0,0.0,0.0,2.5745,2.7078,2.7093,2.7462,2.8068,0.0,2.809,2.8352,3.0462,3.1137,3.1294,3.4805,3.5519,3.4675,3.5,3.4631,3.4068,3.4458,3.4556,3.4213,3.2745,0.0,0.0,0.0,0.0,0.0,0.0,0.0,0.0,3.2594,3.335,3.4737,3.9861,4.1096,4.1813,4.4066,4.4574,4.4608,4.4608,4.4608,4.4608,4.4608,4.4608,4.4608,4.4608,4.4608,4.4608,4.4608,4.4608,4.4608,4.4608,4.4608,4.4608,4.4608,4.4608,4.4608,4.4608,4.4608,4.4608,4.4608,4.4608,4.4608,4.4608,4.4608,4.4608,4.4608,4.4608,4.4966,4.5696,4.643,4.7175,4.7904,4.8655,4.8977,4.8994,4.8994,4.8994,4.9054,4.9722,4.9997,5.0199,5.1575,5.2101,5.2236,0.0,0.0,0.0,0.0,0.0,0.0,0.0,0.0,0.0,0.0,0.0,0.0,0.0,0.0,0.0,2.0943,2.0083,1.9514,1.9572,1.9035,1.9033,1.9775,1.9807,2.0111,2.0787,2.0798,2.0798,2.0798,2.1541,2.2331,2.3205,2.4437,2.5471,0.0,2.6857,2.7204,2.733,2.6814,0.0,2.9721,3.0896,3.2228,3.3734,3.6079,3.73,3.7719,3.7523,3.6947,3.6367,3.6801,3.5671,3.3768,3.2051,0.0,0.0,0.0,0.0,0.0,2.8805,0.0,0.0,0.0,0.0,0.0,3.6575,3.8834,4.0893,4.2581,4.3822,4.4608,4.4608,4.4608,4.4608,4.4608,4.4608,4.4608,4.4608,4.4608,4.4608,4.4608,4.4608,4.4608,4.4608,4.4608,4.4608,4.4608,4.4608,4.4608,4.4608,4.4608,4.4608,4.4608,4.4608,4.4608,4.4608,4.4608,4.4608,4.4608,4.4608,4.4709,4.4939,4.5669,4.6413,4.7141,4.787,4.852,4.8994,4.8994,4.8994,4.9017,4.9205,4.9893,5.0843,5.1234,5.2024,5.2926,0.0,0.0,0.0,0.0,0.0,0.0,0.0,0.0,0.0,0.0,0.0,0.0,0.0,0.0,0.0,2.2223,2.1296,2.066,2.0636,1.9969,1.9763,2.021,2.0225,2.0399,2.0787,2.0798,2.0798,2.0798,2.1541,2.2241,2.2925,2.4032,2.4912,2.5608,0.0,0.0,0.0,0.0,2.7036,2.9499,3.1483,3.2898,3.4125,3.6729,3.7849,3.8112,3.8637,3.8332,3.7816,3.8572,3.7177,3.4812,3.3113,3.156,0.0,2.9264,0.0,0.0,0.0,0.0,0.0,3.0594,0.0,0.0,3.6327,3.8384,4.0324,4.2756,4.3975,4.4608,4.4608,4.4608,4.4608,4.4608,4.4608,4.4608,4.4608,4.4608,4.4608,4.4608,4.4608,4.4608,4.4608,4.4608,4.4608,4.4608,4.4608,4.4608,4.4608,4.4608,4.4608,4.4608,4.4608,4.4608,4.4608,4.4608,4.4608,4.4608,4.4608,4.4608,4.4625,4.5365,4.6109,4.6844,4.7582,4.8326,4.8994,4.8994,4.8994,4.9032,4.9316,4.9914,5.0676,5.0981,5.1801,5.2741,0.0,0.0,0.0,0.0,0.0,0.0,0.0,0.0,0.0,0.0,0.0,0.0,0.0,0.0,0.0,0.0,2.2557,2.207,2.1926,2.1296,2.0897,2.0798,2.0873,2.0905,2.0925,2.0992,2.0992,2.0925,2.1731,2.2383,2.2914,2.367,2.437,2.4995,0.0,0.0,0.0,0.0,2.6424,2.8577,3.1964,3.3285,3.3589,3.7084,3.7857,3.7283,3.8893,3.9054,3.8655,3.9592,3.8564,3.6643,3.5059,3.3689,3.2232,3.0058,3.0444,0.0,0.0,0.0,0.0,3.1275,3.1517,0.0,3.7289,3.8547,3.9665,4.2878,4.3717,4.388,4.3965,4.3982,4.3999,4.4083,4.4235,4.4405,4.4574,4.4608,4.4608,4.4608,4.4608,4.4608,4.4608,4.4608,4.4608,4.4608,4.4608,4.4608,4.4608,4.4608,4.4608,4.4608,4.4608,4.4608,4.4608,4.4608,4.4608,4.4608,4.4608,4.4608,4.4625,4.5287,4.5974,4.6725,4.7455,4.8199,4.8875,4.8968,4.8994,4.9071,4.9666,4.9933,5.0072,5.0736,5.1456,5.2107,0.0,0.0,0.0,0.0,0.0,0.0,0.0,0.0,0.0,0.0,0.0,0.0,0.0,0.0,0.0,0.0,0.0,2.327,2.2715,2.2067,2.1415,2.0834,2.1323,2.1635,2.1683,2.2214,2.223,2.1688,2.2902,2.3307,2.293,2.419,2.4864,2.4995,2.4995,0.0,0.0,2.6335,2.7774,2.9639,3.147,3.3398,3.546,3.8158,3.9297,3.9476,3.9843,3.9644,3.9158,3.8775,3.8211,3.7379,3.5549,3.4975,3.457,3.2625,3.2909,3.3665,3.278,3.2657,3.2787,3.2927,3.3423,0.0,3.4058,3.5716,3.7187,3.6991,3.8163,3.9394,3.9982,4.0083,4.0286,4.0891,4.1961,4.3179,4.4422,4.4608,4.4608,4.4608,4.4608,4.4608,4.4608,4.4608,4.4608,4.4608,4.4608,4.4608,4.4608,4.4608,4.4608,4.4608,4.4608,4.4608,4.4608,4.4608,4.4608,4.4608,4.4608,4.4608,4.4608,4.4743,4.522,4.5957,4.6684,4.7438,4.8157,4.8757,4.8994,4.9009,4.9136,4.9512,5.0026,5.0157,5.1016,5.2107,0.0,0.0,0.0,0.0,0.0,0.0,0.0,0.0,0.0,0.0,0.0,0.0,0.0,0.0,0.0,0.0,0.0,0.0,0.0,0.0,2.2225,2.1862,2.2169,2.2359,2.2403,2.2724,2.2577,2.1905,2.2916,2.3237,2.2925,2.3964,2.5111,2.6277,2.5736,2.6184,2.7338,2.7169,2.801,2.9662,3.2217,3.457,3.6777,3.8922,3.9905,4.0096,4.0096,3.995,3.9697,3.9317,3.8495,3.7477,3.6732,3.6228,3.5567,3.3856,3.4164,3.4761,3.3463,3.3246,3.3485,3.3863,3.3947,0.0,0.0,3.5966,3.6652,3.7173,3.7615,3.8018,3.8381,3.8448,3.8645,3.9204,4.0821,4.2007,4.2051,4.3519,4.4608,4.4608,4.4608,4.4608,4.4608,4.4608,4.4608,4.4608,4.4608,4.4608,4.4608,4.4608,4.4608,4.4608,4.4608,4.4608,4.4608,4.4608,4.4608,4.4608,4.4608,4.4608,4.4608,4.4608,4.5,4.573,4.6481,4.7225,4.7954,4.8706,4.8994,4.8994,4.8994,4.9212,4.9506,4.9506,5.0393,5.1593,2.0372,0.0,0.0,0.0,0.0,0.0,0.0,0.0,0.0,0.0,0.0,0.0,0.0,0.0,0.0,0.0,0.0,0.0,0.0,2.4234,2.3556,2.3433,2.3208,2.3262,2.3594,2.3414,2.2914,2.2083,2.2763,2.2957,2.2715,2.3518,2.5033,2.7081,2.6706,2.7599,2.932,2.8263,2.8727,3.0414,3.3399,3.5291,3.6569,3.8661,3.9503,3.9636,3.9969,4.0096,4.0066,3.9845,3.8763,3.7499,3.7385,3.7012,3.626,3.443,3.4864,3.5542,3.3794,3.3562,3.3945,3.4544,3.4353,3.4533,0.0,0.0,0.0,3.7704,3.7365,3.6844,3.7005,3.6929,3.6976,3.7442,3.9225,4.0127,3.8939,4.157,4.359,4.3503,4.4152,4.4444,4.4087,4.4109,4.4286,4.4574,4.432,4.4286,4.4574,4.4608,4.4608,4.4608,4.4608,4.4608,4.4608,4.4608,4.4608,4.4608,4.4608,4.4608,4.4608,4.4608,4.4922,4.5534,4.6421,4.7141,4.7759,4.8638,4.8994,4.8994,4.8994,4.8994,4.8994,4.8994,4.9896,5.1099,2.0457,2.1262,0.0,0.0,0.0,0.0,0.0,0.0,0.0,0.0,0.0,0.0,0.0,0.0,0.0,0.0,0.0,0.0,2.6562,2.6278,0.0,2.5324,2.4327,2.4544,2.6139,2.5256,2.4105,2.2787,2.346,2.3151,2.1953,2.3272,2.4405,2.5391,2.7537,2.841,2.8363,2.9785,3.1774,3.4005,3.4434,3.3777,3.2853,3.5926,3.7333,3.792,3.9516,4.0096,3.9961,3.8929,3.8448,3.7928,3.5954,3.6637,3.7587,3.4741,3.5409,3.683,3.5543,3.5227,3.5274,3.5379,3.5806,3.5741,3.3813,0.0,3.4292,3.2886,0.0,3.3063,3.3782,0.0,0.0,3.3873,3.5336,3.6322,3.6167,3.8405,3.9951,3.959,4.2539,4.3917,4.2198,4.2348,4.3129,4.4506,4.3332,4.3163,4.4523,4.4608,4.4608,4.4608,4.4608,4.4608,4.4608,4.4608,4.4608,4.4608,4.4608,4.4608,4.4608,4.4608,4.4642,4.4804,4.6208,4.6844,4.703,4.8426,4.8994,4.8994,4.8994,4.8994,4.8994,4.8994,4.9896,5.1099,2.0599,2.1647,0.0,0.0,0.0,0.0,0.0,0.0,0.0,0.0,0.0,0.0,0.0,0.0,0.0,0.0,0.0,2.9967,2.8489,2.8031,0.0,2.6513,2.6006,2.5906,2.6243,2.5805,2.4892,2.348,2.3766,2.3609,2.3047,2.4065,2.5474,2.7239,2.9124,3.0424,3.1306,3.2504,3.3012,3.3127,3.4189,3.3521,3.2402,3.6939,3.8797,3.9068,3.9825,4.0096,4.0037,3.9558,3.8775,3.7995,3.7974,3.782,3.7438,3.6404,3.678,3.7271,3.6114,3.6437,3.6971,3.6294,3.6576,3.655,3.4827,3.4284,3.3922,3.3145,0.0,0.0,0.0,0.0,0.0,0.0,3.374,3.4415,3.3561,3.6028,3.8166,3.8817,4.052,4.1657,4.1691,4.2866,4.389,4.4557,4.3999,4.3914,4.4574,4.4608,4.4608,4.4608,4.4608,4.4608,4.4608,4.4608,4.4608,4.4608,4.4608,4.4608,4.4608,4.4608,4.4608,4.4658,4.571,4.6404,4.6878,4.7928,4.8605,4.8994,4.8994,4.8994,4.8994,4.8994,4.9615,5.0513,2.0766,0.0,0.0,0.0,0.0,0.0,0.0,0.0,0.0,0.0,0.0,0.0,3.0857,3.1108,0.0,0.0,3.2455,3.1689,3.0674,2.9854,2.9194,2.8737,2.7673,2.72,2.7444,2.6709,2.5608,2.4202,2.4202,2.4103,2.3924,2.4649,2.6161,2.8335,3.0248,3.1937,3.3407,3.4461,3.4423,3.3782,3.4914,3.4883,3.4526,3.8024,3.9676,4.0096,4.0096,4.0096,4.0077,3.9969,3.9159,3.8375,3.9444,3.898,3.8064,3.8019,3.8245,3.8214,3.6954,3.7412,3.7943,3.6612,3.6522,3.6455,3.5242,3.4468,3.3957,3.3781,3.3261,0.0,0.0,0.0,3.1521,3.1614,0.0,3.2782,3.1536,3.3716,3.5835,3.6952,3.8065,3.9358,4.0948,4.2466,4.3528,4.3941,4.3965,4.4144,4.4574,4.4608,4.4608,4.4608,4.4608,4.4608,4.4608,4.4608,4.4608,4.4608,4.4608,4.4608,4.4608,4.4608,4.4608,4.4642,4.5382,4.6126,4.6861,4.7599,4.8326,4.8994,4.8994,4.8994,4.8994,4.8994,4.941,5.0118,2.097,2.1432,0.0,0.0,0.0,0.0,0.0,0.0,2.7367,2.8026,2.9038,3.0477,3.2504,3.3418,3.4444,3.5844,3.5646,3.4723,3.3005,3.1847,3.1687,3.2762,2.9146,2.8356,3.1079,2.8452,2.6377,2.4959,2.4959,2.4596,2.3924,2.4649,2.5765,2.7295,3.045,3.2258,3.3032,3.4886,3.6646,3.8144,3.7555,3.8325,3.9676,3.8091,3.857,4.0096,4.0096,4.0096,4.0033,3.9648,3.9481,3.9385,3.9038,3.9659,4.0267,3.9185,3.9636,4.0155,3.8564,3.8176,3.7755,3.5909,3.5442,3.5084,3.3687,3.3848,3.4094,3.3455,3.3812,3.4049,3.3388,3.2721,3.2038,3.1324,3.1267,0.0,0.0,3.123,3.2102,3.2472,3.5036,3.7514,3.9398,3.9986,4.0842,4.2266,4.2361,4.3027,4.4523,4.4608,4.4608,4.4608,4.4608,4.4608,4.4608,4.4608,4.4608,4.4608,4.4608,4.4608,4.4608,4.4608,4.4608,4.4642,4.5382,4.6126,4.6861,4.7599,4.8326,4.8994,4.8994,4.8994,4.8994,4.8994,4.941,5.0118,0.0,0.0,0.0,0.0,0.0,0.0,2.6509,2.7683,2.8785,2.9765,3.0586,3.1635,3.3036,3.3449,3.4107,3.5325,3.5327,3.5022,3.4424,3.3311,3.3107,3.4017,3.1326,3.0182,3.0953,2.9301,2.7751,2.6393,2.6393,2.6261,2.603,2.673,2.7315,2.7895,3.1134,3.3109,3.418,3.6503,3.7582,3.7724,3.7496,3.8292,3.959,3.9293,3.9573,4.0157,4.0652,4.0838,4.088,4.1229,4.1171,4.0978,4.1107,4.1022,4.0845,4.076,4.082,4.0753,4.02,4.0646,4.0604,3.7926,3.7484,3.706,3.4546,3.4137,3.4105,3.3435,3.3837,3.4105,3.3413,3.2759,3.2212,3.1969,3.114,3.0461,0.0,3.0507,3.095,3.151,3.4214,3.6366,3.7226,3.9894,4.1559,4.1576,4.2976,4.4049,4.4574,4.4608,4.4608,4.4608,4.4608,4.4608,4.4608,4.4608,4.4608,4.4608,4.4608,4.4608,4.4608,4.4608,4.4608,4.4608,4.4855,4.5667,4.681,4.7073,4.7894,4.8994,4.8994,4.8994,4.8994,4.8994,4.9136,4.9506,2.2644,0.0,0.0,2.3111,2.4494,2.6026,2.7262,2.8826,3.0085,3.0718,3.1596,3.2577,3.366,3.392,3.4504,3.5741,3.5996,3.592,3.5524,3.4801,3.4626,3.5146,3.3401,3.2515,3.2715,3.1235,2.9786,2.8417,2.8008,2.7688,2.7478,2.7894,2.8226,2.8574,3.1142,3.3149,3.4746,3.6882,3.8005,3.8375,3.8644,3.9277,4.0095,4.0674,4.0626,4.0381,4.1277,4.1593,4.1694,4.2439,4.2516,4.2399,4.2956,4.2724,4.233,4.2639,4.2527,4.2195,4.1765,4.2202,4.2159,3.9508,3.9077,3.8523,3.5616,3.5122,3.5106,3.4431,3.4297,3.4505,3.5174,3.3851,3.2707,3.287,3.1574,3.0376,0.0,3.0034,3.0404,3.0987,3.3193,3.5124,3.6274,3.8656,4.0534,4.1519,4.2716,4.3738,4.4557,4.4608,4.4608,4.4608,4.4608,4.4608,4.4608,4.4608,4.4608,4.4608,4.4608,4.4608,4.4608,4.4608,4.4608,4.4608,4.4608,4.5437,4.6793,4.6793,4.7673,4.8994,4.8994,4.8994,4.8994,4.8994,4.9316,4.9881,2.3626,2.3954,2.3961,2.4092,2.5582,2.7058,2.7934,2.9838,3.1093,3.0891,3.2051,3.336,3.4488,3.4984,3.5774,3.7124,3.7637,3.7458,3.6411,3.6293,3.6299,3.6387,3.5307,3.5184,3.6243,3.4047,3.2246,3.0879,2.9676,2.8771,2.8178,2.8146,2.8488,2.9161,3.0547,3.2439,3.4684,3.607,3.8009,4.0225,4.0916,4.1208,4.1307,4.2066,4.1675,4.0855,4.196,4.2344,4.2479,4.321,4.3457,4.3592,4.4364,4.4608,4.4608,4.4608,4.4608,4.4347,4.3205,4.2891,4.2449,4.059,4.0106,3.9427,3.6864,3.6781,3.7049,3.6377,3.536,3.5441,3.8245,3.5848,3.3556,3.3918,3.2442,3.0762,2.9398,2.9817,3.041,3.0824,3.2083,3.3854,3.6229,3.6375,3.7915,4.1793,4.1576,4.2236,4.4472,4.4523,4.4523,4.4608,4.4608,4.4608,4.4608,4.4608,4.4608,4.4608,4.4608,4.4608,4.4608,4.4608,4.4608,4.4608,4.4608,4.542,4.6742,4.6776,4.7656,4.8951,4.8984,4.8994,4.9001,4.904,4.9936,5.1151,2.3827,2.4866,2.5676,2.5693,2.6662,2.7511,2.7766,2.9562,3.108,3.1613,3.3343,3.4938,3.6082,3.6787,3.7323,3.7693,3.7834,3.8016,3.8252,3.7484,3.7644,3.9044,3.7213,3.6457,3.7073,3.4337,3.2627,3.2056,2.9866,2.8979,2.9285,2.8781,2.874,2.914,3.0054,3.1997,3.4668,3.5576,3.7881,4.0933,4.1113,4.1351,4.1686,4.2716,4.2754,4.2304,4.2914,4.3118,4.3244,4.4035,4.4289,4.433,4.4533,4.4608,4.4608,4.4608,4.4608,4.4529,4.4228,4.4142,4.3815,4.2437,4.1672,4.0868,3.9359,3.914,3.9051,3.8331,3.8373,3.8181,3.7032,3.6023,3.4963,3.3688,3.2663,3.171,3.0784,3.0816,3.1187,3.184,3.345,3.4126,3.3149,3.5995,3.8214,3.8963,4.0889,4.2767,4.4506,4.3518,4.3416,4.4557,4.4608,4.4608,4.4608,4.4608,4.4608,4.4608,4.4608,4.4608,4.4608,4.4608,4.4608,4.4608,4.4608,4.5125,4.6017,4.6566,4.7344,4.8242,4.8791,4.8994,4.9071,4.9556,5.0635,5.185,2.4595,2.5766,2.6852,2.7343,2.8181,2.8743,2.8603,3.0204,3.1694,3.2353,3.4373,3.5904,3.6287,3.7547,3.8379,3.8379,3.8673,3.8825,3.8731,3.8591,3.8776,3.932,3.8603,3.8314,3.857,3.6435,3.4624,3.3242,3.1307,2.9933,2.9125,2.8743,2.8694,2.8961,2.9703,3.1446,3.4005,3.637,3.8752,4.1005,4.1835,4.2274,0.0,4.355,4.3788,4.362,4.3844,4.3927,4.3995,4.4455,4.4608,4.4608,4.4608,4.4608,4.4608,4.4608,4.4608,4.4608,4.4608,4.4608,4.4433,4.3756,4.3277,4.2589,4.1081,4.0744,4.0635,4.0205,3.9806,3.9578,3.9785,3.7776,3.5391,3.3217,3.2279,3.1672,3.1258,3.1485,3.1719,3.182,3.3039,3.3314,3.1898,3.5817,3.8302,3.7926,3.9732,4.1234,4.2103,4.2249,4.2706,4.3569,4.4252,4.4608,4.4608,4.4608,4.4608,4.4608,4.4608,4.4608,4.4608,4.4608,4.4608,4.4608,4.4608,4.5017,4.5763,4.6505,4.7235,4.7964,4.8706,4.9384,4.9957,5.0338,5.097,5.1698,2.5612,2.6616,2.7582,2.8541,2.9563,3.0177,2.9927,3.1464,3.2803,3.3179,3.5371,3.6717,3.6185,3.7927,3.9146,3.9146,3.9734,3.9687,3.8695,3.9558,3.9657,3.8672,3.9564,4.0096,4.0096,3.8897,3.6955,3.4284,3.2962,3.0947,2.8341,2.8372,2.8501,2.874,2.9471,3.1104,3.3625,3.7759,4.0074,4.11,4.2739,4.3457,4.3626,4.4323,4.4608,4.4608,4.4608,4.4608,4.4608,4.4608,4.4608,4.4608,4.4608,4.4608,4.4608,4.4608,4.4608,4.4608,4.4608,4.4608,4.4608,4.4608,4.4608,4.4152,4.2472,4.2077,4.2077,4.2077,4.0787,4.0583,4.3642,3.9979,3.5668,3.3201,3.2463,3.2202,3.2202,3.2762,3.2806,3.1829,3.2565,0.0,3.1676,3.535,3.7734,3.7545,3.8133,3.8725,3.9259,4.0923,4.209,4.2587,4.389,4.4608,4.4608,4.4608,4.4608,4.4608,4.4608,4.4608,4.4608,4.4608,4.4608,4.4608,4.4608,4.4956,4.5618,4.6455,4.7293,4.8107,4.874,4.9795,5.0968,5.106,5.1151,5.1324,2.623,2.7116,2.7688,2.767,2.9252,3.0622,3.0897,3.3027,3.4568,3.441,3.6844,3.855,3.8423,3.931,3.991,3.991,4.0028,4.002,3.9815,3.999,4.0013,3.9815,3.999,4.0096,4.0096,3.843,3.6631,3.4688,3.2453,3.022,2.8066,2.8302,2.8547,2.8814,2.9431,3.1952,3.5873,3.8421,4.0826,4.2932,4.327,4.3802,4.4415,4.4557,4.4608,4.4608,4.4608,4.4608,4.4608,4.4608,4.4608,4.4608,4.4608,4.4608,4.4608,4.4608,4.4608,4.4608,4.4608,4.4608,4.4608,4.4608,4.4608,4.4502,4.4169,4.4087,4.4087,4.4087,4.3836,4.3327,4.2384,4.0122,3.7753,3.5761,3.6639,3.7541,3.7541,3.7656,3.6922,3.4688,3.6397,3.5938,3.1314,3.3238,3.4994,3.5547,3.5707,3.7263,4.0626,4.0026,4.0997,4.41,4.4455,4.4608,4.4608,4.4608,4.4608,4.4608,4.4608,4.4608,4.4608,4.4608,4.4608,4.4608,4.4608,4.4668,4.4895,4.6259,4.7581,4.8825,4.8951,4.9492,5.0269,5.0876,5.145,5.2036,2.7948,2.8169,2.8464,2.9235,3.0454,3.1593,3.237,3.4415,3.5725,3.528,3.6888,3.8161,3.8444,3.9444,4.0096,4.0096,4.0096,4.0096,4.0096,4.0096,4.0096,4.0096,4.0096,4.0096,4.0096,3.924,3.7487,3.4793,3.3604,3.14,2.8314,2.8432,2.8646,2.9006,3.124,3.3709,3.6392,3.9381,4.1585,4.3142,4.3769,4.4255,4.4608,4.4608,4.4608,4.4608,4.4608,4.4608,4.4608,4.4608,4.4608,4.4608,4.4608,4.4608,4.4608,4.4608,4.4608,4.4608,4.4608,4.4608,4.4608,4.4608,4.4608,4.4608,4.4608,4.4608,4.4608,4.4608,4.4608,4.4006,4.2054,4.0162,3.8607,3.7693,3.7483,3.7785,3.8763,3.8905,3.8443,3.7224,3.7284,3.6406,3.3765,3.3264,3.3509,3.4454,3.504,3.6732,3.9895,3.9383,4.0347,4.3315,4.4185,4.4608,4.4608,4.4608,4.4608,4.4608,4.4608,4.4608,4.4608,4.4608,4.4608,4.4608,4.4608,4.4608,4.4709,4.6191,4.7673,4.8994,4.8994,4.9412,5.0086,5.083,5.1519,5.2213,2.9725,2.9482,2.9613,3.1112,3.1923,3.2657,3.3563,3.5221,3.6258,3.5936,3.6735,3.7484,3.7917,3.8947,3.9604,3.9604,3.9604,3.9604,3.9604,3.9604,3.9685,3.9833,3.984,3.984,3.984,4.0166,3.8664,3.525,3.5096,3.2989,2.9059,2.8937,2.932,3.0245,3.3484,3.5775,3.7399,4.0416,4.2273,4.3277,4.4221,4.4608,4.4608,4.4608,4.4608,4.4608,4.4608,4.4608,4.4608,4.4608,4.4608,4.4608,4.4608,4.4608,4.4608,4.4608,4.4608,4.4608,4.4608,4.4608,4.4608,4.4608,4.4608,4.4608,4.4608,4.4608,4.4608,4.4608,4.4608,4.4006,4.2054,4.0827,3.9982,3.9563,3.8604,3.8416,3.9902,4.0109,3.9916,3.9348,3.8099,3.7025,3.6314,3.4642,3.3876,3.4545,3.5068,3.6356,3.8644,3.891,4.0009,4.2225,4.3484,4.4117,4.4117,4.4438,4.4608,4.4608,4.4608,4.4608,4.4608,4.4608,4.4608,4.4608,4.4608,4.4692,4.4939,4.6259,4.7588,4.8774,4.8943,4.9506,5.0293,5.0883,5.163,5.2428,3.0835,3.0996,3.1156,3.1805,3.2822,3.3579,3.3678,3.4784,3.5817,3.6437,3.7233,3.776,3.7803,3.7939,3.8014,3.8014,3.8014,3.8014,3.8014,3.8014,3.8318,3.8975,3.9002,3.9002,3.9002,4.0372,3.9644,3.6695,3.6085,3.4015,3.0588,3.0029,3.1188,3.3777,3.5295,3.7772,4.0856,4.1445,4.2755,4.4433,4.456,4.4608,4.4608,4.4608,4.4608,4.4608,4.4608,4.4608,4.4608,4.4608,4.4608,4.4608,4.4608,4.4608,4.4608,4.4608,4.4608,4.4608,4.4608,4.4608,4.4608,4.4608,4.4608,4.4608,4.4608,4.4608,4.4608,4.4608,4.4608,4.4006,4.2054,4.2995,4.3496,4.171,4.2769,4.3869,4.4039,4.4063,4.3186,4.0812,4.0901,4.0019,3.7011,3.7401,3.7472,3.6606,3.535,3.5601,3.788,3.8639,4.0009,4.2225,4.2428,4.252,4.252,4.389,4.4608,4.4608,4.4608,4.4608,4.4608,4.4608,4.4608,4.4608,4.4608,4.499,4.5669,4.6471,4.7276,4.8073,4.874,4.9816,5.1001,5.1073,5.1952,5.3103,3.2659,3.2469,3.2503,3.3401,3.3643,3.393,3.4673,3.5188,3.5611,3.5902,3.66,3.7264,3.7757,3.7807,3.7807,3.7807,3.7807,3.7985,3.8428,3.805,3.8541,4.0217,3.9859,4.0038,4.0923,4.1024,4.0104,3.8105,3.6895,3.4976,3.2423,3.2166,3.2984,3.4734,3.7296,3.9323,4.0929,4.2683,4.3592,4.3822,4.3822,4.3822,4.3822,4.3822,4.4145,4.4608,4.4608,4.4608,4.4608,4.4608,4.4608,4.4608,4.4608,4.4608,4.4608,4.4608,4.4608,4.4608,4.4608,4.4608,4.4608,4.4608,4.4608,4.4608,4.4608,4.4608,4.4608,4.4608,4.4608,4.4356,4.3585,4.3124,4.2995,4.3374,4.3107,4.3269,4.4444,4.4608,4.4204,4.317,4.2254,4.1178,3.9861,3.9113,3.8444,3.7808,3.6996,3.7049,3.8203,3.9564,4.094,4.2259,4.3196,4.367,4.367,4.4286,4.4608,4.4608,4.4608,4.4608,4.4608,4.4608,4.4608,4.4608,4.4608,4.5017,4.5763,4.6505,4.7235,4.7964,4.8706,4.9346,4.9936,5.0801,5.1462,5.2066,3.3996,3.3687,3.3705,3.4686,3.4514,3.4519,3.5373,3.5496,3.5496,3.5496,3.5951,3.6492,3.7055,3.7115,3.7115,3.7115,3.7115,3.7433,3.8157,3.7705,3.8319,4.0343,3.9935,4.0149,4.1189,4.1058,4.0484,3.9514,3.7972,3.6623,3.5491,3.4934,3.5282,3.6507,3.9034,4.0581,4.1428,4.3115,4.3478,4.2916,4.2916,4.2916,4.2916,4.2916,4.3456,4.4217,4.4217,4.4376,4.4608,4.4608,4.4608,4.4608,4.4608,4.4608,4.4608,4.4608,4.4608,4.4608,4.4608,4.4608,4.4608,4.4608,4.4608,4.4608,4.4608,4.4608,4.4608,4.4608,4.4608,4.4608,4.4608,4.3479,4.2995,4.438,4.3439,4.3026,4.4404,4.4608,4.438,4.3819,4.2536,4.1694,4.1694,4.0493,3.9547,3.9117,3.9571,3.9706,3.9309,4.0709,4.1762,4.2276,4.3366,4.3924,4.3924,4.4371,4.4608,4.4608,4.4608,4.4608,4.4608,4.4608,4.4608,4.4608,4.4608,4.4905,4.5449,4.6404,4.7107,4.7667,4.8622,4.9123,4.9412,5.0414,5.1047,5.1543,3.4487,3.4587,3.4776,3.5384,3.5473,3.5473,3.5496,3.5496,3.5496,3.5496,3.5504,3.5521,3.5529,3.5529,3.5529,3.5529,3.5529,3.5806,3.649,3.6512,3.7156,3.8572,3.8627,3.8627,3.8635,4.0127,4.0934,4.0972,3.9439,3.9197,4.0176,3.832,3.8339,3.9958,4.0325,4.1526,4.3205,4.2379,4.2029,4.2021,4.2021,4.2021,4.2021,4.2021,4.256,4.3314,4.3314,4.3865,4.4608,4.4608,4.4608,4.4608,4.4608,4.4608,4.4608,4.4608,4.4608,4.4608,4.4608,4.4608,4.4608,4.4608,4.4608,4.4608,4.4608,4.4608,4.4608,4.4608,4.4608,4.4608,4.4608,4.4584,4.4567,4.4608,4.4584,4.4567,4.4608,4.4608,4.3883,4.1966,4.1717,4.1694,4.1694,4.167,4.1383,4.0715,4.3062,4.3535,4.1299,4.1887,4.23,4.2293,4.2317,4.2327,4.2327,4.3846,4.4608,4.4608,4.4608,4.4608,4.4608,4.4608,4.4608,4.4608,4.4608,4.4608,4.4726,4.6208,4.6817,4.6962,4.8426,4.9404,4.999,5.0012,5.0891,5.2095,3.5174,3.5207,3.5271,3.5472,3.5496,3.5496,3.5496,3.5496,3.5496,3.5496,3.5496,3.5496,3.5496,3.5496,3.5496,3.5496,3.5916,3.6493,3.72,3.7163,3.8026,4.0071,3.9644,3.9831,4.0895,4.0815,4.0759,4.0801,3.9246,3.8674,3.8993,3.8396,3.8632,3.9613,4.0314,4.0969,4.1552,4.1869,4.1666,4.1113,4.1113,4.1113,4.1113,4.1113,4.1642,4.2419,4.2419,4.297,4.3702,4.3702,4.4116,4.4608,4.4608,4.4608,4.4608,4.4608,4.4608,4.4608,4.4608,4.4608,4.4608,4.4608,4.4608,4.4608,4.4608,4.4608,4.4608,4.4608,4.4608,4.4608,4.4608,4.4608,4.4608,4.4608,4.4608,4.4608,4.4608,4.4608,4.438,4.3754,4.3673,4.3673,4.3673,4.3673,4.3047,4.1494,4.2409,4.1963,3.9489,4.2237,4.3389,4.2327,4.3315,4.3873,4.3873,4.4354,4.4608,4.4608,4.4608,4.4608,4.4608,4.4608,4.4608,4.4608,4.4608,4.4608,4.4709,4.6191,4.6793,4.6945,4.8426,4.9138,4.9425,5.04,5.104,5.1568,3.5496,3.5496,3.5579,3.5833,3.5878,3.5953,3.6184,3.6214,3.6214,3.6214,3.6214,3.6214,3.6214,3.6214,3.6124,3.5893,3.647,3.7131,3.7844,3.7823,3.8548,4.0256,3.9858,4.005,4.1003,4.0499,4.0363,4.0707,4.006,3.9421,3.8799,3.9448,3.9807,3.9902,4.0457,4.0707,4.07,4.0927,4.0714,4.0205,4.0205,4.0205,4.0205,4.0205,4.075,4.1519,4.1519,4.2069,4.2809,4.2809,4.3176,4.3671,4.4013,4.4107,4.4181,4.4506,4.4608,4.4608,4.4608,4.4608,4.4608,4.4608,4.4608,4.4608,4.4608,4.4608,4.4608,4.4608,4.4608,4.4608,4.4608,4.4608,4.4608,4.4608,4.4608,4.4608,4.4608,4.4608,4.4339,4.3608,4.3503,4.3503,4.3503,4.3503,4.331,4.2826,4.3016,4.2466,4.0878,4.2648,4.3552,4.3179,4.41,4.4608,4.4608,4.4608,4.4608,4.4608,4.4608,4.4608,4.4608,4.4608,4.4608,4.4608,4.4608,4.4608,4.4709,4.6191,4.6793,4.6945,4.8426,4.8994,4.9107,4.9986,5.0469,5.085,3.5631,3.5631,3.5833,3.6455,3.656,3.6755,3.7306,3.7396,3.7396,3.7396,3.7396,3.7396,3.7396,3.7441,3.724,3.6688,3.715,3.7725,3.8356,3.8446,3.8751,3.9376,3.9406,3.9406,3.9406,3.9406,3.9793,4.0605,4.142,4.0986,3.9442,4.1054,4.1387,4.0605,4.0605,4.0605,4.0569,3.9746,3.9406,3.9406,3.9406,3.9406,3.9406,3.9406,3.9893,4.0605,4.0605,4.1172,4.1917,4.1917,4.1949,4.2141,4.2947,4.3199,4.3389,4.4334,4.4608,4.4608,4.4608,4.4608,4.4608,4.4608,4.4608,4.4608,4.4608,4.4608,4.4608,4.4608,4.4608,4.4608,4.4608,4.4608,4.4608,4.4608,4.4608,4.4608,4.4608,4.4608,4.3941,4.2118,4.1902,4.1902,4.1902,4.1902,4.26,4.4274,4.4425,4.4425,4.4404,4.3064,4.301,4.4557,4.4608,4.4608,4.4608,4.4608,4.4608,4.4608,4.4608,4.4608,4.4608,4.4608,4.4608,4.4608,4.4608,4.4608,4.4709,4.614,4.6742,4.6945,4.8376,4.8943,4.9001,4.9055,4.9462,5.0118,3.6947,3.6947,3.6992,3.7157,3.7195,3.724,3.7381,3.7396,3.7396,3.7396,3.7396,3.7396,3.7396,3.7853,3.8116,3.7952,3.8086,3.8236,3.8386,3.8886,3.9227,3.9391,3.9406,3.9406,3.9406,3.9406,3.9508,3.9711,3.9917,3.9793,3.9415,3.9826,3.9908,3.9711,3.9711,3.9711,3.9693,3.949,3.9406,3.9406,3.9406,3.9406,3.9406,3.9406,3.9535,3.9711,3.9711,4.0265,4.1013,4.1013,4.1453,4.2037,4.2237,4.23,4.2614,4.4143,4.4608,4.4608,4.4608,4.4608,4.4608,4.4608,4.4608,4.4608,4.4608,4.4608,4.4608,4.4608,4.4608,4.4608,4.4608,4.4608,4.4608,4.4608,4.4608,4.4608,4.4608,4.4608,4.442,4.3965,4.3917,4.3917,4.3917,4.3917,4.3496,4.2472,4.2668,4.2719,4.2405,4.2331,4.301,4.4557,4.4608,4.4608,4.4608,4.4608,4.4608,4.4608,4.4608,4.4608,4.4608,4.4608,4.4608,4.4608,4.4608,4.4608,4.4675,4.5585,4.6295,4.6894,4.781,4.8496,4.9054,4.9571,4.9864,5.0118,3.7396,3.7396,3.7501,3.7808,3.7853,3.7958,3.8263,3.8315,3.8315,3.8315,3.8315,3.8315,3.8315,3.8637,3.8856,3.8856,3.8856,3.8856,3.8856,3.9206,3.9406,3.9406,3.9406,3.9406,3.9406,3.9406,3.9406,3.9406,3.9406,3.9406,3.9406,3.9406,3.9406,3.9406,3.9406,3.9406,3.9406,3.9406,3.9406,3.9406,3.9406,3.9406,3.9406,3.9406,3.9406,3.9406,3.9406,3.9702,4.0106,4.0106,4.0421,4.0868,4.128,4.1412,4.1666,4.3023,4.3695,4.4085,4.4492,4.4608,4.4608,4.4608,4.4608,4.4608,4.4608,4.4608,4.4608,4.4608,4.4608,4.4608,4.4608,4.4608,4.4608,4.4608,4.4142,4.3968,4.4512,4.4135,4.3985,4.4536,4.4608,4.4608,4.4608,4.4608,4.4152,4.3107,4.3222,4.3267,4.305,4.3229,4.3745,4.4574,4.4608,4.4608,4.4608,4.4608,4.4608,4.4608,4.4608,4.4608,4.4608,4.4608,4.4608,4.4608,4.4608,4.4608,4.4658,4.5399,4.6126,4.6878,4.7616,4.8343,4.9031,4.9412,4.9534,4.9652,3.771,3.771,3.7875,3.8452,3.8542,3.8736,3.9316,3.9406,3.9406,3.9406,3.9406,3.9406,3.9406,3.9406,3.9406,3.9406,3.9406,3.9406,3.9406,3.9406,3.9406,3.9406,3.9406,3.9406,3.9406,3.9406,3.9406,3.9406,3.9406,3.9406,3.9406,3.9406,3.9406,3.9406,3.9406,3.9406,3.9406,3.9406,3.9406,3.9406,3.9406,3.9406,3.9406,3.9406,3.9406,3.9406,3.9406,3.9406,3.9406,3.9406,3.9406,3.9535,4.0265,4.0509,4.0673,4.1552,4.2332,4.3131,4.4121,4.4499,4.4608,4.4608,4.4608,4.4608,4.4608,4.4608,4.4608,4.4608,4.4608,4.4608,4.4608,4.4608,4.4502,4.4209,4.3545,4.3329,4.4059,4.3538,4.3441,4.4481,4.4608,4.4608,4.4608,4.4608,4.4608,4.4608,4.4608,4.4608,4.4608,4.4608,4.4608,4.4608,4.4608,4.4608,4.4608,4.4608,4.4608,4.4608,4.4608,4.4608,4.4608,4.4608,4.4608,4.4608,4.4608,4.4608,4.4642,4.5287,4.6024,4.6861,4.7488,4.825,4.8994,4.8994,4.8994,4.9077,3.9092,3.9092,3.9122,3.9227,3.9242,3.9272,3.9382,3.9406,3.9406,3.9406,3.9406,3.9406,3.9406,3.9406,3.9406,3.9406,3.9406,3.9406,3.9406,3.9406,3.9406,3.9406,3.9406,3.9406,3.9406,3.9406,3.9406,3.9406,3.9406,3.9406,3.9406,3.9406,3.9406,3.9406,3.9406,3.9406,3.9406,3.9406,3.9406,3.9406,3.9406,3.9406,3.9406,3.9406,3.9406,3.9406,3.9406,3.9406,3.9406,3.9406,3.9406,3.9409,3.9556,3.9601,3.9773,4.0639,4.0996,4.1446,4.3054,4.4035,4.4608,4.4608,4.4608,4.4608,4.4608,4.4608,4.4608,4.4608,4.4608,4.4608,4.4608,4.4608,4.4063,4.2414,4.3363,4.3811,4.2343,4.3404,4.4378,4.4584,4.4608,4.4608,4.4608,4.4608,4.4608,4.4608,4.4608,4.4608,4.4608,4.4608,4.4608,4.4608,4.4608,4.4608,4.4608,4.4608,4.4608,4.4608,4.4608,4.4608,4.4608,4.4608,4.4608,4.4608,4.4608,4.4608,4.4608,4.4719,4.5565,4.681,4.6928,4.78,4.8994,4.8994,4.8994,4.9009,3.9406,3.9406,3.9406,3.9406,3.9406,3.9406,3.9406,3.9406,3.9406,3.9406,3.9406,3.9406,3.9406,3.9406,3.9406,3.9406,3.9406,3.9406,3.9406,3.9406,3.9406,3.9406,3.9406,3.9406,3.9406,3.9406,3.9406,3.9406,3.9406,3.9406,3.9406,3.9406,3.9406,3.9406,3.9406,3.9406,3.9406,3.9406,3.9406,3.9406,3.9406,3.9406,3.9406,3.9406,3.9406,3.9406,3.9406,3.9406,3.9406,3.9406,3.9406,3.9406,3.9406,3.9406,3.9481,3.9882,4.0995,4.2284,4.3085,4.3948,4.4608,4.4608,4.4608,4.4608,4.4608,4.4608,4.4608,4.4608,4.4608,4.4608,4.4608,4.4608,4.4315,4.3415,4.348,4.3543,4.3296,4.3473,4.3865,4.4512,4.4608,4.4608,4.4608,4.4608,4.4608,4.4608,4.4608,4.4608,4.4608,4.4608,4.4608,4.4608,4.4608,4.4608,4.4608,4.4608,4.4608,4.4608,4.4608,4.4608,4.4608,4.4608,4.4608,4.4608,4.4608,4.4608,4.4608,4.4608,4.5244,4.6244,4.6633,4.7462,4.8469,4.8841,4.8994,4.8994,3.9406,3.9406,3.9406,3.9406,3.9406,3.9406,3.9406,3.9406,3.9406,3.9406,3.9406,3.9406,3.9406,3.9406,3.9406,3.9406,3.9406,3.9406,3.9406,3.9406,3.9406,3.9406,3.9406,3.9406,3.9406,3.9406,3.9406,3.9406,3.9406,3.9406,3.9406,3.9406,3.9406,3.9406,3.9406,3.9406,3.9406,3.9406,3.9406,3.9406,3.9406,3.9406,3.9406,3.9406,3.9406,3.9406,3.9406,3.9406,3.9406,3.9406,3.9406,3.9406,3.9406,3.9406,3.9406,3.9406,4.0968,4.2747,4.2939,4.3636,4.4305,4.4305,4.4457,4.4608,4.4608,4.4608,4.4608,4.4608,4.4608,4.4608,4.4608,4.4608,4.4444,4.3999,4.3536,4.3381,4.3855,4.3512,4.3567,4.4488,4.4608,4.4608,4.4608,4.4608,4.4608,4.4608,4.4608,4.4608,4.4608,4.4608,4.4608,4.4608,4.4608,4.4608,4.4608,4.4608,4.4608,4.4608,4.4608,4.4608,4.4608,4.4608,4.4608,4.4608,4.4608,4.4608,4.4608,4.4608,4.5034,4.5763,4.6505,4.7252,4.7988,4.8723,4.8994,4.8994,3.9406,3.9406,3.9406,3.9406,3.9406,3.9406,3.9406,3.9406,3.9406,3.9406,3.9406,3.9406,3.9406,3.9406,3.9406,3.9406,3.9406,3.9406,3.9406,3.9406,3.9406,3.9406,3.9406,3.9406,3.9406,3.9406,3.9406,3.9406,3.9406,3.9406,3.9406,3.9406,3.9406,3.9406,3.9406,3.9406,3.9406,3.9406,3.9406,3.9406,3.9406,3.9406,3.9406,3.9406,3.9406,3.9406,3.9406,3.9406,3.9406,3.9406,3.9406,3.9406,3.9406,3.9406,3.9406,3.9406,4.0106,4.1071,4.1885,4.2723,4.3405,4.3405,4.4006,4.4608,4.4608,4.4608,4.4608,4.4608,4.4608,4.4608,4.4608,4.4608,4.4006,4.2205,4.3344,4.3879,4.2151,4.3384,4.4505,4.4591,4.4608,4.4608,4.4608,4.4608,4.4608,4.4608,4.4608,4.4608,4.4608,4.4608,4.4608,4.4608,4.4608,4.4608,4.4608,4.4608,4.4608,4.4608,4.4608,4.4608,4.4608,4.4608,4.4608,4.4608,4.4608,4.4608,4.4608,4.4608,4.5034,4.5763,4.6505,4.7252,4.7988,4.8723,4.8994,4.8994,3.9406,3.9406,3.9406,3.9406,3.9406,3.9406,3.9406,3.9406,3.9406,3.9406,3.9406,3.9406,3.9406,3.9406,3.9406,3.9406,3.9406,3.9406,3.9406,3.9406,3.9406,3.9406,3.9406,3.9406,3.9406,3.9406,3.9406,3.9406,3.9406,3.9406,3.9406,3.9406,3.9406,3.9406,3.9406,3.9406,3.9406,3.9406,3.9406,3.9406,3.9406,3.9406,3.9406,3.9406,3.9406,3.9406,3.9406,3.9406,3.9406,3.9406,3.9406,3.9406,3.9406,3.9406,3.9406,3.9406,3.9637,3.9979,4.0298,4.182,4.3299,4.3299,4.3962,4.4608,4.4608,4.4608,4.4608,4.4608,4.4608,4.4608,4.4608,4.4608,4.4356,4.3625,4.4111,4.4339,4.3608,4.4128,4.4608,4.4608,4.4608,4.4608,4.4608,4.4608,4.4608,4.4608,4.4608,4.4608,4.4608,4.4608,4.4608,4.4608,4.4608,4.4608,4.4608,4.4608,4.4608,4.4608,4.4608,4.4608,4.4608,4.4608,4.4608,4.4608,4.4608,4.4608,4.4608,4.4608,4.477,4.5142,4.6336,4.6972,4.7361,4.8562,4.8994,4.8994,3.9406,3.9406,3.9406,3.9406,3.9406,3.9406,3.9406,3.9406,3.9406,3.9406,3.9406,3.9406,3.9406,3.9406,3.9406,3.9406,3.9406,3.9406,3.9406,3.9406,3.9406,3.9406,3.9406,3.9406,3.9406,3.9406,3.9406,3.9406,3.9406,3.9406,3.9406,3.9406,3.9406,3.9406,3.9406,3.9406,3.9406,3.9406,3.9406,3.9406,3.9406,3.9406,3.9406,3.9406,3.9406,3.9406,3.9406,3.9406,3.9406,3.9406,3.9406,3.9406,3.9406,3.9406,3.9406,3.9406,3.9406,3.9406,3.9406,4.0909,4.2552,4.2824,4.3545,4.426,4.4535,4.4608,4.4608,4.4608,4.4608,4.4608,4.4608,4.4608,4.4608,4.4608,4.4608,4.4608,4.4608,4.4608,4.4608,4.4608,4.4608,4.4608,4.4608,4.4608,4.4608,4.4608,4.4608,4.4608,4.4608,4.4608,4.4608,4.4608,4.4608,4.4608,4.4608,4.4608,4.4608,4.4608,4.4608,4.4608,4.4608,4.4608,4.4608,4.4608,4.4608,4.4608,4.4608,4.4608,4.4608,4.4743,4.6218,4.6793,4.6979,4.846,4.8994,4.8994,3.9406,3.9406,3.9406,3.9406,3.9406,3.9406,3.9406,3.9406,3.9406,3.9406,3.9406,3.9406,3.9406,3.9406,3.9406,3.9406,3.9406,3.9406,3.9406,3.9406,3.9406,3.9406,3.9406,3.9406,3.9406,3.9406,3.9406,3.9406,3.9406,3.9406,3.9406,3.9406,3.9406,3.9406,3.9406,3.9406,3.9406,3.9406,3.9406,3.9406,3.9406,3.9406,3.9406,3.9406,3.9406,3.9406,3.9406,3.9406,3.9406,3.9406,3.9406,3.9406,3.9406,3.9406,3.9406,3.9406,3.9406,3.9406,3.9406,4.0034,4.0895,4.1788,4.2653,4.3532,4.4398,4.4608,4.4608,4.4608,4.4608,4.4608,4.4608,4.4608,4.4608,4.4608,4.4608,4.4608,4.4608,4.4608,4.4608,4.4608,4.4608,4.4608,4.4608,4.4608,4.4608,4.4608,4.4608,4.4608,4.4608,4.4608,4.4608,4.4608,4.4608,4.4608,4.4608,4.4608,4.4608,4.4608,4.4608,4.4608,4.4608,4.4608,4.4608,4.4608,4.4608,4.4608,4.4608,4.4608,4.4608,4.4743,4.6218,4.6793,4.6979,4.846,4.8994,4.8994,3.9406,3.9406,3.9406,3.9406,3.9406,3.9406,3.9406,3.9406,3.9406,3.9406,3.9406,3.9406,3.9406,3.9406,3.9406,3.9406,3.9406,3.9406,3.9406,3.9406,3.9406,3.9406,3.9406,3.9406,3.9406,3.9406,3.9406,3.9406,3.9406,3.9406,3.9406,3.9406,3.9406,3.9406,3.9406,3.9406,3.9406,3.9406,3.9406,3.9406,3.9406,3.9406,3.9406,3.9406,3.9406,3.9406,3.9406,3.9406,3.9406,3.9406,3.9406,3.9406,3.9406,3.9406,3.9406,3.9406,3.9406,3.9406,3.9406,3.9592,4.0133,4.1633,4.2653,4.3532,4.4398,4.4608,4.4608,4.4608,4.4608,4.4608,4.4608,4.4608,4.4608,4.4608,4.4608,4.4608,4.4608,4.4608,4.4608,4.4608,4.4608,4.4608,4.4608,4.4608,4.4608,4.4608,4.4608,4.4608,4.4608,4.4608,4.4608,4.4608,4.4608,4.4608,4.4608,4.4608,4.4608,4.4608,4.4608,4.4608,4.4608,4.4608,4.4608,4.4608,4.4608,4.4608,4.4608,4.4608,4.4608,4.4743,4.6218,4.6793,4.6979,4.846,4.8994,4.8994,3.8773,3.9113,3.9406,3.9406,3.9406,3.9406,3.9406,3.9406,3.9406,3.9406,3.9406,3.9406,3.9406,3.9406,3.9406,3.9406,3.9406,3.9406,3.9406,3.9406,3.9406,3.9406,3.9406,3.9406,3.9406,3.9406,3.9406,3.9406,3.9406,3.9406,3.9406,3.9406,3.9406,3.9406,3.9406,3.9406,3.9406,3.9406,3.9406,3.9406,3.9406,3.9406,3.9406,3.9406,3.9406,3.9406,3.9406,3.9406,3.9406,3.9406,3.9406,3.9406,3.9406,3.9406,3.9406,3.9406,3.9406,3.9406,3.9406,3.9406,3.9737,4.113,4.2141,4.3,4.388,4.4355,4.4608,4.4608,4.4608,4.4608,4.4608,4.4608,4.4608,4.4608,4.4608,4.4608,4.4608,4.4608,4.4608,4.4608,4.4608,4.4608,4.4608,4.4608,4.4608,4.4608,4.4608,4.4608,4.4608,4.4608,4.4608,4.4608,4.4608,4.4608,4.4608,4.4608,4.4608,4.4608,4.4608,4.4608,4.4608,4.4608,4.4608,4.4608,4.4608,4.4608,4.4608,4.4608,4.4608,4.4743,4.6218,4.6793,4.6979,4.846,4.8994,4.8994,3.7653,3.8518,3.9265,3.9265,3.9337,3.9406,3.9406,3.9406,3.9406,3.9406,3.9406,3.9406,3.9406,3.9406,3.9406,3.9406,3.9406,3.9406,3.9406,3.9406,3.9406,3.9406,3.9406,3.9406,3.9406,3.9406,3.9406,3.9406,3.9406,3.9406,3.9406,3.9406,3.9406,3.9406,3.9406,3.9406,3.9406,3.9406,3.9406,3.9406,3.9406,3.9406,3.9406,3.9406,3.9406,3.9406,3.9406,3.9406,3.9406,3.9406,3.9406,3.9406,3.9406,3.9406,3.9406,3.9406,3.9406,3.9406,3.9406,3.9406,3.9592,4.0395,4.1296,4.2229,4.3101,4.396,4.4608,4.4608,4.4608,4.4608,4.4608,4.4608,4.4608,4.4608,4.4608,4.4608,4.4608,4.4608,4.4608,4.4608,4.4608,4.4608,4.4608,4.4608,4.4608,4.4608,4.4608,4.4608,4.4608,4.4608,4.4608,4.4608,4.4608,4.4608,4.4608,4.4608,4.4608,4.4608,4.4608,4.4608,4.4608,4.4608,4.4608,4.4608,4.4608,4.4608,4.4608,4.4608,4.4608,4.4743,4.6218,4.6793,4.6979,4.846,4.8994,4.8994,3.6546,3.741,3.8144,3.8144,3.8837,3.9406,3.9406,3.9406,3.9406,3.9406,3.9406,3.9406,3.9406,3.9406,3.9406,3.9406,3.9406,3.9406,3.9406,3.9406,3.9406,3.9406,3.9406,3.9406,3.9406,3.9406,3.9406,3.9406,3.9406,3.9406,3.9406,3.9406,3.9406,3.9406,3.9406,3.9406,3.9406,3.9406,3.9406,3.9406,3.9406,3.9406,3.9406,3.9406,3.9406,3.9406,3.9406,3.9406,3.9406,3.9406,3.9406,3.9406,3.9406,3.9406,3.9406,3.9406,3.9406,3.9406,3.9406,3.9406,3.9445,3.9637,4.0859,4.2229,4.3101,4.396,4.4608,4.4608,4.4608,4.4608,4.4608,4.4608,4.4608,4.4608,4.4608,4.4608,4.4608,4.4608,4.4608,4.4608,4.4608,4.4608,4.4608,4.4608,4.4608,4.4608,4.4608,4.4608,4.4608,4.4608,4.4608,4.4608,4.4608,4.4608,4.4608,4.4608,4.4608,4.4608,4.4608,4.4608,4.4608,4.4608,4.4608,4.4608,4.4608,4.4608,4.4608,4.4608,4.4608,4.4743,4.6218,4.6793,4.6979,4.846,4.8994,4.8994,3.5477,3.6324,3.7195,3.7715,3.8262,3.881,3.9319,3.9406,3.9406,3.9406,3.9406,3.9406,3.9406,3.9406,3.9406,3.9406,3.9406,3.9406,3.9406,3.9406,3.9406,3.9406,3.9406,3.9406,3.9406,3.9406,3.9406,3.9406,3.9406,3.9406,3.9406,3.9406,3.9406,3.9406,3.9406,3.9406,3.9406,3.9406,3.9406,3.9406,3.9406,3.9406,3.9406,3.9406,3.9406,3.9406,3.9406,3.9406,3.9406,3.9406,3.9406,3.9406,3.9406,3.9406,3.9406,3.9406,3.9406,3.9406,3.9406,3.9406,3.9508,3.9926,4.102,4.2117,4.2575,4.368,4.4608,4.4608,4.4608,4.4608,4.4608,4.4608,4.4608,4.4608,4.4608,4.4608,4.4608,4.4608,4.4608,4.4608,4.4608,4.4608,4.4608,4.4608,4.4608,4.4608,4.4608,4.4608,4.4608,4.4608,4.4608,4.4608,4.4608,4.4608,4.4608,4.4608,4.4608,4.4608,4.4608,4.4608,4.4608,4.4608,4.4608,4.4608,4.4608,4.4608,4.4608,4.4608,4.4608,4.4743,4.6218,4.6793,4.6979,4.846,4.8994,4.8994,3.4428,3.5248,3.6221,3.7103,3.7548,3.8097,3.8989,3.9283,3.9406,3.9406,3.9406,3.9406,3.9406,3.9406,3.9406,3.9406,3.9406,3.9406,3.9406,3.9406,3.9406,3.9406,3.9406,3.9406,3.9406,3.9406,3.9406,3.9406,3.9406,3.9406,3.9406,3.9406,3.9406,3.9406,3.9406,3.9406,3.9406,3.9406,3.9406,3.9406,3.9406,3.9406,3.9406,3.9406,3.9406,3.9406,3.9406,3.9406,3.9406,3.9406,3.9406,3.9406,3.9406,3.9406,3.9406,3.9406,3.9406,3.9406,3.9406,3.9406,3.961,4.0483,4.1362,4.2037,4.2189,4.3471,4.4608,4.4608,4.4608,4.4608,4.4608,4.4608,4.4608,4.4608,4.4608,4.4608,4.4608,4.4608,4.4608,4.4608,4.4608,4.4608,4.4608,4.4608,4.4608,4.4608,4.4608,4.4608,4.4608,4.4608,4.4608,4.4608,4.4608,4.4608,4.4608,4.4608,4.4608,4.4608,4.4608,4.4608,4.4608,4.4608,4.4608,4.4608,4.4608,4.4608,4.4608,4.4608,4.4668,4.4922,4.6268,4.6878,4.7141,4.8511,4.8994,4.8994,3.3313,3.417,3.4948,3.5091,3.6607,3.7847,3.7994,3.88,3.9406,3.9406,3.9406,3.9406,3.9406,3.9406,3.9406,3.9406,3.9406,3.9406,3.9406,3.9406,3.9406,3.9406,3.9406,3.9406,3.9406,3.9406,3.9406,3.9406,3.9406,3.9406,3.9406,3.9406,3.9406,3.9406,3.9406,3.9406,3.9406,3.9406,3.9406,3.9406,3.9406,3.9406,3.9406,3.9406,3.9406,3.9406,3.9406,3.9406,3.9406,3.9406,3.9406,3.9406,3.9406,3.9406,3.9406,3.9406,3.9406,3.9406,3.9406,3.9406,3.961,4.0483,4.1362,4.2197,4.2947,4.3887,4.4608,4.4608,4.4608,4.4608,4.4608,4.4608,4.4608,4.4608,4.4608,4.4608,4.4608,4.4608,4.4608,4.4608,4.4608,4.4608,4.4608,4.4608,4.4608,4.4608,4.4608,4.4608,4.4608,4.4608,4.4608,4.4608,4.4608,4.4608,4.4608,4.4608,4.4608,4.4608,4.4608,4.4608,4.4608,4.4608,4.4608,4.4608,4.4608,4.4608,4.4608,4.4608,4.499,4.5635,4.6471,4.7192,4.7853,4.8689,4.8994,4.8994,3.3102,3.3471,3.4005,3.4591,3.5453,3.646,3.7629,3.8205,3.8718,3.9319,3.9406,3.9406,3.9406,3.9406,3.9406,3.9406,3.9406,3.9406,3.9406,3.9406,3.9406,3.9406,3.9406,3.9406,3.9406,3.9406,3.9406,3.9406,3.9406,3.9406,3.9406,3.9406,3.9406,3.9406,3.9406,3.9406,3.9406,3.9406,3.9406,3.9406,3.9406,3.9406,3.9406,3.9406,3.9406,3.9406,3.9406,3.9406,3.9406,3.9406,3.9406,3.9406,3.9406,3.9406,3.9406,3.9406,3.9406,3.9406,3.9406,3.9406,3.961,4.0483,4.1362,4.2229,4.3101,4.396,4.4608,4.4608,4.4608,4.4608,4.4608,4.4608,4.4608,4.4608,4.4608,4.4608,4.4608,4.4608,4.4608,4.4608,4.4608,4.4608,4.4608,4.4608,4.4608,4.4608,4.4608,4.4608,4.4608,4.4608,4.4608,4.4608,4.4608,4.4608,4.4608,4.4608,4.4608,4.4608,4.4608,4.4608,4.4608,4.4608,4.4608,4.4608,4.4608,4.4608,4.4608,4.4608,4.5034,4.5763,4.6505,4.7496,4.8546,4.8875,4.8994,4.8994]},{"header":{"parameterUnit":"m.s-1","parameterCategory":1,"la1":30.6,"la2":28.766,"lo1":-90.7593,"lo2":-88.6598,"dy":0.0162,"dx":0.0183,"nx":116,"ny":114,"refTime":"2023-11-13T18:00:00:Z","depth":0,"parameterNumber":3,"parameterNumberName":"V-component_of_WINDS"},"data":[0.0,0.0,0.0,0.0,0.0,0.0,0.0,0.0,0.0,0.0,0.0,0.0,0.0,0.0,0.0,0.0,0.0,0.0,0.0,0.0,0.0,0.0,0.0,0.0,0.0,0.0,0.0,0.0,0.0,0.0,0.0,0.0,0.0,0.0,0.0,0.0,0.0,0.0,0.0,0.0,0.0,0.0,0.0,0.0,0.0,0.0,0.0,0.0,0.0,0.0,0.0,0.0,0.0,0.0,0.0,0.0,0.0,0.0,0.0,0.0,0.0,0.0,0.0,0.0,0.0,0.0,0.0,0.0,0.0,0.0,0.0,0.0,0.0,0.0,0.0,0.0,0.0,0.0,0.0,0.0,0.0,0.0,0.0,0.0,0.0,0.0,0.0,0.0,0.0,0.0,0.0,0.0,0.0,0.0,0.0,0.0,0.0,0.0,0.0,0.0,0.0,0.0,0.0,0.0,0.0,0.0,0.0,0.0,0.0,0.0,0.0,0.0,0.0,0.0,0.0,0.0,0.0,0.0,0.0,0.0,0.0,0.0,0.0,0.0,0.0,0.0,0.0,0.0,0.0,0.0,0.0,0.0,0.0,0.0,0.0,0.0,0.0,0.0,0.0,0.0,0.0,0.0,0.0,0.0,0.0,0.0,0.0,0.0,0.0,0.0,0.0,0.0,0.0,0.0,0.0,0.0,0.0,0.0,0.0,0.0,0.0,0.0,0.0,0.0,0.0,0.0,0.0,0.0,0.0,0.0,0.0,0.0,0.0,0.0,0.0,0.0,0.0,0.0,0.0,0.0,0.0,0.0,0.0,0.0,0.0,0.0,0.0,0.0,0.0,0.0,0.0,0.0,0.0,0.0,0.0,0.0,0.0,0.0,0.0,0.0,0.0,0.0,0.0,0.0,0.0,0.0,0.0,0.0,0.0,0.0,0.0,0.0,0.0,0.0,0.0,0.0,0.0,0.0,0.0,0.0,0.0,0.0,0.0,0.0,0.0,0.0,0.0,0.0,0.0,0.0,0.0,0.0,0.0,0.0,0.0,0.0,0.0,0.0,0.0,0.0,0.0,0.0,0.0,0.0,0.0,0.0,0.0,0.0,0.0,0.0,0.0,0.0,0.0,0.0,0.0,0.0,0.0,0.0,0.0,0.0,0.0,0.0,0.0,0.0,0.0,0.0,0.0,0.0,0.0,0.0,0.0,0.0,0.0,0.0,0.0,0.0,0.0,0.0,0.0,0.0,0.0,0.0,0.0,0.0,0.0,0.0,0.0,0.0,0.0,0.0,0.0,0.0,0.0,0.0,0.0,0.0,0.0,0.0,0.0,0.0,0.0,0.0,0.0,0.0,0.0,0.0,0.0,0.0,0.0,0.0,0.0,0.0,0.0,0.0,0.0,0.0,0.0,0.0,0.0,0.0,0.0,0.0,0.0,0.0,0.0,0.0,0.0,0.0,0.0,0.0,0.0,0.0,0.0,0.0,0.0,0.0,0.0,0.0,0.0,0.0,0.0,0.0,0.0,0.0,0.0,0.0,0.0,0.0,0.0,0.0,0.0,0.0,0.0,0.0,0.0,0.0,0.0,0.0,0.0,0.0,0.0,0.0,0.0,0.0,0.0,0.0,0.0,0.0,0.0,0.0,0.0,0.0,0.0,0.0,0.0,0.0,0.0,0.0,0.0,0.0,0.0,0.0,0.0,0.0,0.0,0.0,0.0,0.0,0.0,0.0,0.0,0.0,0.0,0.0,0.0,0.0,0.0,0.0,0.0,0.0,0.0,0.0,0.0,0.0,0.0,0.0,0.0,0.0,0.0,0.0,0.0,0.0,0.0,0.0,0.0,0.0,0.0,0.0,0.0,0.0,0.0,0.0,0.0,0.0,0.0,0.0,0.0,0.0,0.0,0.0,0.0,0.0,0.0,0.0,0.0,0.0,0.0,0.0,0.0,0.0,0.0,0.0,0.0,0.0,0.0,0.0,0.0,0.0,0.0,0.0,0.0,0.0,0.0,0.0,0.0,0.0,0.0,0.0,0.0,0.0,0.0,0.0,0.0,0.0,0.0,0.0,0.0,0.0,0.0,0.0,0.0,0.0,0.0,0.0,0.0,0.0,0.0,0.0,0.0,0.0,0.0,0.0,0.0,0.0,0.0,0.0,0.0,0.0,0.0,0.0,0.0,0.0,0.0,0.0,0.0,0.0,0.0,0.0,0.0,0.0,0.0,0.0,0.0,0.0,0.0,0.0,0.0,0.0,0.0,0.0,0.0,0.0,0.0,0.0,0.0,0.0,0.0,0.0,0.0,0.0,0.0,0.0,0.0,0.0,0.0,0.0,0.0,0.0,0.0,0.0,0.0,0.0,0.0,0.0,0.0,0.0,0.0,0.0,0.0,0.0,0.0,0.0,0.0,0.0,0.0,0.0,0.0,0.0,0.0,0.0,0.0,0.0,0.0,0.0,0.0,0.0,0.0,0.0,0.0,0.0,0.0,0.0,0.0,0.0,0.0,0.0,0.0,0.0,0.0,0.0,0.0,0.0,0.0,0.0,0.0,0.0,0.0,0.0,0.0,0.0,0.0,0.0,0.0,0.0,0.0,0.0,0.0,0.0,0.0,0.0,0.0,0.0,0.0,0.0,0.0,0.0,0.0,0.0,0.0,0.0,0.0,0.0,0.0,0.0,0.0,0.0,0.0,0.0,0.0,0.0,0.0,0.0,0.0,0.0,0.0,0.0,0.0,0.0,0.0,0.0,0.0,0.0,0.0,0.0,0.0,0.0,0.0,0.0,0.0,0.0,0.0,0.0,0.0,0.0,0.0,0.0,0.0,0.0,0.0,0.0,0.0,0.0,0.0,0.0,0.0,0.0,0.0,0.0,0.0,0.0,0.0,0.0,0.0,0.0,0.0,0.0,0.0,0.0,0.0,0.0,0.0,0.0,0.0,0.0,0.0,0.0,0.0,0.0,0.0,0.0,0.0,0.0,0.0,0.0,0.0,0.0,0.0,0.0,0.0,0.0,0.0,0.0,0.0,0.0,0.0,0.0,0.0,0.0,0.0,0.0,0.0,0.0,0.0,0.0,0.0,0.0,0.0,0.0,0.0,0.0,0.0,0.0,0.0,0.0,0.0,0.0,0.0,0.0,0.0,0.0,0.0,0.0,0.0,0.0,0.0,0.0,0.0,0.0,0.0,0.0,0.0,0.0,0.0,0.0,0.0,0.0,0.0,0.0,0.0,0.0,0.0,0.0,0.0,0.0,0.0,0.0,0.0,0.0,0.0,0.0,0.0,0.0,0.0,0.0,0.0,0.0,0.0,0.0,0.0,0.0,0.0,0.0,0.0,0.0,0.0,0.0,0.0,0.0,0.0,0.0,0.0,0.0,0.0,0.0,0.0,0.0,0.0,0.0,0.0,0.0,0.0,0.0,0.0,0.0,0.0,0.0,0.0,0.0,0.0,0.0,0.0,0.0,0.0,0.0,0.0,0.0,0.0,0.0,0.0,0.0,0.0,0.0,0.0,0.0,0.0,0.0,0.0,0.0,0.0,0.0,0.0,0.0,0.0,0.0,0.0,0.0,0.0,0.0,0.0,0.0,0.0,0.0,0.0,0.0,0.0,0.0,0.0,0.0,0.0,0.0,0.0,0.0,0.0,0.0,0.0,0.0,0.0,0.0,0.0,0.0,0.0,0.0,0.0,0.0,0.0,0.0,0.0,0.0,0.0,0.0,0.0,0.0,0.0,0.0,0.0,0.0,0.0,0.0,0.0,0.0,0.0,0.0,0.0,0.0,0.0,0.0,0.0,0.0,0.0,0.0,0.0,0.0,0.0,0.0,0.0,0.0,0.0,0.0,0.0,0.0,0.0,0.0,0.0,0.0,0.0,0.0,0.0,0.0,0.0,0.0,0.0,0.0,0.0,0.0,0.0,0.0,0.0,0.0,0.0,0.0,0.0,0.0,0.0,0.0,0.0,0.0,0.0,0.0,0.0,0.0,0.0,0.0,0.0,0.0,0.0,0.0,0.0,0.0,0.0,0.0,0.0,0.0,0.0,0.0,0.0,0.0,0.0,0.0,0.0,0.0,0.0,0.0,0.0,0.0,0.0,0.0,0.0,0.0,0.0,0.0,0.0,0.0,0.0,0.0,0.0,0.0,0.0,0.0,0.0,0.0,0.0,0.0,0.0,0.0,0.0,0.0,0.0,0.0,0.0,0.0,0.0,0.0,0.0,0.0,0.0,0.0,0.0,0.0,0.0,0.0,0.0,0.0,0.0,0.0,0.0,0.0,0.0,0.0,0.0,0.0,0.0,0.0,0.0,0.0,0.0,0.0,0.0,0.0,0.0,0.0,0.0,0.0,0.0,0.0,0.0,0.0,0.0,0.0,0.0,0.0,0.0,0.0,0.0,0.0,0.0,0.0,0.0,0.0,0.0,0.0,0.0,0.0,0.0,0.0,0.0,0.0,0.0,0.0,0.0,0.0,0.0,0.0,0.0,0.0,0.0,0.0,0.0,0.0,0.0,0.0,0.0,0.0,0.0,0.0,0.0,0.0,0.0,0.0,0.0,0.0,0.0,0.0,0.0,0.0,0.0,0.0,0.0,0.0,0.0,0.0,0.0,0.0,0.0,0.0,0.0,0.0,0.0,0.0,0.0,0.0,0.0,0.0,0.0,0.0,0.0,0.0,0.0,0.0,0.0,0.0,0.0,0.0,0.0,0.0,0.0,0.0,0.0,0.0,0.0,0.0,0.0,0.0,0.0,0.0,0.0,0.0,0.0,0.0,0.0,0.0,0.0,0.0,0.0,0.0,0.0,0.0,0.0,0.0,0.0,0.0,0.0,0.0,0.0,0.0,0.0,0.0,0.0,0.0,0.0,0.0,0.0,0.0,0.0,0.0,0.0,0.0,0.0,0.0,0.0,0.0,0.0,0.0,0.0,0.0,0.0,0.0,0.0,0.0,0.0,0.0,0.0,0.0,0.0,0.0,0.0,0.0,0.0,0.0,0.0,0.0,0.0,0.0,0.0,0.0,0.0,0.0,0.0,0.0,0.0,0.0,0.0,0.0,0.0,0.0,0.0,0.0,0.0,0.0,0.0,0.0,0.0,0.0,0.0,0.0,0.0,0.0,0.0,0.0,0.0,0.0,0.0,0.0,0.0,0.0,0.0,0.0,0.0,0.0,0.0,0.0,0.0,0.0,0.0,0.0,0.0,0.0,0.0,0.0,0.0,0.0,0.0,0.0,0.0,0.0,0.0,0.0,0.0,0.0,0.0,0.0,0.0,0.0,0.0,0.0,0.0,0.0,0.0,0.0,0.0,0.0,0.0,0.0,0.0,0.0,0.0,0.0,0.0,0.0,0.0,0.0,0.0,0.0,0.0,0.0,0.0,0.0,0.0,0.0,0.0,0.0,0.0,0.0,0.0,0.0,0.0,0.0,0.0,0.0,0.0,0.0,0.0,0.0,0.0,0.0,0.0,0.0,0.0,0.0,0.0,0.0,0.0,0.0,0.0,0.0,0.0,0.0,0.0,0.0,0.0,0.0,0.0,0.0,0.0,0.0,0.0,0.0,0.0,0.0,0.0,0.0,0.0,0.0,0.0,0.0,0.0,0.0,0.0,0.0,0.0,0.0,0.0,0.0,0.0,0.0,0.0,0.0,0.0,0.0,0.0,0.0,0.0,0.0,0.0,0.0,0.0,0.0,0.0,0.0,0.0,0.0,0.0,0.0,0.0,0.0,0.0,0.0,0.0,0.0,0.0,0.0,0.0,0.0,0.0,0.0,0.0,0.0,0.0,0.0,0.0,0.0,0.0,0.0,0.0,0.0,0.0,0.0,0.0,0.0,0.0,0.0,0.0,0.0,0.0,0.0,0.0,0.0,0.0,0.0,0.0,0.0,0.0,0.0,0.0,0.0,0.0,0.0,0.0,0.0,0.0,0.0,0.0,0.0,0.0,0.0,0.0,0.0,0.0,0.0,0.0,0.0,0.0,0.0,0.0,0.0,0.0,0.0,0.0,0.0,0.0,0.0,0.0,0.0,0.0,0.0,0.0,0.0,0.0,0.0,0.0,0.0,0.0,0.0,0.0,0.0,0.0,0.0,0.0,0.0,0.0,0.0,0.8687,0.8344,0.0,0.0,0.0,0.0,0.0,0.0,0.0,0.0,0.0,0.0,0.0,0.0,0.0,0.0,0.0,0.0,0.0,0.0,0.0,0.0,0.0,0.0,0.0,1.1145,1.1059,1.1125,1.113,1.1073,1.0934,0.0,0.0,0.0,0.0,0.0,1.1881,1.189,1.2289,1.3107,1.3356,1.3903,1.4715,1.4052,1.3857,1.4061,0.0,0.0,0.0,0.0,0.0,0.0,0.0,0.0,0.0,0.0,0.0,0.0,0.0,0.0,0.0,0.0,0.0,0.0,0.0,0.0,0.0,0.0,0.0,0.0,0.0,0.0,0.0,0.0,0.0,0.0,0.0,0.0,0.0,0.0,0.0,0.0,0.0,0.0,0.0,0.0,0.0,0.0,0.0,0.0,0.0,0.0,0.0,0.0,0.0,0.0,0.0,0.0,0.0,0.0,0.0,0.0,0.0,0.0,0.0,0.0,0.0,0.0,0.0,0.0,0.0,0.0,0.0,0.0,0.0,0.0,0.9992,0.9562,0.0,0.0,0.0,0.0,0.0,0.0,0.0,0.0,0.0,0.0,0.0,0.0,0.0,0.0,0.0,0.0,0.0,0.0,0.0,0.0,0.0,1.1593,1.1484,1.1491,1.1585,1.1772,1.179,1.1773,1.1713,1.1702,0.0,0.0,0.0,1.1896,1.2311,1.2389,1.2983,1.4097,1.4494,1.5115,1.5961,1.5961,1.5784,1.543,1.4752,0.0,0.0,0.0,0.0,0.0,0.0,0.0,0.0,0.0,0.0,0.0,0.0,0.0,0.0,0.0,0.0,0.0,0.0,0.0,0.0,0.0,0.0,0.0,0.0,0.0,0.0,0.0,0.0,0.0,0.0,0.0,0.0,0.0,0.0,0.0,0.0,0.0,0.0,0.0,0.0,0.0,0.0,0.0,0.0,0.0,0.0,0.0,0.0,0.0,0.0,0.0,0.0,0.0,0.0,0.0,0.0,0.0,0.0,0.0,0.0,0.0,0.0,0.0,1.2215,1.2352,1.2048,1.2773,1.325,1.341,1.1464,1.1105,1.1824,1.129,0.0,0.0,0.0,0.0,0.0,0.0,0.0,0.0,0.0,0.0,0.0,0.0,0.0,0.0,0.0,0.0,0.0,0.0,0.0,1.1766,1.1745,1.1855,1.2087,1.252,1.2549,1.243,1.2139,1.2116,1.2116,1.2116,1.2116,1.2338,1.2795,1.3154,1.3584,1.4097,1.6018,1.7375,1.8178,1.8178,1.8149,1.8022,1.6512,1.6219,1.6809,0.0,0.0,0.0,0.0,0.0,0.0,0.0,0.0,0.0,0.0,0.0,0.0,0.0,0.0,0.0,0.0,0.0,0.0,0.0,0.0,0.0,0.0,0.0,0.0,0.0,0.0,0.0,0.0,0.0,0.0,0.0,0.0,0.0,0.0,0.0,0.0,0.0,0.0,0.0,0.0,0.0,1.1627,1.195,0.0,0.0,0.0,0.0,0.0,0.0,0.0,0.0,0.0,0.0,0.0,0.0,0.0,1.2799,1.2833,1.3614,1.3761,1.3272,1.4178,1.4579,1.4531,1.4637,1.4714,1.4747,1.4445,0.0,1.3301,1.3048,0.0,0.0,0.0,0.0,0.0,0.0,0.0,0.0,0.0,0.0,0.0,0.0,0.0,0.0,0.0,0.0,0.0,0.0,0.0,0.0,0.0,1.2933,1.3331,1.3834,1.4086,1.406,1.3688,1.3412,1.3168,1.2941,1.2713,1.2799,1.3229,1.3893,1.4912,1.6295,1.7744,1.8651,1.8995,1.8995,1.9113,1.9308,1.8556,1.8033,1.7656,1.7058,0.0,0.0,0.0,0.0,0.0,0.0,0.0,0.0,0.0,0.0,0.0,0.0,0.0,0.0,0.0,0.0,0.0,0.0,0.0,0.0,0.0,0.0,0.0,0.0,0.0,0.0,0.0,0.0,0.0,0.0,0.0,0.0,0.0,0.0,0.0,0.0,0.0,0.0,0.0,1.1583,1.2236,1.2547,1.2476,1.2176,0.0,0.0,0.0,0.0,0.0,0.0,0.0,0.0,0.0,1.3907,1.3938,1.4021,1.4206,1.4593,1.4648,1.4393,1.4796,1.4997,1.5004,1.516,1.5215,1.5229,1.5378,1.5228,1.4793,1.4215,1.3572,1.2932,0.0,0.0,0.0,0.0,1.2825,1.2904,0.0,0.0,0.0,0.0,0.0,0.0,0.0,0.0,0.0,0.0,0.0,0.0,1.3236,1.3842,1.4404,1.4911,1.5339,1.5456,1.5151,1.4805,1.4485,1.4186,1.3659,1.3685,1.4303,1.5176,1.6504,1.8331,1.9091,1.9511,1.9628,1.9628,1.9794,2.0078,2.0078,1.9551,1.8649,1.8364,1.7665,1.6717,0.0,0.0,0.0,0.0,0.0,0.0,0.0,0.0,0.0,0.0,0.0,0.0,0.0,0.0,0.0,0.0,0.0,0.0,0.0,0.0,0.0,0.0,0.0,0.0,0.0,0.0,0.0,0.0,0.0,0.0,0.0,0.0,0.0,0.0,0.0,0.0,0.0,1.2206,1.2726,1.2982,1.3002,1.2834,0.0,0.0,0.0,0.0,0.0,0.0,1.353,1.3961,1.4362,1.4719,1.4732,1.4872,1.5195,1.5195,1.5195,1.5195,1.5195,1.5195,1.5213,1.5404,1.5493,1.5506,1.5708,1.5808,1.5755,1.5101,1.4672,1.4391,1.3973,1.3758,1.3674,1.3772,1.3909,1.4013,0.0,0.0,0.0,0.0,0.0,0.0,0.0,0.0,0.0,0.0,0.0,1.3124,1.3283,1.4172,1.4914,1.5327,1.5804,1.6063,1.6034,1.6014,1.5987,1.5975,1.5165,1.5273,1.6512,1.7386,1.8301,1.9228,1.9659,2.0107,2.0527,2.0527,2.0556,2.0556,2.0556,2.0537,2.041,1.9578,1.8944,1.8364,1.715,0.0,0.0,0.0,0.0,0.0,0.0,0.0,0.0,0.0,0.0,0.0,0.0,0.0,0.0,0.0,0.0,0.0,0.0,0.0,0.0,0.0,0.0,0.0,0.0,0.0,0.0,0.0,0.0,0.0,0.0,0.0,0.0,0.0,0.0,0.0,0.0,0.0,0.0,1.3553,1.3553,0.0,0.0,0.0,0.0,1.3965,1.4025,1.4172,1.4421,1.4461,1.4752,1.5337,1.5351,1.5491,1.5761,1.5761,1.5761,1.5761,1.5761,1.5761,1.5761,1.5763,1.5781,1.5781,1.5783,1.5808,1.5801,1.5743,1.558,1.5267,1.4626,1.4578,1.4865,1.4506,1.4757,1.5339,0.0,0.0,0.0,0.0,0.0,1.2104,1.2104,1.2173,1.2373,1.276,1.3062,1.3587,1.4555,1.5245,1.5921,1.6629,1.7078,1.7205,1.6958,1.6938,1.6975,1.7057,1.6397,1.6625,1.7896,1.8517,1.9257,2.0146,2.0283,2.0439,2.0605,2.0605,2.0605,2.0605,2.0605,2.0605,2.0576,2.0273,1.9726,1.9005,1.8564,1.7637,0.0,0.0,0.0,0.0,0.0,0.0,0.0,0.0,0.0,0.0,0.0,0.0,0.0,0.0,0.0,0.0,0.0,0.0,0.0,0.0,0.0,0.0,0.0,0.0,0.0,0.0,0.0,0.0,0.0,0.0,0.0,0.0,0.0,0.0,0.0,0.0,0.0,1.3918,1.4074,0.0,1.3938,1.4074,1.4227,1.4345,1.4716,1.4977,1.5066,1.5241,1.5435,1.5653,1.566,1.5701,1.5808,1.6007,1.6124,1.6119,1.6306,1.6381,1.6381,1.6381,1.6381,1.6381,1.6381,1.6381,1.6381,1.6381,1.6088,1.5656,1.5628,1.5713,1.5838,1.5872,1.6026,1.6253,0.0,0.0,0.0,1.2104,1.2104,1.2104,1.2104,1.2206,1.2484,1.3025,1.3469,1.416,1.5275,1.608,1.6772,1.735,1.7764,1.7941,1.7804,1.7849,1.796,1.8154,1.7925,1.8109,1.882,1.9433,2.0028,2.0605,2.0605,2.0605,2.0595,2.0742,2.0732,2.0615,2.0742,2.0723,2.0605,2.0605,2.0273,1.9688,1.9171,1.8592,1.7851,0.0,0.0,0.0,0.0,0.0,0.0,0.0,0.0,0.0,0.0,0.0,0.0,0.0,0.0,0.0,0.0,0.0,0.0,0.0,0.0,0.0,0.0,0.0,0.0,0.0,0.0,0.0,0.0,0.0,0.0,0.0,0.0,0.0,0.0,1.3745,1.4229,1.4229,1.4496,1.4596,1.4424,1.4649,1.4845,1.4928,1.5313,1.5526,1.5526,1.5701,1.5848,1.5967,1.5967,1.6013,1.6102,1.6319,1.6432,1.6444,1.6613,1.6707,1.6707,1.6707,1.6707,1.6707,1.6707,1.6707,1.6707,1.6707,1.6461,1.6134,1.6358,1.6432,1.6452,1.6633,1.6707,1.6707,0.0,1.224,1.2109,1.2104,1.2104,1.2104,1.2104,1.2233,1.2506,1.3046,1.4,1.483,1.5383,1.6609,1.7409,1.7419,1.7773,1.8175,1.8559,1.8704,1.8943,1.9295,1.9716,1.9765,1.9354,2.0175,2.0615,2.0615,2.0615,2.0635,2.0644,2.1045,2.1015,2.0654,2.1054,2.1016,2.0644,2.0625,2.0615,2.0489,1.8987,1.8751,1.9015,0.0,0.0,0.0,0.0,0.0,0.0,0.0,0.0,0.0,0.0,0.0,0.0,0.0,0.0,0.0,0.0,0.0,0.0,0.0,0.0,0.0,0.0,0.0,0.0,0.0,0.0,0.0,0.0,0.0,0.0,0.0,0.0,0.0,1.3683,1.4143,1.4532,1.4532,1.4821,1.5024,1.5024,1.5255,1.552,1.5801,1.5821,1.5821,1.5828,1.5828,1.5973,1.6304,1.631,1.6444,1.67,1.6714,1.672,1.672,1.6714,1.6734,1.6734,1.6734,1.6734,1.6734,1.6734,1.6734,1.6734,1.6734,1.6734,1.6734,1.6727,1.672,1.672,1.6734,1.6734,1.6734,0.0,1.2364,1.2267,1.2131,1.2104,1.2104,1.2104,1.2504,1.2994,1.3546,1.4536,1.5479,1.6256,1.6981,1.7518,1.7812,1.7939,1.8048,1.8157,1.8472,1.8981,1.9707,2.0593,2.0801,2.0253,2.0478,2.0732,2.1045,2.1045,2.1211,2.1544,2.1661,2.1651,2.1553,2.1661,2.1651,2.1524,2.1181,2.1045,2.0966,2.0265,1.987,1.951,0.0,0.0,0.0,0.0,0.0,0.0,0.0,0.0,0.0,0.0,0.0,0.0,0.0,0.0,0.0,0.0,0.0,0.0,0.0,0.0,0.0,0.0,0.0,0.0,0.0,0.0,0.0,0.0,0.0,0.0,0.0,1.4152,1.4645,1.4301,1.4772,1.5157,1.5157,1.5411,1.558,1.558,1.5653,1.582,1.6138,1.6165,1.6251,1.6441,1.6454,1.6487,1.6599,1.6587,1.6627,1.6707,1.6946,1.7066,1.7053,1.7267,1.7354,1.7354,1.7354,1.7354,1.7354,1.7354,1.7354,1.7354,1.7354,1.7354,1.7334,1.7133,1.7066,1.7093,1.7281,1.7354,1.7354,0.0,1.2404,1.2334,1.214,1.2104,1.2104,1.2104,1.2609,1.3189,1.373,1.4879,1.5921,1.6619,1.7267,1.7752,1.798,1.7999,1.8069,1.8244,1.8654,1.9291,2.0201,2.0611,2.0755,2.0595,2.0772,2.0977,2.12,2.1396,2.163,2.1905,2.207,2.206,2.1915,2.2081,2.2061,2.1876,2.1611,2.1376,2.1181,2.0947,2.0586,1.9994,1.8153,1.8061,1.8732,1.7361,1.6866,1.682,1.6599,0.0,0.0,0.0,0.0,0.0,0.0,0.0,0.0,0.0,0.0,0.0,0.0,0.0,0.0,0.0,0.0,0.0,0.0,0.0,0.0,0.0,0.0,0.0,0.0,1.483,1.5264,1.5068,1.5353,1.5566,1.5566,1.5708,1.5867,1.6005,1.6012,1.6139,1.6445,1.6465,1.6539,1.6688,1.6707,1.676,1.6913,1.6919,1.696,1.7087,1.7274,1.7367,1.7374,1.7528,1.7595,1.7595,1.7595,1.7595,1.7595,1.7595,1.7595,1.7595,1.7595,1.7595,1.7575,0.0,0.0,0.0,0.0,1.7595,1.7595,1.2544,1.2431,1.2356,1.2145,1.2104,1.2104,1.2104,1.2644,1.3265,1.3793,1.5156,1.6248,1.6733,1.7513,1.7999,1.7999,1.8106,1.8356,1.8752,1.9147,1.9742,2.0564,2.0196,2.0166,2.0586,2.0996,2.123,2.1278,2.1738,2.1993,2.2042,2.2401,2.2383,2.2041,2.2401,2.2362,2.2032,2.1993,2.1699,2.1278,2.122,2.0957,2.0401,1.8617,1.879,1.9828,1.8704,1.7722,1.6904,1.6563,0.0,0.0,0.0,0.0,0.0,0.0,0.0,0.0,0.0,0.0,0.0,0.0,0.0,0.0,0.0,0.0,0.0,0.0,0.0,0.0,0.0,0.0,0.0,0.0,1.5471,1.5808,1.5808,1.5835,1.5855,1.5855,1.5855,1.5999,1.6305,1.6351,1.6452,1.6746,1.676,1.6767,1.6807,1.6807,0.0,0.0,0.0,1.736,1.7608,1.7595,1.7595,1.7595,1.7595,1.7595,1.7595,1.7595,1.7595,1.7595,1.7595,1.7595,1.7595,1.7595,1.7595,1.7595,1.7595,1.7595,1.7595,1.7595,1.7595,1.7595,1.2723,1.2643,1.2524,1.2163,1.2104,1.2104,1.2104,1.289,1.3687,1.4212,1.5566,1.6677,1.7218,1.7697,1.7999,1.7999,1.8794,1.9463,1.9856,1.9827,1.9862,2.0053,2.0321,2.0507,2.0605,2.0996,2.1386,2.1758,2.2177,2.2558,2.2868,2.2946,2.2936,2.2868,2.2946,2.2936,2.2848,2.2528,2.2138,2.1728,2.1347,2.0957,2.0469,1.924,1.9477,2.0323,1.9238,1.9252,1.9745,1.9302,1.8198,1.6913,1.6322,1.532,0.0,0.0,0.0,0.0,0.0,0.0,0.0,0.0,0.0,0.0,0.0,0.0,0.0,0.0,0.0,0.0,0.0,0.0,0.0,1.5269,1.5593,1.5808,1.5808,1.6039,1.6198,1.6198,1.6198,1.6312,1.6593,1.662,1.6759,1.7079,1.7099,1.7206,1.7415,1.7428,1.7455,1.7521,1.7528,1.7548,1.7595,1.7595,1.7595,1.7595,1.7595,0.0,1.7595,1.7595,1.7595,1.7595,1.7595,1.7595,1.7595,1.7595,1.7595,1.7595,1.7595,1.7595,1.7595,1.7595,1.7595,1.7595,0.0,1.27,1.2569,1.2172,1.2104,1.2104,1.2104,1.2948,1.3785,1.4329,1.5676,1.6736,1.7054,1.767,1.7956,1.7721,1.8596,1.9427,2.0112,1.9993,2.0,2.0234,2.0468,2.0605,2.0605,2.1221,2.167,2.1895,2.2498,2.2897,2.3091,2.3091,2.3091,2.3091,2.3091,2.3091,2.3092,2.2887,2.2567,2.2168,2.1728,2.1289,2.082,2.0087,2.0128,2.0527,1.9991,1.9805,1.9766,1.9529,1.8603,1.7516,1.7267,1.6293,1.5255,0.0,0.0,0.0,0.0,0.0,0.0,0.0,0.0,0.0,0.0,0.0,0.0,0.0,0.0,1.4183,1.4663,0.0,1.5289,1.5553,1.5708,1.5855,1.6032,1.6191,1.6297,1.6297,1.6412,1.6619,1.6926,1.6953,1.7073,1.738,1.7407,1.7454,1.7588,1.7595,1.7595,1.7595,1.7595,1.7595,1.7595,1.7595,1.7595,1.7595,1.7595,1.7595,1.7595,1.7595,1.7595,1.7595,1.7595,1.7595,1.7595,1.7595,1.7595,1.7595,1.7595,1.7595,1.7595,1.7595,1.7595,1.7595,0.0,1.27,1.2569,1.2172,1.2104,1.2104,1.2104,1.2882,1.3677,1.4301,1.5512,1.6418,1.6729,1.7398,1.7813,1.7833,1.8351,1.9163,2.0323,2.0168,2.0195,2.0576,2.0605,2.0605,2.0605,2.1358,2.1817,2.1895,2.2636,2.3013,2.3091,2.3091,2.3091,2.3091,2.3091,2.3091,2.3091,2.3091,2.2869,2.2459,2.206,2.1611,2.1152,2.0742,2.0605,2.0605,2.0605,2.004,1.9283,1.9066,1.824,1.7313,1.7371,1.6707,1.5949,1.616,1.555,0.0,0.0,0.0,0.0,0.0,0.0,0.0,0.0,1.439,1.4429,1.4701,1.4754,1.4901,1.5391,1.5478,1.5566,1.5853,1.59,1.6007,1.6325,1.6431,1.6471,1.6471,1.6678,1.692,1.7247,1.7286,1.7367,1.7575,1.7595,1.7595,1.7595,1.7595,1.7595,1.7595,1.7595,1.7595,1.7595,1.7595,1.7595,1.7595,1.7595,1.7595,1.7595,1.7595,1.7595,1.7595,1.7595,1.7595,1.7595,1.7595,1.7595,1.7595,1.7595,1.7595,1.7595,1.7595,1.7595,1.7595,0.0,1.27,1.2569,1.2172,1.2104,1.2104,1.2104,1.2594,1.3304,1.4194,1.4874,1.5614,1.6521,1.671,1.7471,1.9197,1.8903,1.9407,2.1308,2.0862,2.0556,2.0605,2.0605,2.0605,2.0605,2.1055,2.1474,2.1895,2.2353,2.2752,2.3091,2.3091,2.3091,2.3091,2.3091,2.3091,2.3091,2.3091,2.2869,2.2459,2.206,2.1611,2.1152,2.0742,2.0605,2.0605,2.0605,2.0527,2.0284,1.9323,1.824,1.7133,1.6216,1.5604,1.5264,1.5515,1.5917,1.6149,1.5621,1.4947,1.4407,1.4479,1.4411,1.4491,0.0,1.5084,1.5048,1.5558,1.565,1.5681,1.5741,1.5761,1.5867,1.6185,1.6238,1.6338,1.6613,1.6913,1.7105,1.7105,1.7132,1.7253,1.7535,1.7561,1.7575,1.7608,1.7595,1.7595,1.7595,1.7595,1.7595,1.7595,1.7595,1.7595,1.7595,1.7595,1.7595,1.7595,1.7595,1.7595,1.7595,1.7595,1.7595,1.7595,1.7595,1.7595,1.7595,1.7595,1.7595,1.7595,1.7595,1.7595,1.7595,1.7595,1.7595,1.7595,0.0,0.0,1.2569,1.2172,1.2104,1.2104,1.2104,1.2565,1.3245,1.4232,1.4794,1.539,1.6172,1.6245,1.6915,1.8579,1.8445,1.8965,2.0614,2.0389,2.0312,2.0595,2.0605,2.0605,2.0605,2.0996,2.1308,2.1484,2.2177,2.2597,2.2762,2.2995,2.3091,2.3091,2.3091,2.2965,2.2752,2.2752,2.2519,2.2109,2.1669,2.1376,2.1152,2.0742,2.0622,2.0652,2.0604,2.0605,0.0,2.0079,1.9619,1.9136,1.869,1.7685,1.6761,1.7227,1.684,1.6246,1.6147,1.6013,1.5858,1.5684,1.5604,1.5636,1.5917,1.5903,1.5805,1.5804,1.5808,1.5808,1.5808,1.596,1.6138,1.6277,1.6425,1.6639,1.6953,1.7113,1.7266,1.7408,1.7428,1.7474,1.7582,1.7595,1.7595,1.7595,1.7595,1.7595,1.7595,1.7595,1.7595,1.7595,1.7595,1.7595,1.7595,1.7595,1.7595,1.7595,1.7595,1.7595,1.7595,1.7595,1.7595,1.7595,1.7595,1.7595,1.7595,1.7595,1.7595,1.7595,1.7595,1.7595,1.7595,1.7595,1.7595,1.7595,0.0,0.0,0.0,1.2172,1.2104,1.2104,1.2104,1.2426,1.2992,1.3872,1.439,1.496,1.5664,1.5751,1.6325,1.7782,1.7962,1.8603,2.0005,2.0107,2.0259,2.0595,2.0605,2.0605,2.0605,2.0898,2.1093,2.12,2.1835,2.2216,2.2333,2.2625,2.2771,2.2771,2.2771,2.2606,2.2333,2.2333,2.2168,2.1856,2.1396,2.12,2.1162,2.0771,2.066,2.069,2.0645,2.0561,2.0415,2.0119,1.9918,1.9726,1.9322,1.8386,1.7551,1.808,1.7548,1.6794,1.6782,1.6832,1.6813,1.6486,1.6316,1.6229,1.6229,1.6229,1.6153,1.5856,1.5808,1.5828,1.5927,1.6138,1.6351,1.6523,1.6718,1.6959,1.7267,1.7307,1.7387,1.7582,1.7595,1.7595,1.7595,1.7595,1.7595,1.7595,1.7595,1.7595,1.7595,1.7595,1.7595,1.7595,1.7662,1.7709,1.7709,1.7802,1.7849,1.7849,1.7849,1.7849,1.7849,1.7849,1.7849,1.7849,1.7849,1.7849,1.7849,1.7849,1.7849,1.7849,1.7849,1.7849,1.7849,1.7849,1.7796,1.7709,0.0,0.0,0.0,0.0,1.2104,1.2104,1.2104,1.2111,1.2318,1.287,1.335,1.4017,1.5016,1.5125,1.575,1.7286,1.7782,1.8603,2.0001,2.0459,2.0646,2.0605,2.0605,2.0605,2.0605,2.0605,2.0811,2.12,2.123,2.1464,2.1925,2.1934,2.1934,2.1934,2.1934,2.1924,2.1925,2.1925,2.1905,2.1856,2.1396,2.12,2.1162,2.0825,2.0697,2.0696,2.0698,2.0442,1.9959,1.8912,1.8221,1.754,1.6104,1.6057,1.6608,1.6945,1.775,1.8363,1.7663,1.7194,1.6824,1.6475,1.6106,1.5818,1.5818,1.5818,1.5807,1.5801,1.5808,1.5907,1.6218,1.629,1.6484,1.7079,1.7186,1.7273,1.7555,1.7595,1.7582,1.7595,1.7595,1.7595,1.7595,1.7595,1.7595,1.7595,1.7595,1.7595,1.7595,1.7595,1.7595,1.7595,1.7849,1.7989,1.7989,1.8303,1.8478,1.8478,1.8478,1.8478,1.8478,1.8478,1.8478,1.8478,1.8478,1.8478,1.8478,1.8478,1.8478,1.8478,1.8478,1.8478,1.8478,1.8478,1.827,1.7989,0.0,0.0,0.0,0.0,0.0,1.2104,1.2104,1.2104,1.2399,1.3252,1.408,0.0,0.0,0.0,0.0,0.0,1.6817,1.7686,1.9136,1.9571,2.004,2.0646,2.0622,2.0605,2.0605,2.0605,2.0664,2.0801,2.1074,2.1278,2.1435,2.1748,2.1895,2.1895,2.1895,2.1728,2.1445,2.1445,2.1279,2.1026,2.0869,2.1036,2.1386,2.1275,2.1092,2.0901,0.0,2.0777,2.0529,1.9801,1.9448,1.9103,1.798,1.741,1.7237,1.7618,1.7797,1.7863,1.7893,1.7253,1.6486,1.6095,1.5893,1.5808,1.5808,1.5808,1.5808,1.5808,1.6397,1.6966,1.7083,1.7422,1.7753,1.7964,1.7697,1.7495,1.7595,1.7595,1.7595,1.7595,1.7595,1.7595,1.7595,1.7595,1.7595,1.7595,1.7595,1.7595,1.7595,1.7762,1.7862,1.7862,1.817,1.833,1.833,1.8437,1.8504,1.8504,1.8504,1.8504,1.8504,1.8504,1.8504,1.8504,1.8504,1.8504,1.8504,1.8504,1.8504,1.8504,1.8504,1.8504,1.8504,1.8504,1.8537,1.8576,0.0,0.0,0.0,0.0,0.0,0.0,0.0,0.0,0.0,0.0,0.0,0.0,0.0,0.0,0.0,0.0,0.0,1.7139,1.8438,1.9049,1.9708,2.0447,2.0438,2.0503,2.0702,2.0522,2.0602,2.0952,2.1003,2.1125,2.1313,2.14,2.1436,2.1436,2.1436,2.127,2.1006,2.1214,2.1154,2.0924,2.0956,2.1189,2.1497,2.1193,2.0944,0.0,2.0585,2.04,2.0161,1.977,1.9542,1.929,1.8507,1.811,1.7937,1.7918,1.7921,1.7862,1.7575,1.6956,1.63,1.5893,1.5808,1.5808,1.5808,1.5808,1.5808,1.5808,1.6617,1.7347,1.745,1.7858,1.832,1.8732,1.8472,1.8192,1.8049,1.8144,1.8086,1.7648,1.7595,1.7595,1.7595,1.7595,1.7595,1.7595,1.7689,1.7749,1.7749,1.8023,1.8176,1.8176,1.8477,1.8644,1.8644,1.8765,1.8818,1.8818,1.8818,1.8818,1.8818,1.8818,1.8818,1.8818,1.8818,1.8818,1.8818,1.8818,1.8818,1.8818,1.8818,1.8818,1.8818,1.8818,1.8932,1.9038,0.0,0.0,0.0,0.0,0.0,0.0,0.0,0.0,0.0,0.0,0.0,0.0,0.0,0.0,0.0,0.0,0.0,0.0,1.7873,1.8865,1.9608,2.0022,2.0077,2.0339,2.085,2.0392,2.061,2.1553,2.0987,2.0964,2.146,2.0874,2.0614,2.0614,2.0614,2.0614,2.0653,2.123,2.1449,2.1435,2.1501,2.1538,2.144,2.0614,2.0288,2.0221,1.9814,1.9369,1.8984,1.8871,1.8536,1.8084,1.7601,1.7967,1.8447,1.7767,1.8052,1.827,1.6823,1.6397,1.6275,1.59,1.5808,1.5808,1.5808,1.5808,1.5813,1.5835,1.6478,1.7135,1.7404,1.7684,1.8207,1.9295,1.9377,1.9171,1.8791,1.9065,1.8884,1.7747,1.7595,1.7595,1.7595,1.7595,1.7615,1.7615,1.7869,1.8016,1.8015,1.8336,1.8524,1.8524,1.8777,1.893,1.893,1.924,1.9395,1.9395,1.9395,1.9395,1.9395,1.9395,1.9395,1.9395,1.9395,1.9395,1.9395,1.9395,1.9395,1.9395,1.9395,1.9395,1.9395,1.9395,1.9395,1.9354,0.0,0.0,0.0,0.0,0.0,0.0,0.0,0.0,0.0,0.0,0.0,0.0,0.0,0.0,0.0,0.0,0.0,0.0,1.6919,1.785,1.8615,1.9112,1.975,2.0155,2.0299,2.0557,2.0829,2.108,2.0919,2.0919,2.1054,2.0901,2.0818,2.0818,2.0818,2.0818,2.0827,2.0991,2.0818,2.0463,2.0477,2.0533,2.0612,2.038,2.0108,1.9788,1.9284,1.9028,1.8973,1.9226,1.862,1.7633,1.6904,1.682,1.7017,1.7117,1.707,1.697,1.6878,1.6405,1.5939,1.5835,1.5808,1.5808,1.5808,1.5808,1.5895,1.6195,1.7083,1.7921,1.8243,1.8463,1.8708,1.9005,1.8488,1.8026,1.7918,1.7985,1.794,1.7641,1.7595,1.7595,1.7595,1.7595,1.7675,1.7882,1.7962,1.8116,1.8364,1.8643,1.8797,1.8797,1.9113,1.9266,1.9266,1.9361,1.9395,1.9395,1.9395,1.9395,1.9395,1.9395,1.9395,1.9395,1.9395,1.9395,1.9395,1.9395,1.9395,1.9395,1.9395,1.9395,1.9395,1.9395,1.9395,1.9388,0.0,0.0,0.0,0.0,0.0,0.0,0.0,0.0,0.0,0.0,0.0,0.0,0.0,0.0,0.0,0.0,0.0,0.0,0.0,1.7199,1.7968,1.8474,1.9191,1.9683,1.9918,2.0219,2.047,2.0676,2.0648,2.0637,2.0629,2.0364,2.0236,2.0236,2.0236,2.0236,2.0253,2.0518,2.0459,0.0,0.0,2.0284,2.0297,1.9844,1.9546,1.9257,1.8544,1.851,1.8719,1.8089,1.7535,1.7061,1.6766,1.6785,1.6937,1.6989,1.6836,1.6641,1.6513,1.6142,1.5808,1.5808,1.6221,1.6528,1.6157,1.6469,1.6808,1.6644,1.7409,1.8157,1.8351,1.8543,1.8801,1.9152,1.8753,1.8339,1.8148,1.8284,1.8193,1.7661,1.7595,1.7595,1.7595,1.8317,1.8897,1.9153,1.9182,1.9043,1.8692,1.9568,1.9791,1.9133,1.9293,1.9395,1.9395,1.9395,1.9714,2.0371,2.0371,2.0371,2.0371,2.0371,2.0004,1.9395,1.9395,1.9395,1.9395,1.9395,1.9395,1.9395,1.9395,1.9395,1.9395,1.9395,1.9395,1.9395,0.0,0.0,0.0,0.0,0.0,0.0,0.0,0.0,0.0,0.0,0.0,0.0,0.0,0.0,0.0,0.0,0.0,0.0,0.0,0.0,1.7404,1.788,1.8462,1.9046,1.9581,1.9661,1.9903,2.0312,2.0251,2.0221,2.0213,1.9682,1.9438,1.9438,1.9438,1.9438,1.947,2.0005,2.0188,2.012,2.0178,2.0163,1.9995,0.0,1.8786,1.8695,1.7872,1.79,1.8086,1.6443,1.6257,1.6731,1.6767,1.7052,1.7291,1.6939,1.6838,1.6686,1.5987,1.5808,1.5808,1.5808,1.6763,1.747,1.6603,1.733,1.797,1.7147,1.7529,1.8035,1.8083,1.8316,1.8694,1.9268,1.9345,1.9177,1.8705,1.9096,1.8969,1.7747,1.791,1.8068,1.7878,1.95,2.0674,2.0955,2.1206,2.0734,1.9334,2.0757,2.1016,1.9729,1.9685,1.9786,1.9982,1.9982,2.0637,2.189,2.189,2.189,2.189,2.189,2.1188,1.9967,1.9772,1.9685,1.9678,1.9482,1.9395,1.9395,1.9395,1.9395,1.9395,1.9395,1.9395,1.9395,0.0,0.0,0.0,0.0,0.0,0.0,0.0,0.0,0.0,0.0,0.0,0.0,0.0,0.0,0.0,0.0,0.0,0.0,0.0,0.0,0.0,1.6839,1.7756,1.8485,1.903,1.9478,1.9742,1.9822,1.9817,1.9799,1.9799,1.9701,1.9648,1.9648,1.9648,1.9648,1.9656,1.9761,1.9548,1.9137,1.9159,1.8894,1.8483,1.8311,0.0,0.0,1.8052,1.7301,1.6381,1.638,1.706,1.7644,1.6157,1.5881,1.61,1.6031,1.6009,1.5976,1.5835,1.5808,1.5808,1.5808,1.6763,1.747,1.6603,1.733,1.8051,1.7507,1.7506,1.7689,1.7971,1.8588,1.8856,1.8214,1.8648,1.8763,1.7929,1.8823,1.9085,1.7753,1.9607,2.0538,1.9369,2.0885,2.206,2.233,2.3844,2.3689,2.1262,2.1428,2.1472,2.1223,2.1223,2.1799,2.3019,2.3047,2.3173,2.3417,2.3417,2.3417,2.3417,2.3417,2.3277,2.2963,2.1742,2.1223,2.1116,1.9895,1.9395,1.9395,1.9395,1.9395,1.9395,1.9395,1.9395,1.9395,0.0,0.0,0.0,0.0,0.0,0.0,0.0,0.0,0.0,0.0,0.0,0.0,0.0,0.0,0.0,0.0,0.0,0.0,0.0,0.0,0.0,1.6232,1.7196,1.7863,1.8106,1.888,1.9149,1.8864,0.0,1.9137,1.8864,1.8864,1.8864,1.8864,1.8864,1.8864,1.8864,1.8864,1.8722,1.8485,1.8485,1.8329,1.8098,1.8098,0.0,0.0,1.8017,1.7621,1.6942,1.6612,1.7002,1.7363,1.5871,1.6039,1.6657,1.5991,1.6268,1.6638,1.5979,1.5808,1.5808,1.5808,1.6763,1.7466,1.6599,1.7501,1.8321,1.7643,1.764,1.7877,1.8286,1.8448,1.8511,1.8485,1.8384,1.8237,1.8,1.8906,1.9104,1.7759,2.0025,2.1156,1.9744,2.209,2.3752,2.3882,2.5831,2.5417,2.1784,2.16,2.1947,2.2716,2.2744,2.3081,2.3794,2.3794,2.4197,2.4999,2.4999,2.4999,2.4999,2.4999,2.4558,2.3724,2.2244,2.16,2.1486,2.0011,1.9395,1.9395,1.9395,1.9395,1.9395,1.9395,1.9395,1.9395,0.0,0.0,0.0,0.0,0.0,0.0,0.0,0.0,0.0,0.0,0.0,0.0,0.0,0.0,0.0,0.0,0.0,0.0,0.0,0.0,0.0,0.0,1.6659,1.7182,1.7396,0.0,0.0,1.8213,1.8561,0.0,0.0,0.0,0.0,0.0,1.8098,1.8098,1.8098,1.8098,1.8098,0.0,0.0,1.8098,1.8098,0.0,0.0,0.0,0.0,1.7859,1.7606,1.6757,1.6694,1.678,1.5812,1.6466,1.7371,1.6254,1.6765,1.7482,1.648,1.6015,1.5872,1.6145,1.6955,1.7487,1.6692,1.7701,1.857,1.7769,1.7825,1.8108,1.8484,1.8361,1.8408,1.9015,1.8574,1.8215,1.8418,1.945,1.954,1.7805,2.0538,2.1904,2.0213,2.332,2.5428,2.5428,2.692,2.6286,2.275,2.2251,2.2744,2.4253,2.4294,2.4433,2.476,2.476,2.5366,2.6581,2.6581,2.6581,2.6581,2.6581,2.5909,2.4663,2.2856,2.2074,2.1933,2.0134,1.9395,1.9395,1.9395,1.9395,1.9395,1.9395,1.9395,1.9395,0.0,0.0,0.0,0.0,0.0,0.0,0.0,0.0,0.0,0.0,0.0,0.0,0.0,0.0,0.0,0.0,0.0,0.0,0.0,0.0,0.0,0.0,0.0,0.0,0.0,0.0,0.0,1.8546,1.83,0.0,0.0,0.0,0.0,0.0,0.0,1.8098,1.8098,1.8098,0.0,0.0,0.0,0.0,0.0,0.0,0.0,0.0,0.0,1.7228,1.6855,1.6522,1.6428,1.6392,1.5981,1.6486,1.7134,1.6521,1.6995,1.7668,1.7563,1.668,1.6086,1.7236,1.761,1.7556,1.6978,1.7862,1.8639,1.8064,1.798,1.8014,1.8062,1.8671,1.9185,1.9189,1.9424,1.9452,1.8997,2.073,2.0942,1.7949,2.2177,2.4316,2.1765,2.4732,2.6823,2.6823,2.649,2.6127,2.5709,2.4364,2.4294,2.5845,2.5886,2.6531,2.787,2.7883,2.796,2.8094,2.8094,2.8094,2.8094,2.8094,2.8027,2.7736,2.4856,2.3599,2.3375,2.0551,1.9395,1.9395,1.9395,1.9395,1.9395,1.9395,1.9395,1.9395,0.0,0.0,0.0,0.0,0.0,0.0,0.0,0.0,0.0,0.0,0.0,0.0,0.0,0.0,0.0,0.0,0.0,0.0,0.0,0.0,0.0,0.0,0.0,0.0,0.0,0.0,1.7695,1.8302,1.8166,0.0,0.0,0.0,0.0,0.0,0.0,1.8098,1.8098,1.8098,0.0,0.0,0.0,0.0,0.0,0.0,0.0,0.0,0.0,0.0,1.6776,1.6679,1.6533,1.6413,1.6477,1.6986,1.736,1.6334,1.6966,1.7789,1.6823,1.6751,1.7072,1.7568,1.785,1.7958,1.7731,1.7852,1.7964,1.7743,1.7857,1.8163,1.8692,1.8875,1.9171,1.9867,1.9678,1.9454,1.9478,2.1133,2.16,1.9539,2.3075,2.4959,2.3089,2.5386,2.7214,2.7744,2.7557,2.7421,2.7421,2.6005,2.5868,2.738,2.7421,2.7713,2.8291,2.8304,2.8304,2.8304,2.8304,2.8304,2.8304,2.8304,2.8304,2.8121,2.5105,2.3794,2.3571,2.063,1.9395,1.9395,1.9395,1.9395,1.9395,1.9395,1.9395,1.9421,0.0,0.0,0.0,0.0,0.0,0.0,0.0,0.0,0.0,0.0,0.0,0.0,0.0,0.0,0.0,0.0,0.0,0.0,0.0,0.0,0.0,0.0,0.0,0.0,0.0,0.0,1.7519,1.8254,1.8145,1.8145,0.0,0.0,1.8098,1.8098,0.0,0.0,0.0,0.0,0.0,0.0,0.0,0.0,0.0,0.0,0.0,0.0,0.0,0.0,0.0,0.0,0.0,1.6407,1.6651,1.7095,1.7349,1.6398,1.7034,1.783,1.6788,1.7086,1.7796,1.8141,1.8214,1.82,1.8194,1.784,1.7493,1.7497,1.7767,1.8234,1.8983,1.8888,1.9097,2.0329,1.9898,1.9585,2.0114,2.1456,2.1901,2.0557,2.3429,2.4997,2.3622,2.562,2.7301,2.807,2.8236,2.8304,2.8304,2.7326,2.7222,2.8278,2.8304,2.8304,2.8304,2.8304,2.8304,2.8304,2.8304,2.8304,2.8304,2.8304,2.8304,2.8121,2.5105,2.3794,2.3571,2.063,1.9448,1.9522,1.9522,1.9561,1.9641,1.9641,1.9641,1.9667,0.0,0.0,0.0,0.0,0.0,0.0,0.0,0.0,0.0,0.0,0.0,0.0,0.0,0.0,0.0,0.0,0.0,0.0,0.0,0.0,0.0,0.0,0.0,0.0,0.0,0.0,0.0,1.8593,1.8261,1.8275,1.8587,1.8261,1.8098,1.8098,0.0,0.0,0.0,0.0,0.0,0.0,0.0,0.0,1.8098,0.0,0.0,0.0,0.0,0.0,0.0,0.0,0.0,0.0,0.0,1.6585,1.6909,1.689,1.7275,1.7772,1.8093,1.7937,1.7986,1.9177,1.8841,1.82,1.8194,1.7835,1.7505,1.7506,1.777,1.8135,1.8622,1.8701,1.9126,2.0388,2.02,2.0171,2.0966,2.1839,2.1905,2.0559,2.3187,2.455,2.3133,2.5437,2.7197,2.7663,2.8083,2.8304,2.8304,2.8291,2.8278,2.8304,2.8304,2.8304,2.8304,2.8304,2.8304,2.8304,2.8304,2.8304,2.8304,2.8304,2.8304,2.8121,2.5105,2.3794,2.3571,2.063,1.9568,1.98,1.98,1.9952,2.0197,2.0197,2.0197,2.0197,0.0,0.0,0.0,0.0,0.0,0.0,0.0,0.0,0.0,0.0,0.0,0.0,0.0,0.0,0.0,0.0,0.0,0.0,0.0,0.0,0.0,0.0,0.0,0.0,0.0,0.0,0.0,1.7775,1.7993,1.8145,1.8261,1.8145,1.8098,1.8098,1.8098,1.8098,0.0,0.0,0.0,0.0,0.0,1.8098,1.8098,0.0,0.0,0.0,0.0,0.0,0.0,0.0,0.0,0.0,0.0,0.0,0.0,1.665,1.6805,1.7072,1.6672,1.7491,1.8416,1.8241,1.858,1.8818,1.8317,1.7838,1.7424,1.7158,1.7395,1.7798,1.821,1.8737,1.9533,2.0801,2.1147,2.1457,2.1988,2.3036,2.3517,2.2805,2.4376,2.5465,2.534,2.634,2.7184,2.7653,2.807,2.8304,2.8304,2.8304,2.8304,2.8304,2.8304,2.8304,2.8304,2.8304,2.8304,2.8304,2.8304,2.8304,2.8304,2.8304,2.8304,2.8121,2.5105,2.392,2.3918,2.0914,1.9833,2.0064,2.0064,2.0124,2.0204,2.0204,2.0204,2.023,0.0,0.0,0.0,0.0,0.0,0.0,0.0,0.0,0.0,0.0,0.0,0.0,0.0,0.0,0.0,0.0,0.0,0.0,0.0,0.0,0.0,0.0,0.0,0.0,0.0,0.0,0.0,1.7407,1.7866,1.8201,1.8405,1.8611,1.86,1.8398,1.8398,1.8288,0.0,0.0,0.0,0.0,1.8036,1.799,1.7841,0.0,0.0,0.0,0.0,0.0,0.0,0.0,0.0,0.0,0.0,0.0,0.0,0.0,1.6291,1.6423,1.6113,1.7276,1.8453,1.7956,1.857,1.9108,1.8369,1.7843,1.7394,1.6982,1.722,1.7678,1.8221,1.8854,1.961,2.0566,2.1228,2.1835,2.2421,2.3308,2.3991,2.4259,2.499,2.5652,2.6091,2.6657,2.7116,2.7415,2.7972,2.8304,2.8304,2.8304,2.8304,2.8304,2.8304,2.8304,2.8304,2.8304,2.8304,2.8304,2.8304,2.8304,2.8304,2.8304,2.8304,2.8161,2.5731,2.4533,0.0,2.1642,2.0522,2.0386,2.0386,2.0452,2.0537,2.0537,2.0537,2.0573,0.0,0.0,0.0,0.0,0.0,0.0,0.0,0.0,0.0,0.0,0.0,0.0,0.0,0.0,0.0,0.0,0.0,0.0,0.0,0.0,0.0,0.0,0.0,0.0,0.0,1.5911,1.6405,1.7343,1.7889,1.8416,1.8908,1.9443,1.9413,1.8903,1.8903,1.8595,0.0,0.0,0.0,0.0,1.7917,1.7832,0.0,0.0,0.0,0.0,0.0,0.0,0.0,0.0,0.0,0.0,0.0,0.0,0.0,0.0,0.0,0.0,0.0,1.7231,1.8138,1.8081,1.864,1.9014,1.8286,1.777,0.0,1.6938,1.7175,1.7686,1.847,1.8986,1.9449,1.992,2.0754,2.1629,2.2469,2.2976,2.3739,2.5033,2.516,2.5305,2.5718,2.6508,2.6999,2.6999,2.7812,2.8304,2.8304,2.8304,2.8304,2.8304,2.8304,2.8304,2.8304,2.8304,2.8304,2.8304,2.8304,2.8304,2.8304,2.8304,2.8304,2.8224,2.6744,2.5492,2.4379,2.2834,2.1695,2.0903,2.0903,2.0994,2.1093,2.1093,2.1093,2.1093,0.0,0.0,0.0,0.0,0.0,0.0,0.0,0.0,0.0,0.0,0.0,0.0,0.0,0.0,0.0,0.0,0.0,0.0,0.0,0.0,0.0,0.0,0.0,0.0,0.0,1.6043,1.6547,1.6794,1.8086,1.8782,1.8908,1.9443,1.9413,1.8903,1.8903,0.0,0.0,0.0,0.0,0.0,1.8059,1.8029,0.0,0.0,0.0,0.0,1.6271,1.6255,0.0,0.0,0.0,0.0,0.0,0.0,0.0,0.0,1.5701,1.6141,1.5922,0.0,1.7522,1.6899,1.7528,1.8105,0.0,1.7119,1.6931,0.0,0.0,1.7188,1.7693,1.861,1.9649,2.0721,2.1933,2.2912,2.3429,2.4152,2.4992,2.5979,2.5781,2.574,2.6191,2.6696,2.6999,2.6999,2.7812,2.8304,2.8304,2.8304,2.8304,2.8304,2.8304,2.8304,2.8304,2.8304,2.8304,2.8304,2.8304,2.8304,2.8304,2.8304,2.8304,2.8224,2.6744,2.6234,2.6337,2.4829,2.3703,2.2927,2.2927,2.2175,2.1093,2.1093,2.1093,2.1093,0.0,0.0,0.0,0.0,0.0,0.0,0.0,0.0,0.0,0.0,0.0,0.0,0.0,0.0,0.0,0.0,0.0,0.0,0.0,0.0,0.0,0.0,0.0,0.0,0.0,1.5871,1.6387,1.6598,1.7907,1.8786,1.9282,1.978,1.9746,1.9248,1.8744,0.0,0.0,0.0,0.0,1.7799,1.8013,0.0,0.0,0.0,0.0,0.0,1.5967,1.5962,0.0,1.5701,1.64,1.7185,0.0,0.0,0.0,0.0,1.5315,1.5586,1.5679,1.6577,1.7395,1.6964,1.7569,1.8136,1.7579,1.7168,1.6891,0.0,0.0,1.714,1.7909,1.9052,2.012,2.0813,2.2353,2.3694,2.431,2.5151,2.5793,2.6042,2.6042,2.6042,2.6072,2.6638,2.6999,2.6999,2.7812,2.8304,2.8304,2.8304,2.8304,2.8304,2.8304,2.8304,2.8304,2.8304,2.8304,2.8304,2.8304,2.8304,2.8304,2.8304,2.8304,2.8264,2.7461,2.6995,2.6762,2.5963,2.4636,2.3095,2.3095,2.2202,2.0924,2.0924,2.0995,2.1093,0.0,0.0,0.0,0.0,0.0,0.0,0.0,0.0,0.0,0.0,0.0,0.0,0.0,0.0,0.0,0.0,0.0,0.0,0.0,0.0,0.0,0.0,0.0,0.0,1.5223,1.5745,1.6244,1.6719,1.7807,1.8806,1.9719,2.0262,2.0228,1.9661,1.8662,0.0,0.0,0.0,1.7866,1.7543,1.7939,0.0,0.0,0.0,0.0,0.0,0.0,0.0,0.0,1.5856,1.6553,1.7089,1.5834,0.0,0.0,0.0,0.0,0.0,1.5525,1.6545,1.7424,1.7413,1.801,1.85,1.8107,1.7481,0.0,0.0,0.0,1.7461,1.8667,1.988,2.0751,2.0943,2.262,2.4201,2.5072,2.5832,2.6172,2.5854,2.6091,2.6172,2.5845,2.6469,2.6931,2.6999,2.7744,2.8236,2.8304,2.8304,2.8304,2.8304,2.8304,2.8304,2.8304,2.8304,2.8304,2.8304,2.8304,2.8304,2.8304,2.8304,2.8304,2.8304,2.8304,2.7748,2.6877,2.6877,2.5415,2.3173,2.2944,2.2083,2.0941,2.0716,2.0768,2.0966,0.0,0.0,0.0,0.0,0.0,0.0,0.0,0.0,0.0,0.0,0.0,0.0,0.0,0.0,0.0,0.0,0.0,0.0,0.0,0.0,0.0,0.0,0.0,1.5309,1.5768,1.6249,1.6755,1.7279,1.8743,1.9539,1.9719,2.0653,2.0576,1.9673,1.9046,1.8488,0.0,1.8063,1.8059,1.8001,1.8063,0.0,0.0,0.0,0.0,0.0,0.0,0.0,0.0,1.495,1.571,1.6532,1.4499,0.0,0.0,0.0,0.0,0.0,1.5584,1.6369,1.7056,1.7008,1.7802,1.8422,1.7745,1.75,1.7332,0.0,1.7482,1.83,1.9574,2.0526,2.1457,2.2541,2.361,2.4606,2.5484,2.5715,2.5923,2.625,2.6013,2.5945,2.626,2.6406,2.6631,2.697,2.7493,2.7946,2.8271,2.8304,2.8304,2.8304,2.8304,2.8304,2.8304,2.8304,2.8304,2.8304,2.8304,2.8304,2.8304,2.8304,2.8304,2.8304,2.8304,2.839,2.8537,2.8537,2.7688,2.6267,2.502,2.3595,2.2071,2.0758,2.0297,2.0377,0.0,0.0,0.0,0.0,0.0,0.0,0.0,0.0,0.0,0.0,0.0,0.0,0.0,0.0,0.0,0.0,0.0,0.0,0.0,0.0,0.0,0.0,1.5527,1.5653,1.5888,1.6885,1.7538,1.7776,1.9076,1.9826,2.0083,2.0289,1.999,1.9236,1.8717,1.8194,1.7742,1.799,1.8098,1.8098,0.0,0.0,0.0,0.0,0.0,0.0,0.0,0.0,0.0,0.0,1.5643,1.6403,1.4434,0.0,0.0,0.0,0.0,0.0,1.5295,1.6298,1.7175,1.674,1.735,1.7971,1.7631,1.722,1.7018,1.7414,1.7848,1.867,2.0344,2.1538,2.2777,2.4258,2.4664,2.499,2.5608,2.5913,2.6062,2.6033,2.6062,2.6062,2.6033,2.625,2.6562,2.697,2.7425,2.7878,2.8285,2.8304,2.8304,2.8304,2.8304,2.8304,2.8304,2.8304,2.8304,2.8304,2.8304,2.8304,2.8304,2.8304,2.8304,2.8304,2.8304,2.8398,2.8584,2.8584,2.7778,2.6405,2.4899,2.345,2.2061,2.0696,2.0204,2.0224,0.0,0.0,0.0,0.0,0.0,0.0,0.0,0.0,0.0,0.0,0.0,0.0,0.0,0.0,0.0,0.0,0.0,0.0,0.0,0.0,1.5343,1.5883,1.6009,1.6169,1.641,1.752,1.8212,1.8471,1.9406,2.0113,2.0572,2.009,1.9592,1.9057,1.8538,1.8022,1.7583,1.7951,1.8098,1.8098,0.0,0.0,0.0,0.0,0.0,0.0,0.0,0.0,0.0,0.0,0.0,0.0,0.0,0.0,0.0,1.4463,1.4473,1.4887,1.518,1.6235,1.713,1.6641,1.7173,1.7736,1.7405,1.6979,1.6837,1.7491,1.8165,1.9154,2.0896,2.2625,2.4211,2.5481,2.5437,2.5352,2.5659,2.6013,2.6101,2.5745,2.6023,2.6091,2.5725,2.6033,2.6416,2.6823,2.7288,2.7721,2.8138,2.8255,2.8304,2.8304,2.8304,2.8304,2.8304,2.8304,2.8304,2.8304,2.8304,2.8304,2.8304,2.8304,2.8304,2.8304,2.8304,2.8304,2.8304,2.8304,2.7632,2.6463,2.4931,2.334,2.1757,2.0478,2.0044,2.0119,0.0,0.0,0.0,0.0,0.0,0.0,0.0,0.0,0.0,0.0,0.0,0.0,0.0,0.0,0.0,0.0,0.0,0.0,0.0,0.0,1.5343,1.5883,1.6318,1.6988,1.7915,1.8047,1.8593,1.9585,2.0102,2.0626,2.1132,2.0603,2.0102,1.9615,1.9087,1.8556,1.8047,1.8086,1.8098,1.8098,1.8098,0.0,0.0,0.0,0.0,0.0,0.0,0.0,0.0,0.0,0.0,0.0,0.0,0.0,1.5164,1.477,1.4889,1.5249,1.5643,1.6103,1.6535,1.6807,1.7699,1.8165,1.6794,1.6976,0.0,1.6639,1.83,2.0157,2.1122,2.3611,2.5559,2.5676,2.5676,2.5679,2.5696,2.5725,2.5735,2.5706,2.5725,2.5735,2.5706,2.5725,2.5942,2.6409,2.6826,2.7246,2.7712,2.8099,2.8304,2.8304,2.8304,2.8304,2.8304,2.8304,2.8304,2.8304,2.8304,2.8304,2.8304,2.8304,2.8304,2.8304,2.8304,2.8304,2.8304,2.8304,2.8237,2.7991,2.6504,2.4178,2.1452,1.9994,1.9614,1.9833,0.0,0.0,0.0,0.0,0.0,0.0,0.0,0.0,0.0,0.0,0.0,0.0,0.0,0.0,0.0,0.0,0.0,0.0,0.0,0.0,1.5343,1.5883,1.6352,1.6926,1.7656,1.8602,1.944,2.0136,2.0305,2.0496,2.0684,1.9849,1.9367,1.9179,1.8641,1.8288,1.8098,1.8098,1.7793,1.729,1.729,1.688,0.0,0.0,0.0,0.0,0.0,0.0,0.0,0.0,1.5487,1.5878,1.4654,1.5006,1.5718,1.4886,1.49,1.5325,1.5951,1.6256,1.6472,1.6821,1.7796,0.0,0.0,1.7738,1.814,1.8854,2.0204,2.1738,2.3361,2.4779,2.5706,2.5706,2.5706,2.5706,2.5706,2.5706,2.5706,2.5706,2.5706,2.5706,2.5706,2.5706,2.5893,2.637,2.6533,2.6946,2.7653,2.7839,2.8041,2.8281,2.8304,2.8304,2.8304,2.8304,2.8304,2.8304,2.8304,2.8304,2.8304,2.8304,2.8304,2.8304,2.8304,2.8304,2.8304,2.8304,2.8304,2.8147,2.6676,2.4258,2.1529,2.0973,2.0246,1.9547,0.0,0.0,0.0,0.0,0.0,0.0,0.0,0.0,0.0,0.0,0.0,0.0,0.0,0.0,0.0,0.0,0.0,0.0,0.0,0.0,1.5332,1.5883,1.6094,1.6646,1.7599,1.855,1.9326,1.9922,2.0102,2.0182,2.0163,1.9298,1.8984,1.9114,1.8409,1.8189,1.8341,1.8166,1.7757,1.7212,1.7212,1.6773,0.0,0.0,0.0,0.0,0.0,0.0,0.0,0.0,1.5537,1.5831,1.4856,1.5261,1.5954,1.52,1.5256,1.5745,1.6498,1.6638,1.6679,1.7178,1.811,1.8862,1.8788,1.8771,1.9051,2.0053,2.1289,2.2822,2.4905,2.5503,2.5706,2.5706,2.5706,2.5706,2.5706,2.5706,2.5706,2.5706,2.5706,2.5706,2.5706,2.5706,2.5823,2.615,2.6321,2.6653,2.7262,2.7545,2.7829,2.8099,2.8236,2.8304,2.8304,2.8304,2.8304,2.8304,2.8304,2.8304,2.8304,2.8304,2.8304,2.8304,2.8304,2.8304,2.8304,2.8304,2.8304,2.8107,2.6141,2.4114,2.2173,2.1252,2.0271,1.9395,0.0,0.0,0.0,0.0,0.0,0.0,0.0,0.0,0.0,0.0,0.0,0.0,0.0,0.0,0.0,0.0,0.0,0.0,0.0,1.5102,1.5326,1.5861,1.5508,1.6167,1.8027,1.7756,1.8022,1.8903,1.9424,1.9696,1.9684,1.9145,1.9179,1.9638,1.8581,1.8405,1.8857,1.8329,1.8098,1.8098,1.8091,1.7847,1.7374,0.0,0.0,0.0,0.0,0.0,0.0,0.0,1.5064,1.4652,1.5451,1.5698,1.5715,1.5791,1.6091,1.658,1.7373,1.7251,1.7111,1.7988,1.8764,1.9415,1.989,2.0004,1.9929,1.9616,2.118,2.325,2.5312,2.5706,2.5706,2.5706,2.5706,2.5706,2.5706,2.5706,2.5706,2.5706,2.5706,2.5706,2.5706,2.5706,2.5706,2.5706,2.613,2.6399,2.6399,2.7223,2.7682,2.7705,2.808,2.8304,2.8304,2.8304,2.8304,2.8304,2.8304,2.8304,2.8304,2.8304,2.8304,2.8304,2.8304,2.8304,2.8304,2.8304,2.8304,2.8,2.5008,2.3822,2.3453,2.0515,1.9424,1.9395,0.0,0.0,0.0,0.0,0.0,0.0,0.0,0.0,0.0,0.0,0.0,0.0,0.0,0.0,0.0,0.0,0.0,0.0,0.0,1.4966,1.4937,1.4582,1.5309,1.5853,1.6121,1.6628,1.7738,1.9455,1.9236,1.9145,1.9133,1.8972,1.8786,1.8581,0.0,1.8538,1.8329,1.8173,1.775,1.7216,1.7598,1.6885,1.5684,0.0,0.0,0.0,0.0,0.0,0.0,0.0,0.0,0.0,1.5629,1.602,1.643,1.6227,1.6437,1.6866,1.739,1.7047,1.6942,1.8569,1.921,1.9538,1.9911,2.0691,2.164,2.272,2.3439,2.4236,2.5479,2.5706,2.5706,2.5706,2.5706,2.5706,2.5706,2.5706,2.5706,2.5706,2.5706,2.5706,2.5706,2.5706,2.5706,2.5706,2.5835,2.6052,2.638,2.6656,2.7066,2.7673,2.7809,2.8011,2.8304,2.8304,2.8304,2.8304,2.8304,2.8304,2.8304,2.8304,2.8304,2.8304,2.8304,2.8304,2.8304,2.8304,2.8304,2.8211,2.7313,2.5663,2.3682,2.2822,2.1181,1.9395,0.0,0.0,0.0,0.0,0.0,0.0,0.0,0.0,0.0,0.0,0.0,0.0,0.0,0.0,0.0,0.0,0.0,0.0,0.0,0.0,1.442,1.4257,1.4822,1.5185,1.5303,1.6361,1.7432,1.8465,1.8352,1.8295,1.8306,1.8708,1.8832,1.8749,0.0,1.9046,1.8719,1.8508,1.8109,1.7668,1.7982,1.7332,1.6221,0.0,0.0,0.0,0.0,0.0,0.0,0.0,0.0,0.0,1.5619,1.5911,1.6385,1.6697,1.6631,1.6732,1.7961,1.7721,1.7476,1.9005,1.9544,1.9842,2.0393,2.1111,2.2172,2.402,2.4402,2.4676,2.554,2.5706,2.5706,2.5706,2.5706,2.5706,2.5706,2.5706,2.5706,2.5706,2.5706,2.5706,2.5706,2.5706,2.5706,2.5706,2.5706,2.5825,2.6101,2.6299,2.6643,2.7174,2.7529,2.7809,2.806,2.8216,2.8304,2.8304,2.8304,2.8304,2.8304,2.8304,2.8304,2.8304,2.8304,2.8304,2.8304,2.8304,2.8304,2.8237,2.7659,2.6313,2.4571,2.3375,2.1799,2.0184,0.0,0.0,0.0,0.0,0.0,0.0,0.0,0.0,0.0,0.0,1.2252,0.0,0.0,0.0,0.0,0.0,0.0,0.0,0.0,0.0,1.3981,1.4517,1.4321,1.4583,1.5395,1.6672,1.7089,1.6598,1.7141,1.7407,0.0,0.0,1.9202,1.9627,0.0,1.9673,1.9592,1.9046,1.8827,1.8827,1.8873,1.8592,1.8099,1.7759,0.0,0.0,0.0,0.0,0.0,0.0,0.0,0.0,1.5516,1.5598,1.5873,1.7083,1.6703,1.6406,1.8773,1.8831,1.8446,1.9457,1.9913,2.0345,2.1252,2.1418,2.1933,2.3986,2.4432,2.4725,2.555,2.5706,2.5706,2.5706,2.5706,2.5706,2.5706,2.5706,2.5706,2.5706,2.5706,2.5706,2.5706,2.5706,2.5706,2.5706,2.5706,2.5706,2.5706,2.6101,2.636,2.6399,2.7174,2.7594,2.7633,2.8041,2.8246,2.8246,2.8271,2.8304,2.8304,2.8304,2.8304,2.8304,2.8304,2.8304,2.8304,2.8304,2.8304,2.8171,2.6825,2.6223,2.575,2.2862,2.1728,2.1394,0.0,0.0,0.0,0.0,0.0,0.0,0.0,0.0,0.0,0.0,0.0,0.0,0.0,0.0,0.0,0.0,0.0,0.0,0.0,0.0,1.4582,1.4147,1.51,1.5864,1.6309,1.6613,1.6725,1.6598,1.7141,1.7407,0.0,0.0,0.0,1.9087,0.0,1.9466,1.9041,1.8497,1.8265,1.8306,1.8729,1.8402,1.7716,1.8361,1.7793,0.0,0.0,0.0,0.0,0.0,0.0,0.0,1.5843,1.5979,1.6116,1.6757,1.6781,1.6923,1.846,1.8545,1.8714,2.0848,2.1199,2.1326,2.2454,2.2268,2.2323,2.4054,2.4687,2.5109,2.561,2.5706,2.5706,2.5706,2.5706,2.5706,2.5706,2.5706,2.5706,2.5706,2.5706,2.5706,2.5706,2.5706,2.5706,2.5706,2.5706,2.5706,2.5706,2.5806,2.6023,2.6389,2.6585,2.6829,2.7148,2.7601,2.7829,2.7829,2.8148,2.8304,2.8304,2.8304,2.8304,2.8304,2.8304,2.8304,2.8304,2.8304,2.8304,2.8278,2.795,2.7128,2.5873,2.4017,2.2589,2.1394,0.0,0.0,0.0,0.0,0.0,0.0,0.0,0.0,0.0,0.0,0.0,0.0,0.0,0.0,0.0,0.0,0.0,0.0,0.0,0.0,0.0,0.0,1.5391,1.5975,1.5876,1.6124,1.6261,1.6261,1.6766,0.0,0.0,0.0,0.0,1.8926,0.0,1.9397,1.8873,1.8595,1.8485,1.8515,1.8793,1.8335,1.7549,1.8037,1.7356,1.6135,1.6135,0.0,0.0,0.0,0.0,0.0,0.0,0.0,1.5811,1.7016,1.6852,1.672,1.8771,1.9188,1.9472,2.119,2.1887,2.2184,2.2229,2.2708,2.3386,2.4227,2.4766,2.5217,2.563,2.5706,2.5706,2.5706,2.5706,2.5706,2.5706,2.5706,2.5706,2.5706,2.5706,2.5706,2.5706,2.5706,2.5706,2.5706,2.5706,2.5706,2.5706,2.5706,2.5803,2.6062,2.6279,2.6507,2.6709,2.7151,2.7487,2.7705,2.7917,2.8109,2.8304,2.8304,2.8304,2.8304,2.8304,2.8304,2.8304,2.8304,2.8304,2.8304,2.8304,2.7407,2.59,2.4364,2.287,2.1394,0.0,0.0,0.0,0.0,0.0,0.0,0.0,0.0,0.0,0.0,0.0,0.0,0.0,0.0,0.0,0.0,0.0,0.0,0.0,0.0,0.0,0.0,1.5517,1.5733,1.5366,1.5711,1.5993,1.6158,0.0,0.0,0.0,0.0,0.0,1.8926,0.0,1.9397,1.8903,1.8903,1.8846,1.8752,1.8752,1.8258,1.7499,1.7499,1.6726,1.5628,1.5548,1.5519,1.5505,1.5432,0.0,0.0,0.0,0.0,1.5515,1.7182,1.678,1.635,1.8951,1.9934,2.0426,2.138,2.2359,2.284,2.1834,2.3061,2.4402,2.4402,2.4824,2.5305,2.5637,2.5706,2.5706,2.5706,2.5706,2.5706,2.5706,2.5706,2.5706,2.5706,2.5706,2.5706,2.5706,2.5706,2.5706,2.5706,2.5706,2.5706,2.5706,2.5706,2.5706,2.5706,2.6072,2.6279,2.6279,2.6699,2.709,2.749,2.7637,2.7917,2.8304,2.8304,2.8304,2.8304,2.8304,2.8304,2.8304,2.8304,2.8304,2.8304,2.8304,2.7407,2.59,2.4364,2.287,2.1394,0.0,0.0,0.0,0.0,0.0,0.0,0.0,0.0,0.0,0.0,0.0,0.0,0.0,0.0,0.0,0.0,0.0,0.0,0.0,0.0,0.0,0.0,1.5837,1.6056,1.6392,1.6072,1.6331,0.0,0.0,0.0,0.0,0.0,0.0,1.8926,0.0,0.0,1.8903,1.8903,1.8637,1.8208,1.8208,1.7914,1.7505,1.7505,1.7125,1.6559,1.615,1.6013,1.5941,1.5541,1.5671,0.0,0.0,0.0,1.601,1.6265,1.625,1.6443,1.7881,1.9617,2.1333,2.2545,2.2982,2.3058,2.2895,2.3664,2.4402,2.4402,2.5045,2.564,2.5686,2.5706,2.5706,2.5706,2.5706,2.5706,2.5706,2.5706,2.5706,2.5706,2.5706,2.5706,2.5706,2.5706,2.5706,2.5706,2.5706,2.5706,2.5706,2.5706,2.5706,2.5706,2.5754,2.5784,2.5784,2.626,2.6516,2.6585,2.734,2.7917,2.8304,2.8304,2.8304,2.8304,2.8304,2.8304,2.8304,2.8304,2.8304,2.8304,2.8304,2.7407,2.59,2.4364,2.287,2.1394,0.0,0.0,0.0,0.0,0.0,0.0,0.0,0.0,0.0,0.0,0.0,0.0,0.0,0.0,0.0,1.1944,1.2303,1.2963,1.4056,1.4743,0.0,0.0,1.5354,1.5456,1.5482,1.5456,1.5934,0.0,0.0,0.0,0.0,1.8595,1.8767,0.0,0.0,0.0,0.0,1.8903,1.8584,1.8098,1.8098,1.799,1.7817,0.0,0.0,0.0,0.0,1.6099,1.6065,1.5856,1.5938,1.6056,1.5862,0.0,0.0,0.0,1.6118,1.6568,1.8531,2.0303,2.1825,2.2848,2.3091,2.317,2.3436,2.3952,2.4471,2.4738,2.5281,2.5706,2.5706,2.5706,2.5706,2.5706,2.5706,2.5706,2.5706,2.5706,2.5706,2.5706,2.5706,2.5706,2.5706,2.5706,2.5706,2.5706,2.5706,2.5706,2.5706,2.5706,2.5706,2.5706,2.5706,2.5706,2.5706,2.5903,2.6143,2.6409,2.7282,2.779,2.7962,2.8197,2.8304,2.8304,2.8304,2.8304,2.8304,2.8304,2.8304,2.8304,2.8304,2.7407,2.59,2.4364,2.287,2.1394,0.0,0.0,0.0,0.0,0.0,0.0,0.0,0.0,0.0,0.0,0.0,0.0,0.0,0.0,0.0,0.0,1.2006,1.268,1.3816,1.441,0.0,0.0,0.0,1.4852,1.4731,1.4966,0.0,0.0,0.0,0.0,1.8892,1.8623,1.9066,0.0,1.9937,0.0,0.0,0.0,0.0,0.0,1.8273,1.821,1.8071,0.0,0.0,0.0,0.0,1.6248,1.6234,1.6132,1.6173,1.6226,1.6124,1.6173,0.0,0.0,0.0,1.6459,1.8907,2.0234,2.1211,2.2479,2.2801,2.2967,2.3654,2.4111,2.4529,2.5004,2.543,2.5706,2.5706,2.5706,2.5706,2.5706,2.5706,2.5706,2.5706,2.5706,2.5706,2.5706,2.5706,2.5706,2.5706,2.5706,2.5706,2.5706,2.5706,2.5706,2.5706,2.5706,2.5706,2.5706,2.5706,2.5706,2.5706,2.5706,2.5945,2.6409,2.7066,2.7487,2.7702,2.8001,2.8207,2.8304,2.8304,2.8304,2.8304,2.8304,2.8304,2.8304,2.8304,2.7407,2.59,2.4364,2.287,2.1394,0.0,0.0,0.0,0.0,0.0,0.0,0.0,0.0,0.0,0.0,0.0,0.0,0.0,1.1583,1.1712,1.2043,1.1815,1.1891,1.2473,1.3235,1.3902,0.0,0.0,0.0,0.0,0.0,0.0,0.0,0.0,0.0,1.8903,1.9397,2.0163,2.1098,2.0592,1.9819,1.8931,0.0,0.0,0.0,0.0,1.8497,0.0,0.0,0.0,1.7849,1.6981,1.6668,1.6609,1.6232,1.6355,1.6597,1.6224,1.6365,1.651,0.0,0.0,0.0,1.808,1.8441,1.8818,2.1338,2.1963,2.2296,2.3517,2.4111,2.4529,2.5004,2.543,2.5706,2.5706,2.5706,2.5706,2.5706,2.5706,2.5706,2.5706,2.5706,2.5706,2.5706,2.5706,2.5706,2.5706,2.5706,2.5706,2.5706,2.5706,2.5706,2.5706,2.5706,2.5706,2.5706,2.5706,2.5706,2.5706,2.5706,2.5945,2.6399,2.6448,2.6897,2.7705,2.7712,2.7946,2.8304,2.8304,2.8304,2.8304,2.8304,2.8304,2.8304,2.8304,2.7407,2.59,2.4364,2.287,2.1394,0.0,0.0,0.0,0.0,0.0,0.0,0.0,0.0,0.0,0.0,0.0,0.0,0.0,1.2703,1.2672,1.2148,1.2297,1.252,1.2706,1.3267,1.3723,1.4003,0.0,0.0,0.0,0.0,0.0,0.0,0.0,1.6582,1.8393,1.8581,1.9234,2.0262,2.0711,2.0511,1.9861,1.9753,0.0,0.0,0.0,0.0,0.0,0.0,1.9697,1.9607,1.9116,1.853,1.7962,1.7776,1.7461,1.707,1.6631,1.6578,1.6531,1.5659,1.5796,1.6469,1.754,1.832,1.9121,2.0322,2.126,2.2148,2.3134,2.3893,2.4617,2.534,2.5601,2.5706,2.5706,2.5706,2.5706,2.5706,2.5706,2.5706,2.5706,2.5706,2.5706,2.5706,2.5706,2.5706,2.5706,2.5706,2.5706,2.5706,2.5706,2.5706,2.5706,2.5706,2.5706,2.5706,2.5706,2.5706,2.5706,2.5706,2.5774,2.5952,2.625,2.6565,2.6878,2.7438,2.7783,2.7936,2.8187,2.8304,2.8304,2.8304,2.8304,2.8304,2.8304,2.7407,2.59,2.4364,2.287,2.1394,0.0,0.0,0.0,0.0,0.0,0.0,0.0,0.0,0.0,0.0,0.0,0.0,0.0,0.0,1.3287,1.2535,1.2886,1.3096,1.3013,1.3385,1.3723,1.3992,1.426,0.0,0.0,0.0,0.0,0.0,0.0,0.0,0.0,1.8031,1.8662,1.973,2.04,2.0588,0.0,0.0,0.0,1.9896,0.0,0.0,2.0443,2.0801,2.1046,2.1157,2.0801,2.0112,1.9371,1.9126,1.8674,1.8125,1.7534,1.6949,1.6352,1.5618,1.592,1.6572,1.6879,1.7674,1.8624,1.9492,2.0371,2.1426,2.2976,2.3776,2.4481,2.5491,2.5706,2.5706,2.5706,2.5706,2.5706,2.5706,2.5706,2.5706,2.5706,2.5706,2.5706,2.5706,2.5706,2.5706,2.5706,2.5706,2.5706,2.5706,2.5706,2.5706,2.5706,2.5706,2.5706,2.5706,2.5706,2.5706,2.5706,2.5706,2.5706,2.5706,2.6023,2.625,2.6419,2.7132,2.7555,2.7712,2.8128,2.8304,2.8304,2.8304,2.8304,2.8251,2.7753,2.6956,2.5845,2.38,2.2442,2.1394,0.0,0.0,0.0,0.0,0.0,0.0,0.0,0.0,0.0,0.0,0.0,0.0,0.0,0.0,0.0,1.33,1.3495,1.3508,1.3245,1.3466,1.3844,1.4384,1.4407,0.0,0.0,1.5102,0.0,0.0,0.0,0.0,0.0,0.0,1.8662,1.9684,1.9696,1.9953,2.0381,0.0,2.0385,2.0422,2.0186,2.0475,2.112,2.1921,2.2289,2.2344,2.183,2.1313,2.0775,2.0159,1.9951,1.9765,1.887,0.0,0.0,0.0,0.0,0.0,0.0,0.0,0.0,1.8818,1.9267,2.0068,2.3028,2.3742,2.4141,2.5394,2.5686,2.5706,2.5706,2.5706,2.5706,2.5706,2.5706,2.5706,2.5706,2.5706,2.5706,2.5706,2.5706,2.5706,2.5706,2.5706,2.5706,2.5706,2.5706,2.5706,2.5706,2.5706,2.5706,2.5706,2.5706,2.5706,2.5706,2.5706,2.5706,2.5706,2.5706,2.5945,2.6399,2.6807,2.7236,2.7692,2.8109,2.8295,2.8304,2.8304,2.8304,2.8161,2.6717,2.6114,2.5681,2.2744,2.1614,2.1337,0.0,0.0,0.0,0.0,0.0,0.0,0.0,0.0,0.0,0.0,0.0,0.0,0.0,0.0,0.0,1.5103,1.4558,1.4145,1.4065,1.3774,1.3844,1.4384,1.4407,1.462,1.5085,1.5102,1.5102,1.5102,1.5642,1.6215,1.684,1.7704,1.8474,0.0,1.9524,1.9776,1.9868,1.9482,0.0,2.1396,2.0414,2.0804,2.1999,2.2463,2.2564,2.251,2.2798,2.2655,2.2218,2.1569,2.1064,2.0403,1.8703,0.0,0.0,0.0,0.0,0.0,1.6631,0.0,0.0,0.0,0.0,0.0,2.1143,2.2463,2.3624,2.4568,2.5269,2.5706,2.5706,2.5706,2.5706,2.5706,2.5706,2.5706,2.5706,2.5706,2.5706,2.5706,2.5706,2.5706,2.5706,2.5706,2.5706,2.5706,2.5706,2.5706,2.5706,2.5706,2.5706,2.5706,2.5706,2.5706,2.5706,2.5706,2.5706,2.5706,2.5706,2.5764,2.5913,2.6367,2.6797,2.7217,2.7673,2.8031,2.8304,2.8304,2.8304,2.8264,2.7856,2.6354,2.4336,2.3501,2.1849,1.9953,0.0,0.0,0.0,0.0,0.0,0.0,0.0,0.0,0.0,0.0,0.0,0.0,0.0,0.0,0.0,1.6165,1.5481,1.5027,1.5027,1.4516,1.4367,1.4683,1.4695,1.4821,1.5085,1.5102,1.5102,1.5102,1.5642,1.614,1.6627,1.743,1.8079,1.8584,0.0,0.0,0.0,0.0,1.9609,2.1236,2.0801,2.1314,2.24,2.2895,2.3052,2.307,2.3561,2.3461,2.3032,2.2565,2.1817,2.0827,1.9287,1.8187,0.0,1.6853,0.0,0.0,0.0,0.0,0.0,1.7674,0.0,0.0,2.0986,2.2189,2.3281,2.4654,2.5357,2.5706,2.5706,2.5706,2.5706,2.5706,2.5706,2.5706,2.5706,2.5706,2.5706,2.5706,2.5706,2.5706,2.5706,2.5706,2.5706,2.5706,2.5706,2.5706,2.5706,2.5706,2.5706,2.5706,2.5706,2.5706,2.5706,2.5706,2.5706,2.5706,2.5706,2.5706,2.5715,2.6191,2.6621,2.7028,2.7506,2.7936,2.8304,2.8304,2.8304,2.8237,2.7618,2.6313,2.4682,2.4044,2.2322,2.0328,0.0,0.0,0.0,0.0,0.0,0.0,0.0,0.0,0.0,0.0,0.0,0.0,0.0,0.0,0.0,0.0,1.637,1.6044,1.5976,1.5481,1.5165,1.5102,1.5165,1.5188,1.5194,1.5234,1.5234,1.5194,1.5779,1.6244,1.661,1.7197,1.7696,1.8098,0.0,0.0,0.0,0.0,1.9088,2.0443,2.1207,2.19,2.2536,2.3286,2.3598,2.3666,2.3965,2.3815,2.3456,2.322,2.2307,2.1142,2.0331,1.95,1.8586,1.743,1.7621,0.0,0.0,0.0,0.0,1.8057,1.8185,0.0,2.1624,2.2297,2.29,2.4834,2.5256,2.5286,2.5335,2.5345,2.5355,2.5403,2.5491,2.5589,2.5686,2.5706,2.5706,2.5706,2.5706,2.5706,2.5706,2.5706,2.5706,2.5706,2.5706,2.5706,2.5706,2.5706,2.5706,2.5706,2.5706,2.5706,2.5706,2.5706,2.5706,2.5706,2.5706,2.5706,2.5715,2.613,2.6543,2.696,2.7415,2.7845,2.8236,2.8271,2.8304,2.8171,2.6861,2.6236,2.5927,2.4558,2.3011,2.16,0.0,0.0,0.0,0.0,0.0,0.0,0.0,0.0,0.0,0.0,0.0,0.0,0.0,0.0,0.0,0.0,0.0,1.6917,1.6485,1.6014,1.555,1.5119,1.551,1.5746,1.5745,1.6111,1.6123,1.5739,1.6659,1.6933,1.6621,1.7545,1.8013,1.8098,1.8098,0.0,0.0,1.9112,1.972,2.0323,2.1277,2.2119,2.2891,2.3742,2.3714,2.3224,2.3294,2.363,2.3981,2.3558,2.2677,2.1703,2.1307,2.0744,2.0123,1.9651,1.9518,1.9424,1.8926,1.8866,1.8953,1.9023,1.9297,0.0,2.0413,2.1025,2.1605,2.213,2.2452,2.2744,2.3054,2.3113,2.323,2.3549,2.4196,2.4898,2.5598,2.5706,2.5706,2.5706,2.5706,2.5706,2.5706,2.5706,2.5706,2.5706,2.5706,2.5706,2.5706,2.5706,2.5706,2.5706,2.5706,2.5706,2.5706,2.5706,2.5706,2.5706,2.5706,2.5706,2.5706,2.5784,2.6091,2.6533,2.6953,2.7405,2.7839,2.8168,2.8304,2.8278,2.7977,2.7145,2.6059,2.5763,2.3925,2.16,0.0,0.0,0.0,0.0,0.0,0.0,0.0,0.0,0.0,0.0,0.0,0.0,0.0,0.0,0.0,0.0,0.0,0.0,0.0,0.0,1.6129,1.5865,1.6107,1.6244,1.6249,1.6472,1.6375,1.5906,1.664,1.6863,1.6627,1.7391,1.8004,1.8453,1.8474,1.8753,1.922,1.9559,2.0095,2.077,2.1603,2.2289,2.2856,2.343,2.3418,2.3091,2.3091,2.3342,2.3617,2.3377,2.2888,2.2269,2.184,2.154,2.1239,2.0671,2.0388,2.0183,1.9847,1.9523,1.9345,1.9551,1.96,0.0,0.0,2.1331,2.186,2.2585,2.291,2.3112,2.3305,2.3345,2.3321,2.3223,2.4135,2.4852,2.4894,2.5364,2.5706,2.5706,2.5706,2.5706,2.5706,2.5706,2.5706,2.5706,2.5706,2.5706,2.5706,2.5706,2.5706,2.5706,2.5706,2.5706,2.5706,2.5706,2.5706,2.5706,2.5706,2.5706,2.5706,2.5706,2.5964,2.6419,2.6836,2.7266,2.7721,2.8138,2.8304,2.8304,2.8304,2.7843,2.7195,2.7195,2.5297,2.2702,1.5447,0.0,0.0,0.0,0.0,0.0,0.0,0.0,0.0,0.0,0.0,0.0,0.0,0.0,0.0,0.0,0.0,0.0,0.0,1.7316,1.6821,1.6724,1.6736,1.6795,1.6868,1.6885,1.661,1.6026,1.6519,1.665,1.6485,1.7107,1.7845,1.8666,1.8896,1.9494,2.0304,2.0043,2.0503,2.1432,2.1976,2.2321,2.2561,2.3029,2.3139,2.3028,2.3076,2.3091,2.3103,2.3135,2.3047,2.2839,2.2422,2.2322,2.2206,2.1488,2.1156,2.0975,2.081,2.0403,2.0107,2.0437,2.0337,2.0494,0.0,0.0,0.0,2.3474,2.3647,2.3628,2.3703,2.364,2.3457,2.3043,2.4022,2.4605,2.3964,2.4747,2.5437,2.5546,2.5636,2.5676,2.563,2.5515,2.552,2.5686,2.554,2.552,2.5686,2.5706,2.5706,2.5706,2.5706,2.5706,2.5706,2.5706,2.5706,2.5706,2.5706,2.5706,2.5706,2.5706,2.5903,2.6289,2.6784,2.7217,2.7591,2.8099,2.8304,2.8304,2.8304,2.8304,2.8304,2.8304,2.6391,2.3794,1.5529,1.5724,0.0,0.0,0.0,0.0,0.0,0.0,0.0,0.0,0.0,0.0,0.0,0.0,0.0,0.0,0.0,0.0,1.8075,1.7903,0.0,1.7152,1.7253,1.7487,1.7829,1.7901,1.7463,1.6518,1.7054,1.6849,1.6005,1.6947,1.7681,1.8216,1.9003,1.9732,2.0407,2.0662,2.1281,2.2083,2.2175,2.204,2.1951,2.3178,2.3257,2.2784,2.3002,2.3091,2.3129,2.3304,2.3345,2.3371,2.36,2.3481,2.3217,2.3063,2.279,2.2584,2.2725,2.2713,2.2675,2.2729,2.3004,2.3141,2.2553,0.0,2.2323,2.2182,0.0,2.1561,2.1925,0.0,0.0,2.1749,2.2579,2.314,2.3055,2.3751,2.4482,2.5025,2.5449,2.5612,2.5371,2.4852,2.4869,2.5647,2.4986,2.4889,2.5657,2.5706,2.5706,2.5706,2.5706,2.5706,2.5706,2.5706,2.5706,2.5706,2.5706,2.5706,2.5706,2.5706,2.5725,2.5835,2.6645,2.7028,2.7136,2.7959,2.8304,2.8304,2.8304,2.8304,2.8304,2.8304,2.6391,2.3794,1.5373,1.5827,0.0,0.0,0.0,0.0,0.0,0.0,0.0,0.0,0.0,0.0,0.0,0.0,0.0,0.0,0.0,2.0047,1.9375,1.9041,0.0,1.8662,1.87,1.8671,1.8536,1.8545,1.8074,1.706,1.7297,1.7182,1.6792,1.7484,1.8202,1.8952,1.9865,2.0558,2.1067,2.1488,2.1747,2.1927,2.2123,2.2004,2.1817,2.2928,2.3182,2.2955,2.3051,2.3091,2.3115,2.32,2.3558,2.3929,2.3557,2.3949,2.4472,2.4053,2.3871,2.383,2.4031,2.3719,2.3355,2.3471,2.3358,2.3145,2.2861,2.2867,2.2881,2.274,0.0,0.0,0.0,0.0,0.0,0.0,2.2451,2.2847,2.2332,2.3091,2.4023,2.4893,2.4861,2.4907,2.5267,2.5203,2.5308,2.5676,2.5355,2.5306,2.5686,2.5706,2.5706,2.5706,2.5706,2.5706,2.5706,2.5706,2.5706,2.5706,2.5706,2.5706,2.5706,2.5706,2.5706,2.5735,2.6374,2.6774,2.7048,2.7689,2.808,2.8304,2.8304,2.8304,2.8304,2.8304,2.6956,2.5013,1.5639,0.0,0.0,0.0,0.0,0.0,0.0,0.0,0.0,0.0,0.0,0.0,2.2023,2.1769,0.0,0.0,2.1278,2.0702,2.0255,1.9865,1.9692,1.9773,1.9727,1.9548,1.9239,1.9161,1.8616,1.7594,1.7594,1.7532,1.7412,1.7877,1.8617,1.96,2.0643,2.1353,2.1785,2.2206,2.2301,2.2175,2.2296,2.2236,2.2141,2.2762,2.3037,2.3091,2.3091,2.3091,2.3124,2.3309,2.3792,2.4242,2.3774,2.4343,2.5119,2.469,2.4556,2.4639,2.5058,2.4689,2.423,2.4305,2.3945,2.3547,2.3368,2.3537,2.3694,2.3571,2.3698,0.0,0.0,0.0,2.2705,2.2136,0.0,2.2715,2.1941,2.2488,2.3355,2.4429,2.4221,2.4252,2.4909,2.4999,2.5115,2.5337,2.5335,2.5454,2.5686,2.5706,2.5706,2.5706,2.5706,2.5706,2.5706,2.5706,2.5706,2.5706,2.5706,2.5706,2.5706,2.5706,2.5706,2.5725,2.6201,2.6631,2.7038,2.7516,2.7936,2.8304,2.8304,2.8304,2.8304,2.8304,2.7371,2.5882,1.6652,1.6408,0.0,0.0,0.0,0.0,0.0,0.0,1.9884,2.0339,2.0368,2.0897,2.2327,2.1444,2.1133,2.21,2.122,2.0441,2.004,2.0057,2.0054,1.999,1.9798,1.9809,2.0063,1.9807,1.9153,1.8082,1.8082,1.785,1.7412,1.7877,1.8666,1.9751,2.1074,2.1925,2.2385,2.2736,2.3066,2.3318,2.2859,2.2829,2.3037,2.2803,2.2876,2.3091,2.3091,2.3091,2.32,2.3852,2.409,2.4209,2.4765,2.4842,2.4751,2.4934,2.4842,2.4894,2.5813,2.6039,2.5963,2.5703,2.5617,2.5344,2.4377,2.4521,2.4714,2.4265,2.4538,2.471,2.4258,2.3746,2.3224,2.2745,2.2691,0.0,0.0,2.1868,2.2257,2.3323,2.3605,2.3813,2.4113,2.3627,2.3595,2.4371,2.4442,2.481,2.5657,2.5706,2.5706,2.5706,2.5706,2.5706,2.5706,2.5706,2.5706,2.5706,2.5706,2.5706,2.5706,2.5706,2.5706,2.5725,2.6201,2.6631,2.7038,2.7516,2.7936,2.8304,2.8304,2.8304,2.8304,2.8304,2.7371,2.5882,0.0,0.0,0.0,0.0,0.0,0.0,1.9271,2.0147,2.0723,2.0793,2.1083,2.1451,2.1853,2.1541,2.1416,2.1713,2.141,2.1122,2.094,2.1031,2.1206,2.145,2.1593,2.1355,2.0646,2.0672,2.0186,1.9165,1.9165,1.908,1.8933,1.9398,1.9823,2.0221,2.1561,2.2201,2.2316,2.2962,2.3115,2.292,2.2767,2.315,2.3759,2.3189,2.302,2.3141,2.3456,2.3563,2.3647,2.4134,2.4616,2.4973,2.4684,2.52,2.5818,2.5439,2.56,2.5962,2.6278,2.6238,2.6086,2.599,2.5597,2.5145,2.4755,2.4788,2.4765,2.4292,2.457,2.4765,2.429,2.376,2.335,2.3187,2.2599,2.2106,0.0,2.1874,2.2128,2.2854,2.3078,2.307,2.2798,2.3514,2.3994,2.4004,2.4781,2.5384,2.5686,2.5706,2.5706,2.5706,2.5706,2.5706,2.5706,2.5706,2.5706,2.5706,2.5706,2.5706,2.5706,2.5706,2.5706,2.5706,2.5864,2.6332,2.7009,2.7178,2.7669,2.8304,2.8304,2.8304,2.8304,2.8304,2.7977,2.7195,2.0211,0.0,0.0,1.8036,1.8416,1.9072,1.983,2.0967,2.1558,2.1063,2.1614,2.2012,2.1898,2.1675,2.1665,2.1969,2.1776,2.1637,2.165,2.1706,2.1874,2.2149,2.2397,2.2138,2.1309,2.1518,2.1136,2.013,2.0198,2.014,1.9964,2.0255,2.0496,2.0748,2.1958,2.2386,2.2269,2.313,2.3247,2.2859,2.3019,2.3483,2.4017,2.3691,2.3618,2.3727,2.3936,2.4014,2.4072,2.4502,2.495,2.5303,2.4973,2.5481,2.6131,2.5699,2.5885,2.6238,2.6336,2.6227,2.6073,2.598,2.5605,2.5167,2.4866,2.4923,2.4911,2.4446,2.4633,2.4812,2.4543,2.4048,2.36,2.3338,2.2665,2.2057,0.0,2.1796,2.1951,2.2077,2.2495,2.2728,2.2666,2.3227,2.3698,2.3986,2.4646,2.522,2.5676,2.5706,2.5706,2.5706,2.5706,2.5706,2.5706,2.5706,2.5706,2.5706,2.5706,2.5706,2.5706,2.5706,2.5706,2.5706,2.5706,2.6183,2.6999,2.6999,2.7506,2.8304,2.8304,2.8304,2.8304,2.8304,2.7618,2.6418,2.1425,2.0492,1.9632,1.9564,1.9886,2.0205,2.04,2.1666,2.223,2.1156,2.1848,2.2422,2.2344,2.1781,2.1802,2.2777,2.2267,2.1955,2.2108,2.2077,2.2067,2.2148,2.2223,2.2199,2.2047,2.2269,2.1943,2.1,2.1156,2.0975,2.0496,2.0473,2.0734,2.1236,2.2219,2.249,2.2256,2.3243,2.3463,2.318,2.3623,2.3821,2.3923,2.4287,2.4609,2.4837,2.4547,2.4432,2.451,2.4963,2.5121,2.52,2.5581,2.5706,2.5706,2.5706,2.5706,2.5766,2.6009,2.6075,2.6013,2.5781,2.5705,2.5497,2.4807,2.4999,2.5196,2.4725,2.4788,2.4946,2.4985,2.4565,2.3991,2.327,2.2928,2.2389,2.1408,2.1663,2.1741,2.1185,2.1973,2.2808,2.3429,2.2688,2.2754,2.4175,2.4004,2.4385,2.5628,2.5657,2.5657,2.5706,2.5706,2.5706,2.5706,2.5706,2.5706,2.5706,2.5706,2.5706,2.5706,2.5706,2.5706,2.5706,2.5706,2.6174,2.697,2.6989,2.7497,2.8262,2.8281,2.8304,2.8291,2.8224,2.6273,2.3682,2.2871,2.2267,2.1724,2.1703,2.1136,2.0708,2.0758,2.1147,2.1398,2.1311,2.1524,2.1634,2.152,2.1669,2.1876,2.2134,2.2009,2.2045,2.2378,2.2523,2.2675,2.2841,2.3154,2.3072,2.2524,2.2432,2.2424,2.2459,2.1861,2.1713,2.1956,2.1553,2.1315,2.1232,2.1835,2.2133,2.2246,2.2856,2.3299,2.3633,2.3751,2.4312,2.5048,2.4958,2.5278,2.5687,2.5121,2.4926,2.4982,2.5408,2.5554,2.5562,2.5679,2.5706,2.5706,2.5706,2.5706,2.5725,2.5777,2.5807,2.5825,2.5957,2.5709,2.5413,2.5423,2.5509,2.5466,2.4997,2.5218,2.5332,2.4802,2.4585,2.4368,2.3974,2.3527,2.3012,2.2392,2.2415,2.2568,2.2764,2.3191,2.2682,2.0701,2.2004,2.2862,2.2552,2.3592,2.4676,2.5647,2.5093,2.5035,2.5676,2.5706,2.5706,2.5706,2.5706,2.5706,2.5706,2.5706,2.5706,2.5706,2.5706,2.5706,2.5706,2.5706,2.602,2.6585,2.6885,2.7334,2.7888,2.8187,2.8304,2.8171,2.7064,2.4765,2.2159,2.4183,2.3975,2.3796,2.3769,2.3386,2.2723,2.1627,2.1794,2.1987,2.1784,2.2162,2.2299,2.1898,2.2034,2.2158,2.2158,2.2314,2.2557,2.2872,2.2917,2.3026,2.3219,2.3353,2.3264,2.2876,2.285,2.285,2.2873,2.2434,2.2263,2.2361,2.2056,2.1733,2.1442,2.1917,2.2172,2.2334,2.31,2.3747,2.4245,2.4336,2.4746,0.0,2.535,2.56,2.5887,2.5505,2.5361,2.54,2.5618,2.5706,2.5706,2.5706,2.5706,2.5706,2.5706,2.5706,2.5706,2.5706,2.5706,2.5734,2.5887,2.5699,2.5479,2.5515,2.5537,2.5453,2.5184,2.5268,2.5335,2.5118,2.4811,2.4437,2.3927,2.3425,2.2998,2.2736,2.2889,2.3032,2.3092,2.3404,2.2803,2.0702,2.2218,2.2943,2.1966,2.2939,2.3776,2.4262,2.4362,2.4625,2.5123,2.5501,2.5706,2.5706,2.5706,2.5706,2.5706,2.5706,2.5706,2.5706,2.5706,2.5706,2.5706,2.5706,2.5974,2.6438,2.6833,2.7288,2.7744,2.8138,2.7497,2.6232,2.5407,2.4022,2.2462,2.5293,2.5493,2.5636,2.5628,2.5741,2.514,2.308,2.3149,2.3196,2.2551,2.3135,2.3391,2.2735,2.262,2.2587,2.2587,2.2897,2.3174,2.3351,2.32,2.3185,2.3352,2.3189,2.3091,2.3091,2.3242,2.3162,2.2867,2.2867,2.2665,2.2255,2.2216,2.2018,2.1706,2.2196,2.2482,2.2694,2.368,2.4392,2.4848,2.5034,2.5121,2.5219,2.5574,2.5706,2.5706,2.5706,2.5706,2.5706,2.5706,2.5706,2.5706,2.5706,2.5706,2.5706,2.5706,2.5706,2.5706,2.5706,2.5706,2.5706,2.5706,2.5706,2.5636,2.5409,2.5345,2.5345,2.5345,2.5209,2.5205,2.5579,2.5103,2.4413,2.3682,2.3236,2.2996,2.2996,2.3355,2.3427,2.2913,2.3295,0.0,2.1911,2.2738,2.294,2.1923,2.2155,2.2457,2.2666,2.3612,2.4285,2.4557,2.5308,2.5706,2.5706,2.5706,2.5706,2.5706,2.5706,2.5706,2.5706,2.5706,2.5706,2.5706,2.5706,2.5923,2.6338,2.6804,2.7305,2.7809,2.8158,2.6581,2.4072,2.3877,2.3682,2.3305,2.5918,2.6185,2.6491,2.6764,2.6065,2.5553,2.5711,2.455,2.3703,2.3829,2.3191,2.2679,2.2548,2.281,2.2984,2.2984,2.3052,2.3105,2.3147,2.3117,2.3116,2.3147,2.3117,2.3091,2.3091,2.292,2.3126,2.377,2.3082,2.2695,2.2601,2.2337,2.1991,2.1639,2.2216,2.2976,2.3829,2.4022,2.447,2.5053,2.5092,2.5305,2.561,2.5676,2.5706,2.5706,2.5706,2.5706,2.5706,2.5706,2.5706,2.5706,2.5706,2.5706,2.5706,2.5706,2.5706,2.5706,2.5706,2.5706,2.5706,2.5706,2.5706,2.5693,2.5646,2.563,2.563,2.563,2.5596,2.5537,2.5404,2.5132,2.4811,2.4449,2.4511,2.4599,2.4599,2.4674,2.4438,2.3701,2.4276,2.3801,2.1472,2.2393,2.2712,2.165,2.1574,2.2169,2.35,2.3095,2.364,2.5413,2.5618,2.5706,2.5706,2.5706,2.5706,2.5706,2.5706,2.5706,2.5706,2.5706,2.5706,2.5706,2.5706,2.5757,2.5871,2.6674,2.7471,2.8207,2.8262,2.7222,2.5544,2.4267,2.3025,2.177,2.8316,2.8261,2.8325,2.8823,2.8198,2.7752,2.8108,2.6918,2.5659,2.4732,2.417,2.3701,2.3314,2.3162,2.3091,2.3091,2.3091,2.3091,2.3091,2.3091,2.3091,2.3091,2.3091,2.3091,2.3091,2.297,2.3268,2.3996,2.3585,2.3367,2.3379,2.3204,2.294,2.2611,2.3222,2.3809,2.4388,2.4623,2.5064,2.5619,2.5478,2.5535,2.5706,2.5706,2.5706,2.5706,2.5706,2.5706,2.5706,2.5706,2.5706,2.5706,2.5706,2.5706,2.5706,2.5706,2.5706,2.5706,2.5706,2.5706,2.5706,2.5706,2.5706,2.5706,2.5706,2.5706,2.5706,2.5706,2.5706,2.5615,2.5346,2.5142,2.4967,2.483,2.4795,2.4832,2.4978,2.5009,2.4861,2.4478,2.4634,2.4297,2.3044,2.3116,2.2655,2.1191,2.1015,2.161,2.3048,2.2724,2.328,2.4976,2.5462,2.5706,2.5706,2.5706,2.5706,2.5706,2.5706,2.5706,2.5706,2.5706,2.5706,2.5706,2.5706,2.5706,2.5764,2.6635,2.7506,2.8304,2.8304,2.7407,2.59,2.4364,2.287,2.1394,3.043,3.0149,2.9938,3.0341,3.003,2.9696,2.9711,2.9002,2.7791,2.59,2.5514,2.5179,2.4594,2.4101,2.3811,2.3811,2.3811,2.3811,2.3811,2.3811,2.3713,2.3464,2.3453,2.3453,2.3453,2.3321,2.3592,2.4297,2.4177,2.4009,2.3795,2.3974,2.3969,2.3816,2.4258,2.4602,2.4886,2.5178,2.5589,2.6003,2.5789,2.5706,2.5706,2.5706,2.5706,2.5706,2.5706,2.5706,2.5706,2.5706,2.5706,2.5706,2.5706,2.5706,2.5706,2.5706,2.5706,2.5706,2.5706,2.5706,2.5706,2.5706,2.5706,2.5706,2.5706,2.5706,2.5706,2.5706,2.5706,2.5615,2.5346,2.5219,2.5135,2.5068,2.4935,2.4903,2.5116,2.5154,2.5094,2.4932,2.4816,2.4637,2.4365,2.3767,2.281,2.1377,2.1084,2.1362,2.2325,2.245,2.3085,2.4363,2.5074,2.5423,2.5423,2.5608,2.5706,2.5706,2.5706,2.5706,2.5706,2.5706,2.5706,2.5706,2.5706,2.5754,2.5913,2.6674,2.7458,2.8177,2.8275,2.7195,2.5453,2.4253,2.2667,2.0966,3.0567,3.0543,3.0351,2.987,2.9748,2.9692,2.9698,2.9675,2.9199,2.7975,2.6974,2.6333,2.6271,2.6212,2.6172,2.6172,2.6172,2.6172,2.6172,2.6172,2.5724,2.4681,2.4638,2.4638,2.4638,2.4049,2.4235,2.5264,2.4772,2.4053,2.3115,2.39,2.4449,2.4752,2.4643,2.503,2.5763,2.5444,2.5468,2.5734,2.571,2.5706,2.5706,2.5706,2.5706,2.5706,2.5706,2.5706,2.5706,2.5706,2.5706,2.5706,2.5706,2.5706,2.5706,2.5706,2.5706,2.5706,2.5706,2.5706,2.5706,2.5706,2.5706,2.5706,2.5706,2.5706,2.5706,2.5706,2.5706,2.5615,2.5346,2.5484,2.5557,2.531,2.5445,2.5616,2.5635,2.5633,2.5391,2.472,2.4987,2.478,2.3621,2.3442,2.333,2.3166,2.252,2.2084,2.1967,2.2294,2.3085,2.4363,2.4481,2.4518,2.4518,2.5308,2.5706,2.5706,2.5706,2.5706,2.5706,2.5706,2.5706,2.5706,2.5706,2.5942,2.6367,2.6813,2.7295,2.779,2.8158,2.654,2.4003,2.385,2.2019,1.9591,3.1128,3.0846,3.0526,3.0273,2.9945,2.9707,2.9745,2.9773,2.9634,2.9187,2.8148,2.7229,2.6576,2.6504,2.6504,2.6504,2.6504,2.6213,2.5525,2.612,2.5813,2.4269,2.4816,2.4973,2.4574,2.5047,2.5672,2.6419,2.6607,2.6476,2.6066,2.6413,2.6739,2.6985,2.6618,2.654,2.6627,2.5853,2.6047,2.6837,2.6837,2.6837,2.6837,2.6837,2.6378,2.5706,2.5706,2.5706,2.5706,2.5706,2.5706,2.5706,2.5706,2.5706,2.5706,2.5706,2.5706,2.5706,2.5706,2.5706,2.5706,2.5706,2.5706,2.5706,2.5706,2.5706,2.5706,2.5706,2.5706,2.5673,2.5561,2.5497,2.5484,2.5534,2.5487,2.5519,2.5676,2.5706,2.5585,2.5303,2.5279,2.5095,2.4591,2.4426,2.4095,2.3454,2.2574,2.2261,2.2729,2.3073,2.3622,2.4383,2.4908,2.5181,2.5181,2.552,2.5706,2.5706,2.5706,2.5706,2.5706,2.5706,2.5706,2.5706,2.5706,2.5974,2.6438,2.6833,2.7288,2.7744,2.8138,2.7565,2.6273,2.4469,2.3047,2.18,3.1271,3.0886,3.0548,3.0386,3.0019,2.9744,2.9796,2.9801,2.9801,2.9801,2.9096,2.8319,2.7545,2.7464,2.7464,2.7464,2.7464,2.7196,2.6548,2.7253,2.7066,2.5624,2.6291,2.6464,2.6004,2.6679,2.7194,2.754,2.821,2.8086,2.7218,2.7141,2.7488,2.8172,2.7746,2.7469,2.7291,2.6941,2.7317,2.812,2.812,2.812,2.812,2.812,2.7352,2.6257,2.6257,2.6026,2.5706,2.5706,2.5706,2.5706,2.5706,2.5706,2.5706,2.5706,2.5706,2.5706,2.5706,2.5706,2.5706,2.5706,2.5706,2.5706,2.5706,2.5706,2.5706,2.5706,2.5706,2.5706,2.5706,2.5548,2.5484,2.5671,2.554,2.5471,2.5669,2.5706,2.5671,2.5586,2.5416,2.53,2.53,2.5165,2.4726,2.3824,2.3294,2.3141,2.343,2.3785,2.4111,2.4393,2.5006,2.5328,2.5328,2.5569,2.5706,2.5706,2.5706,2.5706,2.5706,2.5706,2.5706,2.5706,2.5706,2.5893,2.624,2.6774,2.7197,2.7555,2.8089,2.804,2.7407,2.5256,2.3905,2.2864,3.073,3.0617,3.0431,2.9905,2.9798,2.9798,2.9801,2.9801,2.9801,2.9801,2.9792,2.9772,2.9763,2.9763,2.9763,2.9763,2.9763,2.9979,3.05,3.0535,3.0307,2.9748,2.974,2.974,2.973,2.9104,2.8712,2.8589,2.925,2.8056,2.512,2.4871,2.5799,2.7688,2.736,2.7355,2.7674,2.8855,2.9361,2.9373,2.9373,2.9373,2.9373,2.9373,2.8622,2.7577,2.7577,2.6766,2.5706,2.5706,2.5706,2.5706,2.5706,2.5706,2.5706,2.5706,2.5706,2.5706,2.5706,2.5706,2.5706,2.5706,2.5706,2.5706,2.5706,2.5706,2.5706,2.5706,2.5706,2.5706,2.5706,2.5708,2.5698,2.5706,2.5708,2.5698,2.5706,2.5706,2.5592,2.534,2.5299,2.53,2.53,2.5302,2.5096,2.4616,2.5255,2.5103,2.3859,2.4168,2.4391,2.4402,2.4401,2.4422,2.4422,2.5267,2.5706,2.5706,2.5706,2.5706,2.5706,2.5706,2.5706,2.5706,2.5706,2.5706,2.5774,2.6645,2.6996,2.7097,2.7959,2.7421,2.6127,2.6086,2.4189,2.1628,3.0091,3.0053,3.0008,2.983,2.9801,2.9801,2.9801,2.9801,2.9801,2.9801,2.9801,2.9801,2.9801,2.9801,2.9801,2.9801,3.0121,3.0099,2.9474,3.0515,3.0536,2.918,2.9823,2.9998,2.9542,3.0115,3.0419,3.0364,3.1043,3.0883,2.9937,2.9847,3.037,3.1334,3.0362,2.9971,3.0034,2.959,2.9875,3.0631,3.0631,3.0631,3.0631,3.0631,2.9875,2.8831,2.8831,2.8038,2.6994,2.6994,2.6426,2.5706,2.5706,2.5706,2.5706,2.5706,2.5706,2.5706,2.5706,2.5706,2.5706,2.5706,2.5706,2.5706,2.5706,2.5706,2.5706,2.5706,2.5706,2.5706,2.5706,2.5706,2.5706,2.5706,2.5706,2.5706,2.5706,2.5706,2.5671,2.5581,2.5565,2.5565,2.5565,2.5565,2.5436,2.5102,2.4903,2.4426,2.3508,2.4616,2.5004,2.4422,2.4976,2.5298,2.5298,2.5559,2.5706,2.5706,2.5706,2.5706,2.5706,2.5706,2.5706,2.5706,2.5706,2.5706,2.5764,2.6635,2.6999,2.7087,2.7959,2.8014,2.7344,2.5283,2.3919,2.2808,2.9801,2.9801,2.9854,3.0068,3.0105,3.0168,3.0379,3.0404,3.0404,3.0404,3.0404,3.0404,3.0404,3.0404,3.0329,3.0118,3.0585,3.0677,3.017,3.1127,3.132,3.0439,3.1053,3.122,3.0811,3.1534,3.1677,3.1201,3.1176,3.1638,3.252,3.1572,3.1593,3.2348,3.1556,3.1201,3.1178,3.0911,3.1224,3.1909,3.1909,3.1909,3.1909,3.1909,3.1145,3.0079,3.0079,2.9304,2.8284,2.8284,2.7755,2.7008,2.656,2.6404,2.6318,2.5842,2.5706,2.5706,2.5706,2.5706,2.5706,2.5706,2.5706,2.5706,2.5706,2.5706,2.5706,2.5706,2.5706,2.5706,2.5706,2.5706,2.5706,2.5706,2.5706,2.5706,2.5706,2.5706,2.5664,2.5559,2.5546,2.5546,2.5546,2.5546,2.5527,2.5463,2.5102,2.4688,2.4229,2.4841,2.5113,2.4898,2.5413,2.5706,2.5706,2.5706,2.5706,2.5706,2.5706,2.5706,2.5706,2.5706,2.5706,2.5706,2.5706,2.5706,2.5764,2.6635,2.6999,2.7087,2.7959,2.8304,2.8067,2.6177,2.5146,2.4322,2.9914,2.9914,3.0068,3.0573,3.066,3.0824,3.1321,3.1396,3.1396,3.1396,3.1396,3.1396,3.1396,3.1434,3.1248,3.0751,3.1173,3.1673,3.2167,3.2242,3.2516,3.3077,3.3102,3.3102,3.3102,3.3102,3.2513,3.1334,3.0215,3.0833,3.3059,3.0743,3.026,3.1334,3.1334,3.1334,3.1412,3.2601,3.3102,3.3102,3.3102,3.3102,3.3102,3.3102,3.2359,3.1334,3.1334,3.0552,2.9521,2.9521,2.9476,2.92,2.8074,2.772,2.7459,2.6098,2.5706,2.5706,2.5706,2.5706,2.5706,2.5706,2.5706,2.5706,2.5706,2.5706,2.5706,2.5706,2.5706,2.5706,2.5706,2.5706,2.5706,2.5706,2.5706,2.5706,2.5706,2.5706,2.561,2.5354,2.5333,2.5333,2.5333,2.5333,2.5423,2.5658,2.5632,2.5632,2.5669,2.4863,2.4801,2.5676,2.5706,2.5706,2.5706,2.5706,2.5706,2.5706,2.5706,2.5706,2.5706,2.5706,2.5706,2.5706,2.5706,2.5706,2.5764,2.6606,2.697,2.7087,2.793,2.8275,2.8291,2.8197,2.7276,2.5882,3.1019,3.1019,3.1057,3.1195,3.121,3.1248,3.1384,3.1396,3.1396,3.1396,3.1396,3.1396,3.1396,3.1763,3.1966,3.1828,3.1941,3.2066,3.2192,3.2629,3.2952,3.309,3.3102,3.3102,3.3102,3.3102,3.295,3.2644,3.236,3.2513,3.3092,3.2503,3.2371,3.2644,3.2644,3.2644,3.2666,3.2972,3.3102,3.3102,3.3102,3.3102,3.3102,3.3102,3.2918,3.2644,3.2644,3.1832,3.0765,3.0765,3.0169,2.935,2.9062,2.897,2.8541,2.6344,2.5706,2.5706,2.5706,2.5706,2.5706,2.5706,2.5706,2.5706,2.5706,2.5706,2.5706,2.5706,2.5706,2.5706,2.5706,2.5706,2.5706,2.5706,2.5706,2.5706,2.5706,2.5706,2.5678,2.5607,2.5612,2.5612,2.5612,2.5612,2.5557,2.5409,2.4962,2.4913,2.5369,2.4764,2.4801,2.5676,2.5706,2.5706,2.5706,2.5706,2.5706,2.5706,2.5706,2.5706,2.5706,2.5706,2.5706,2.5706,2.5706,2.5706,2.5745,2.6318,2.6728,2.7057,2.762,2.8034,2.8161,2.7037,2.6409,2.5882,3.1396,3.1396,3.1484,3.1725,3.1763,3.1851,3.2125,3.2185,3.2185,3.2185,3.2185,3.2185,3.2185,3.2439,3.2604,3.2604,3.2604,3.2604,3.2604,3.2916,3.3102,3.3102,3.3102,3.3102,3.3102,3.3102,3.3102,3.3102,3.3102,3.3102,3.3102,3.3102,3.3102,3.3102,3.3102,3.3102,3.3102,3.3102,3.3102,3.3102,3.3102,3.3102,3.3102,3.3102,3.3102,3.3102,3.3102,3.2655,3.2063,3.2063,3.1634,3.0989,3.0406,3.0226,2.9841,2.7956,2.7006,2.644,2.5866,2.5706,2.5706,2.5706,2.5706,2.5706,2.5706,2.5706,2.5706,2.5706,2.5706,2.5706,2.5706,2.5706,2.5706,2.5706,2.5807,2.5834,2.5715,2.582,2.5844,2.5713,2.5706,2.5706,2.5706,2.5706,2.5636,2.5487,2.5175,2.5138,2.5469,2.5163,2.5208,2.5686,2.5706,2.5706,2.5706,2.5706,2.5706,2.5706,2.5706,2.5706,2.5706,2.5706,2.5706,2.5706,2.5706,2.5706,2.5735,2.6211,2.6631,2.7048,2.7526,2.7946,2.8201,2.7407,2.7105,2.6888,3.166,3.166,3.1798,3.2265,3.234,3.2503,3.3027,3.3102,3.3102,3.3102,3.3102,3.3102,3.3102,3.3102,3.3102,3.3102,3.3102,3.3102,3.3102,3.3102,3.3102,3.3102,3.3102,3.3102,3.3102,3.3102,3.3102,3.3102,3.3102,3.3102,3.3102,3.3102,3.3102,3.3102,3.3102,3.3102,3.3102,3.3102,3.3102,3.3102,3.3102,3.3102,3.3102,3.3102,3.3102,3.3102,3.3102,3.3102,3.3102,3.3102,3.3102,3.2918,3.1832,3.1489,3.1245,3.0034,2.8958,2.7826,2.638,2.5854,2.5706,2.5706,2.5706,2.5706,2.5706,2.5706,2.5706,2.5706,2.5706,2.5706,2.5706,2.5706,2.5693,2.5653,2.5859,2.5954,2.5678,2.587,2.5957,2.573,2.5706,2.5706,2.5706,2.5706,2.5706,2.5706,2.5706,2.5706,2.5706,2.5706,2.5706,2.5706,2.5706,2.5706,2.5706,2.5706,2.5706,2.5706,2.5706,2.5706,2.5706,2.5706,2.5706,2.5706,2.5706,2.5706,2.5725,2.613,2.6572,2.7038,2.7435,2.7874,2.8304,2.8304,2.8304,2.8121,3.2839,3.2839,3.2864,3.2952,3.2964,3.2989,3.3101,3.3102,3.3102,3.3102,3.3102,3.3102,3.3102,3.3102,3.3102,3.3102,3.3102,3.3102,3.3102,3.3102,3.3102,3.3102,3.3102,3.3102,3.3102,3.3102,3.3102,3.3102,3.3102,3.3102,3.3102,3.3102,3.3102,3.3102,3.3102,3.3102,3.3102,3.3102,3.3102,3.3102,3.3102,3.3102,3.3102,3.3102,3.3102,3.3102,3.3102,3.3102,3.3102,3.3102,3.3102,3.3068,3.2862,3.2808,3.2568,3.1289,3.0788,3.0147,2.7909,2.6524,2.5706,2.5706,2.5706,2.5706,2.5706,2.5706,2.5706,2.5706,2.5706,2.5706,2.5706,2.5706,2.5633,2.5391,2.5591,2.5678,2.5395,2.5599,2.5751,2.5708,2.5706,2.5706,2.5706,2.5706,2.5706,2.5706,2.5706,2.5706,2.5706,2.5706,2.5706,2.5706,2.5706,2.5706,2.5706,2.5706,2.5706,2.5706,2.5706,2.5706,2.5706,2.5706,2.5706,2.5706,2.5706,2.5706,2.5706,2.5786,2.6274,2.7009,2.7077,2.7598,2.8304,2.8304,2.8304,2.8278,3.3102,3.3102,3.3102,3.3102,3.3102,3.3102,3.3102,3.3102,3.3102,3.3102,3.3102,3.3102,3.3102,3.3102,3.3102,3.3102,3.3102,3.3102,3.3102,3.3102,3.3102,3.3102,3.3102,3.3102,3.3102,3.3102,3.3102,3.3102,3.3102,3.3102,3.3102,3.3102,3.3102,3.3102,3.3102,3.3102,3.3102,3.3102,3.3102,3.3102,3.3102,3.3102,3.3102,3.3102,3.3102,3.3102,3.3102,3.3102,3.3102,3.3102,3.3102,3.3102,3.3102,3.3102,3.2982,3.2404,3.0822,2.9027,2.7897,2.6668,2.5706,2.5706,2.5706,2.5706,2.5706,2.5706,2.5706,2.5706,2.5706,2.5706,2.5706,2.5706,2.5666,2.5542,2.5739,2.5825,2.5551,2.5751,2.5855,2.5715,2.5706,2.5706,2.5706,2.5706,2.5706,2.5706,2.5706,2.5706,2.5706,2.5706,2.5706,2.5706,2.5706,2.5706,2.5706,2.5706,2.5706,2.5706,2.5706,2.5706,2.5706,2.5706,2.5706,2.5706,2.5706,2.5706,2.5706,2.5706,2.6089,2.6699,2.6924,2.7402,2.8001,2.8216,2.8304,2.8304,3.3102,3.3102,3.3102,3.3102,3.3102,3.3102,3.3102,3.3102,3.3102,3.3102,3.3102,3.3102,3.3102,3.3102,3.3102,3.3102,3.3102,3.3102,3.3102,3.3102,3.3102,3.3102,3.3102,3.3102,3.3102,3.3102,3.3102,3.3102,3.3102,3.3102,3.3102,3.3102,3.3102,3.3102,3.3102,3.3102,3.3102,3.3102,3.3102,3.3102,3.3102,3.3102,3.3102,3.3102,3.3102,3.3102,3.3102,3.3102,3.3102,3.3102,3.3102,3.3102,3.3102,3.3102,3.3102,3.3102,3.0889,2.8377,2.8085,2.7102,2.6147,2.6147,2.5927,2.5706,2.5706,2.5706,2.5706,2.5706,2.5706,2.5706,2.5706,2.5706,2.5676,2.5627,2.5837,2.5905,2.564,2.5839,2.5936,2.5718,2.5706,2.5706,2.5706,2.5706,2.5706,2.5706,2.5706,2.5706,2.5706,2.5706,2.5706,2.5706,2.5706,2.5706,2.5706,2.5706,2.5706,2.5706,2.5706,2.5706,2.5706,2.5706,2.5706,2.5706,2.5706,2.5706,2.5706,2.5706,2.5984,2.6438,2.6833,2.7298,2.7741,2.8148,2.8304,2.8304,3.3102,3.3102,3.3102,3.3102,3.3102,3.3102,3.3102,3.3102,3.3102,3.3102,3.3102,3.3102,3.3102,3.3102,3.3102,3.3102,3.3102,3.3102,3.3102,3.3102,3.3102,3.3102,3.3102,3.3102,3.3102,3.3102,3.3102,3.3102,3.3102,3.3102,3.3102,3.3102,3.3102,3.3102,3.3102,3.3102,3.3102,3.3102,3.3102,3.3102,3.3102,3.3102,3.3102,3.3102,3.3102,3.3102,3.3102,3.3102,3.3102,3.3102,3.3102,3.3102,3.3102,3.3102,3.3102,3.3102,3.2063,3.0687,2.9567,2.8378,2.7469,2.7469,2.6572,2.5706,2.5706,2.5706,2.5706,2.5706,2.5706,2.5706,2.5706,2.5706,2.5615,2.536,2.5547,2.5638,2.5374,2.5555,2.5727,2.5696,2.5706,2.5706,2.5706,2.5706,2.5706,2.5706,2.5706,2.5706,2.5706,2.5706,2.5706,2.5706,2.5706,2.5706,2.5706,2.5706,2.5706,2.5706,2.5706,2.5706,2.5706,2.5706,2.5706,2.5706,2.5706,2.5706,2.5706,2.5706,2.5984,2.6438,2.6833,2.7298,2.7741,2.8148,2.8304,2.8304,3.3102,3.3102,3.3102,3.3102,3.3102,3.3102,3.3102,3.3102,3.3102,3.3102,3.3102,3.3102,3.3102,3.3102,3.3102,3.3102,3.3102,3.3102,3.3102,3.3102,3.3102,3.3102,3.3102,3.3102,3.3102,3.3102,3.3102,3.3102,3.3102,3.3102,3.3102,3.3102,3.3102,3.3102,3.3102,3.3102,3.3102,3.3102,3.3102,3.3102,3.3102,3.3102,3.3102,3.3102,3.3102,3.3102,3.3102,3.3102,3.3102,3.3102,3.3102,3.3102,3.3102,3.3102,3.3102,3.3102,3.2765,3.2284,3.1822,2.9692,2.7601,2.7601,2.6644,2.5706,2.5706,2.5706,2.5706,2.5706,2.5706,2.5706,2.5706,2.5706,2.5673,2.5569,2.5628,2.5664,2.5559,2.5638,2.5706,2.5706,2.5706,2.5706,2.5706,2.5706,2.5706,2.5706,2.5706,2.5706,2.5706,2.5706,2.5706,2.5706,2.5706,2.5706,2.5706,2.5706,2.5706,2.5706,2.5706,2.5706,2.5706,2.5706,2.5706,2.5706,2.5706,2.5706,2.5706,2.5706,2.5815,2.603,2.6735,2.7119,2.7344,2.8037,2.8304,2.8304,3.3102,3.3102,3.3102,3.3102,3.3102,3.3102,3.3102,3.3102,3.3102,3.3102,3.3102,3.3102,3.3102,3.3102,3.3102,3.3102,3.3102,3.3102,3.3102,3.3102,3.3102,3.3102,3.3102,3.3102,3.3102,3.3102,3.3102,3.3102,3.3102,3.3102,3.3102,3.3102,3.3102,3.3102,3.3102,3.3102,3.3102,3.3102,3.3102,3.3102,3.3102,3.3102,3.3102,3.3102,3.3102,3.3102,3.3102,3.3102,3.3102,3.3102,3.3102,3.3102,3.3102,3.3102,3.3102,3.3102,3.3102,3.3102,3.3102,3.0968,2.8634,2.8261,2.721,2.6185,2.5793,2.5706,2.5706,2.5706,2.5706,2.5706,2.5706,2.5706,2.5706,2.5706,2.5706,2.5706,2.5706,2.5706,2.5706,2.5706,2.5706,2.5706,2.5706,2.5706,2.5706,2.5706,2.5706,2.5706,2.5706,2.5706,2.5706,2.5706,2.5706,2.5706,2.5706,2.5706,2.5706,2.5706,2.5706,2.5706,2.5706,2.5706,2.5706,2.5706,2.5706,2.5706,2.5706,2.5706,2.5706,2.5784,2.6667,2.6999,2.7106,2.7978,2.8304,2.8304,3.3102,3.3102,3.3102,3.3102,3.3102,3.3102,3.3102,3.3102,3.3102,3.3102,3.3102,3.3102,3.3102,3.3102,3.3102,3.3102,3.3102,3.3102,3.3102,3.3102,3.3102,3.3102,3.3102,3.3102,3.3102,3.3102,3.3102,3.3102,3.3102,3.3102,3.3102,3.3102,3.3102,3.3102,3.3102,3.3102,3.3102,3.3102,3.3102,3.3102,3.3102,3.3102,3.3102,3.3102,3.3102,3.3102,3.3102,3.3102,3.3102,3.3102,3.3102,3.3102,3.3102,3.3102,3.3102,3.3102,3.3102,3.3102,3.3102,3.2185,3.0922,2.9704,2.8483,2.7268,2.5989,2.5706,2.5706,2.5706,2.5706,2.5706,2.5706,2.5706,2.5706,2.5706,2.5706,2.5706,2.5706,2.5706,2.5706,2.5706,2.5706,2.5706,2.5706,2.5706,2.5706,2.5706,2.5706,2.5706,2.5706,2.5706,2.5706,2.5706,2.5706,2.5706,2.5706,2.5706,2.5706,2.5706,2.5706,2.5706,2.5706,2.5706,2.5706,2.5706,2.5706,2.5706,2.5706,2.5706,2.5706,2.5784,2.6667,2.6999,2.7106,2.7978,2.8304,2.8304,3.3102,3.3102,3.3102,3.3102,3.3102,3.3102,3.3102,3.3102,3.3102,3.3102,3.3102,3.3102,3.3102,3.3102,3.3102,3.3102,3.3102,3.3102,3.3102,3.3102,3.3102,3.3102,3.3102,3.3102,3.3102,3.3102,3.3102,3.3102,3.3102,3.3102,3.3102,3.3102,3.3102,3.3102,3.3102,3.3102,3.3102,3.3102,3.3102,3.3102,3.3102,3.3102,3.3102,3.3102,3.3102,3.3102,3.3102,3.3102,3.3102,3.3102,3.3102,3.3102,3.3102,3.3102,3.3102,3.3102,3.3102,3.3102,3.3102,3.2819,3.203,2.992,2.8483,2.7268,2.5989,2.5706,2.5706,2.5706,2.5706,2.5706,2.5706,2.5706,2.5706,2.5706,2.5706,2.5706,2.5706,2.5706,2.5706,2.5706,2.5706,2.5706,2.5706,2.5706,2.5706,2.5706,2.5706,2.5706,2.5706,2.5706,2.5706,2.5706,2.5706,2.5706,2.5706,2.5706,2.5706,2.5706,2.5706,2.5706,2.5706,2.5706,2.5706,2.5706,2.5706,2.5706,2.5706,2.5706,2.5706,2.5784,2.6667,2.6999,2.7106,2.7978,2.8304,2.8304,3.3723,3.3388,3.3102,3.3102,3.3102,3.3102,3.3102,3.3102,3.3102,3.3102,3.3102,3.3102,3.3102,3.3102,3.3102,3.3102,3.3102,3.3102,3.3102,3.3102,3.3102,3.3102,3.3102,3.3102,3.3102,3.3102,3.3102,3.3102,3.3102,3.3102,3.3102,3.3102,3.3102,3.3102,3.3102,3.3102,3.3102,3.3102,3.3102,3.3102,3.3102,3.3102,3.3102,3.3102,3.3102,3.3102,3.3102,3.3102,3.3102,3.3102,3.3102,3.3102,3.3102,3.3102,3.3102,3.3102,3.3102,3.3102,3.3102,3.3102,3.2612,3.0608,2.92,2.7992,2.6742,2.6062,2.5706,2.5706,2.5706,2.5706,2.5706,2.5706,2.5706,2.5706,2.5706,2.5706,2.5706,2.5706,2.5706,2.5706,2.5706,2.5706,2.5706,2.5706,2.5706,2.5706,2.5706,2.5706,2.5706,2.5706,2.5706,2.5706,2.5706,2.5706,2.5706,2.5706,2.5706,2.5706,2.5706,2.5706,2.5706,2.5706,2.5706,2.5706,2.5706,2.5706,2.5706,2.5706,2.5706,2.5784,2.6667,2.6999,2.7106,2.7978,2.8304,2.8304,3.4825,3.3984,3.324,3.324,3.3154,3.3102,3.3102,3.3102,3.3102,3.3102,3.3102,3.3102,3.3102,3.3102,3.3102,3.3102,3.3102,3.3102,3.3102,3.3102,3.3102,3.3102,3.3102,3.3102,3.3102,3.3102,3.3102,3.3102,3.3102,3.3102,3.3102,3.3102,3.3102,3.3102,3.3102,3.3102,3.3102,3.3102,3.3102,3.3102,3.3102,3.3102,3.3102,3.3102,3.3102,3.3102,3.3102,3.3102,3.3102,3.3102,3.3102,3.3102,3.3102,3.3102,3.3102,3.3102,3.3102,3.3102,3.3102,3.3102,3.2819,3.1667,3.0384,2.9074,2.7873,2.661,2.5706,2.5706,2.5706,2.5706,2.5706,2.5706,2.5706,2.5706,2.5706,2.5706,2.5706,2.5706,2.5706,2.5706,2.5706,2.5706,2.5706,2.5706,2.5706,2.5706,2.5706,2.5706,2.5706,2.5706,2.5706,2.5706,2.5706,2.5706,2.5706,2.5706,2.5706,2.5706,2.5706,2.5706,2.5706,2.5706,2.5706,2.5706,2.5706,2.5706,2.5706,2.5706,2.5706,2.5784,2.6667,2.6999,2.7106,2.7978,2.8304,2.8304,3.5874,3.5058,3.4345,3.4345,3.3649,3.3102,3.3102,3.3102,3.3102,3.3102,3.3102,3.3102,3.3102,3.3102,3.3102,3.3102,3.3102,3.3102,3.3102,3.3102,3.3102,3.3102,3.3102,3.3102,3.3102,3.3102,3.3102,3.3102,3.3102,3.3102,3.3102,3.3102,3.3102,3.3102,3.3102,3.3102,3.3102,3.3102,3.3102,3.3102,3.3102,3.3102,3.3102,3.3102,3.3102,3.3102,3.3102,3.3102,3.3102,3.3102,3.3102,3.3102,3.3102,3.3102,3.3102,3.3102,3.3102,3.3102,3.3102,3.3102,3.3025,3.2765,3.1034,2.9074,2.7873,2.661,2.5706,2.5706,2.5706,2.5706,2.5706,2.5706,2.5706,2.5706,2.5706,2.5706,2.5706,2.5706,2.5706,2.5706,2.5706,2.5706,2.5706,2.5706,2.5706,2.5706,2.5706,2.5706,2.5706,2.5706,2.5706,2.5706,2.5706,2.5706,2.5706,2.5706,2.5706,2.5706,2.5706,2.5706,2.5706,2.5706,2.5706,2.5706,2.5706,2.5706,2.5706,2.5706,2.5706,2.5784,2.6667,2.6999,2.7106,2.7978,2.8304,2.8304,3.6959,3.6126,3.5258,3.4787,3.4244,3.3681,3.3176,3.3102,3.3102,3.3102,3.3102,3.3102,3.3102,3.3102,3.3102,3.3102,3.3102,3.3102,3.3102,3.3102,3.3102,3.3102,3.3102,3.3102,3.3102,3.3102,3.3102,3.3102,3.3102,3.3102,3.3102,3.3102,3.3102,3.3102,3.3102,3.3102,3.3102,3.3102,3.3102,3.3102,3.3102,3.3102,3.3102,3.3102,3.3102,3.3102,3.3102,3.3102,3.3102,3.3102,3.3102,3.3102,3.3102,3.3102,3.3102,3.3102,3.3102,3.3102,3.3102,3.3102,3.295,3.235,3.0788,2.9235,2.8599,2.703,2.5706,2.5706,2.5706,2.5706,2.5706,2.5706,2.5706,2.5706,2.5706,2.5706,2.5706,2.5706,2.5706,2.5706,2.5706,2.5706,2.5706,2.5706,2.5706,2.5706,2.5706,2.5706,2.5706,2.5706,2.5706,2.5706,2.5706,2.5706,2.5706,2.5706,2.5706,2.5706,2.5706,2.5706,2.5706,2.5706,2.5706,2.5706,2.5706,2.5706,2.5706,2.5706,2.5706,2.5784,2.6667,2.6999,2.7106,2.7978,2.8304,2.8304,3.8069,3.7204,3.6202,3.5383,3.4938,3.4397,3.3503,3.3219,3.3102,3.3102,3.3102,3.3102,3.3102,3.3102,3.3102,3.3102,3.3102,3.3102,3.3102,3.3102,3.3102,3.3102,3.3102,3.3102,3.3102,3.3102,3.3102,3.3102,3.3102,3.3102,3.3102,3.3102,3.3102,3.3102,3.3102,3.3102,3.3102,3.3102,3.3102,3.3102,3.3102,3.3102,3.3102,3.3102,3.3102,3.3102,3.3102,3.3102,3.3102,3.3102,3.3102,3.3102,3.3102,3.3102,3.3102,3.3102,3.3102,3.3102,3.3102,3.3102,3.2797,3.1522,3.0294,2.935,2.9131,2.7329,2.5706,2.5706,2.5706,2.5706,2.5706,2.5706,2.5706,2.5706,2.5706,2.5706,2.5706,2.5706,2.5706,2.5706,2.5706,2.5706,2.5706,2.5706,2.5706,2.5706,2.5706,2.5706,2.5706,2.5706,2.5706,2.5706,2.5706,2.5706,2.5706,2.5706,2.5706,2.5706,2.5706,2.5706,2.5706,2.5706,2.5706,2.5706,2.5706,2.5706,2.5706,2.5706,2.5757,2.5903,2.6696,2.7048,2.7217,2.8008,2.8304,2.8304,3.9177,3.8327,3.7539,3.7405,3.5895,3.4643,3.4511,3.3691,3.3102,3.3102,3.3102,3.3102,3.3102,3.3102,3.3102,3.3102,3.3102,3.3102,3.3102,3.3102,3.3102,3.3102,3.3102,3.3102,3.3102,3.3102,3.3102,3.3102,3.3102,3.3102,3.3102,3.3102,3.3102,3.3102,3.3102,3.3102,3.3102,3.3102,3.3102,3.3102,3.3102,3.3102,3.3102,3.3102,3.3102,3.3102,3.3102,3.3102,3.3102,3.3102,3.3102,3.3102,3.3102,3.3102,3.3102,3.3102,3.3102,3.3102,3.3102,3.3102,3.2797,3.1522,3.0294,2.912,2.8074,2.673,2.5706,2.5706,2.5706,2.5706,2.5706,2.5706,2.5706,2.5706,2.5706,2.5706,2.5706,2.5706,2.5706,2.5706,2.5706,2.5706,2.5706,2.5706,2.5706,2.5706,2.5706,2.5706,2.5706,2.5706,2.5706,2.5706,2.5706,2.5706,2.5706,2.5706,2.5706,2.5706,2.5706,2.5706,2.5706,2.5706,2.5706,2.5706,2.5706,2.5706,2.5706,2.5706,2.5942,2.6348,2.6813,2.7246,2.7663,2.8128,2.8304,2.8304,3.9406,3.9017,3.8499,3.7895,3.7035,3.6045,3.488,3.4306,3.3787,3.3176,3.3102,3.3102,3.3102,3.3102,3.3102,3.3102,3.3102,3.3102,3.3102,3.3102,3.3102,3.3102,3.3102,3.3102,3.3102,3.3102,3.3102,3.3102,3.3102,3.3102,3.3102,3.3102,3.3102,3.3102,3.3102,3.3102,3.3102,3.3102,3.3102,3.3102,3.3102,3.3102,3.3102,3.3102,3.3102,3.3102,3.3102,3.3102,3.3102,3.3102,3.3102,3.3102,3.3102,3.3102,3.3102,3.3102,3.3102,3.3102,3.3102,3.3102,3.2797,3.1522,3.0294,2.9074,2.7873,2.661,2.5706,2.5706,2.5706,2.5706,2.5706,2.5706,2.5706,2.5706,2.5706,2.5706,2.5706,2.5706,2.5706,2.5706,2.5706,2.5706,2.5706,2.5706,2.5706,2.5706,2.5706,2.5706,2.5706,2.5706,2.5706,2.5706,2.5706,2.5706,2.5706,2.5706,2.5706,2.5706,2.5706,2.5706,2.5706,2.5706,2.5706,2.5706,2.5706,2.5706,2.5706,2.5706,2.5984,2.6438,2.6833,2.7422,2.8064,2.8236,2.8304,2.8304]}]]